[[[{"header":{"parameterUnit":"kt","parameterCategory":2,"dx":1,"dy":1,"la1":29.587661999999998,"la2":31.0,"lo1":-88.76705300000003,"lo2":-86.6583820000003,"nx":115,"ny":88,"refTime":"2022-09-19T06:00:00:Z","depth":0,"parameterNumber":1,"parameterNumberName":"U-component_of_WINDS"},"data":[8.1263,8.1597,8.1958,8.2085,8.221,8.2289,8.2402,8.2594,8.2402,8.2324,8.2244,8.2165,8.1924,8.1597,8.1597,8.1679,8.1842,8.1877,8.1958,8.1958,8.1877,8.1761,8.1679,8.1548,8.1298,8.0958,8.0612,8.0294,7.9846,7.9663,7.9572,7.9354,7.9354,7.9354,7.9354,7.9354,7.9446,7.9446,7.9446,7.9446,7.9261,7.8853,7.8568,7.8377,7.841,7.8313,7.8119,7.7924,7.7727,7.7428,7.7228,7.7058,7.6956,7.6924,7.6924,7.6822,7.6752,7.6752,7.6649,7.6546,7.6546,7.6546,7.6546,7.6442,7.6202,7.6202,7.6097,7.5992,7.5855,7.5537,7.5248,7.5248,7.5,7.5,7.4892,7.4892,7.4892,7.4892,7.4783,7.4564,7.4375,7.4122,7.3868,7.3756,7.3562,7.3449,7.3336,7.3108,7.2932,7.2733,7.2532,7.2532,7.2648,7.2446,7.2213,7.2182,7.2152,7.2299,7.2299,7.2182,7.2182,7.2385,7.2385,7.2385,7.2648,7.3024,7.3253,7.3305,7.3418,7.3562,7.348,7.348,7.3644,7.3868,7.4011,8.0403,8.0699,8.1213,8.1465,8.1562,8.1842,8.1924,8.1958,8.1924,8.1795,8.1583,8.1044,8.0752,8.0786,8.0872,8.0958,8.1044,8.1044,8.1044,8.1044,8.1044,8.1044,8.0958,8.0958,8.0786,8.0437,7.9992,7.9572,7.9202,7.9014,7.8887,7.8887,7.8792,7.8792,7.8792,7.8792,7.8792,7.8697,7.8664,7.8792,7.841,7.7924,7.7628,7.7428,7.7328,7.7328,7.7328,7.7328,7.7328,7.7127,7.6924,7.6752,7.6617,7.6649,7.6649,7.6649,7.6546,7.6442,7.641,7.6306,7.6338,7.6338,7.6474,7.6234,7.596,7.5749,7.5675,7.5537,7.5537,7.5216,7.4846,7.4627,7.4265,7.4042,7.3931,7.3931,7.3931,7.3931,7.3706,7.348,7.3367,7.3222,7.2963,7.2848,7.2733,7.2702,7.2471,7.2208,7.1857,7.1651,7.1325,7.1235,7.1235,7.1115,7.1145,7.1115,7.0995,7.1115,7.1085,7.1115,7.1145,7.1085,7.1085,7.1235,7.1444,7.1799,7.2152,7.2385,7.2617,7.2733,7.2648,7.2679,7.2848,7.2848,7.2993,7.9992,8.0205,8.0491,8.0718,8.0924,8.1009,8.1179,8.1263,8.1094,8.0872,8.0471,8.0082,7.9902,7.9992,8.0082,8.0082,8.0082,8.0082,8.0171,8.0171,8.0082,8.0171,8.0082,8.0082,7.9992,7.9936,7.948,7.9014,7.8506,7.828,7.8086,7.7891,7.7793,7.7793,7.7793,7.7793,7.7793,7.7891,7.7793,7.7793,7.7727,7.7528,7.7228,7.7127,7.7159,7.7058,7.7058,7.6956,7.6854,7.6752,7.6649,7.6442,7.6442,7.6338,7.6338,7.6371,7.6338,7.6338,7.6097,7.596,7.5992,7.5887,7.5887,7.5919,7.5537,7.514,7.5032,7.4674,7.4564,7.4454,7.4074,7.385,7.348,7.3222,7.3108,7.3024,7.3024,7.2993,7.2763,7.2648,7.2385,7.2269,7.1948,7.1681,7.1681,7.1563,7.1294,7.0935,7.0814,7.0723,7.0143,6.9897,6.9554,6.9554,6.9773,6.9897,6.9897,6.9744,6.9714,6.9867,6.9867,6.9867,6.9897,7.0143,7.0359,7.0723,7.1085,7.1385,7.1593,7.1681,7.1681,7.1711,7.1711,7.1711,7.1593,7.9731,7.9663,7.9687,7.9925,8.0171,8.0171,8.0349,8.0525,8.026,7.9778,7.9387,7.9354,7.9354,7.9354,7.9354,7.9354,7.9354,7.9446,7.9354,7.9354,7.9354,7.9446,7.9321,7.9354,7.9354,7.9202,7.8981,7.8506,7.8086,7.7793,7.7495,7.7228,7.7328,7.7328,7.7328,7.7328,7.7328,7.7295,7.7228,7.7025,7.7025,7.7058,7.7025,7.6924,7.6956,7.6854,7.6752,7.6681,7.6546,7.6442,7.6474,7.6371,7.6371,7.6338,7.6234,7.6234,7.6129,7.5992,7.5749,7.5749,7.5644,7.5537,7.5431,7.5355,7.5032,7.4627,7.4185,7.3819,7.348,7.3367,7.3139,7.3024,7.2763,7.2501,7.2269,7.2269,7.2182,7.2152,7.2004,7.1769,7.1383,7.1055,7.0753,7.051,7.051,7.0388,7.0114,6.9897,6.9773,6.9525,6.9024,6.8801,6.8449,6.842,6.849,6.8743,6.8869,6.8743,6.8743,6.8714,6.8714,6.8743,6.8898,6.915,6.9275,6.9525,6.9897,7.0296,7.0418,7.0359,7.0359,7.0329,7.0359,7.0114,6.9897,7.8981,7.8887,7.8887,7.9075,7.9295,7.948,7.9572,7.9572,7.9135,7.8853,7.8792,7.8792,7.8792,7.8664,7.8664,7.8697,7.8697,7.8697,7.8664,7.8759,7.8664,7.8664,7.8664,7.8759,7.8664,7.8568,7.8377,7.8022,7.7793,7.7528,7.7228,7.7228,7.7127,7.7025,7.7025,7.7025,7.7025,7.6924,7.6719,7.6546,7.6546,7.6546,7.6442,7.6546,7.6546,7.6474,7.6442,7.6442,7.6442,7.6442,7.6371,7.6338,7.6234,7.6097,7.5855,7.5855,7.5781,7.5537,7.5537,7.5431,7.5323,7.5323,7.5431,7.5,7.4344,7.3706,7.3367,7.3024,7.2648,7.2416,7.2182,7.1948,7.1681,7.1444,7.1205,7.0965,7.0965,7.0965,7.0814,7.0542,7.0299,7.0114,6.9649,6.9525,6.9525,6.9121,6.8898,6.8801,6.8548,6.842,6.8165,6.8036,6.7807,6.7779,6.785,6.785,6.7879,6.7879,6.7908,6.7879,6.7592,6.775,6.7879,6.8165,6.842,6.8576,6.8801,6.9024,6.9246,6.9246,6.9246,6.9092,6.8714,6.8362,6.8264,7.8825,7.8664,7.8697,7.8792,7.8887,7.8981,7.8887,7.8568,7.8377,7.8119,7.8022,7.8022,7.7924,7.7793,7.7793,7.7793,7.7825,7.7924,7.7924,7.7891,7.7793,7.7891,7.7793,7.7793,7.7891,7.7694,7.7595,7.7528,7.7428,7.7127,7.6854,7.6719,7.6752,7.6617,7.6719,7.6719,7.6752,7.6649,7.6546,7.6442,7.6474,7.6474,7.6442,7.6474,7.6474,7.6474,7.6474,7.6474,7.6442,7.6371,7.6097,7.6097,7.5992,7.5749,7.5537,7.5537,7.5431,7.5323,7.5108,7.5032,7.4814,7.4705,7.4486,7.4042,7.3336,7.2763,7.2416,7.2182,7.183,7.1474,7.1205,7.0844,7.0602,7.0236,6.9991,6.9744,6.9744,6.9744,6.962,6.9466,6.9246,6.9024,6.8772,6.8519,6.8391,6.8264,6.8165,6.7936,6.7807,6.752,6.7288,6.7288,6.7288,6.726,6.726,6.726,6.7129,6.6998,6.7027,6.7027,6.6632,6.6764,6.6867,6.7157,6.7447,6.7807,6.8165,6.8107,6.8107,6.8235,6.8235,6.785,6.7491,6.7101,6.7129,7.8568,7.8473,7.8473,7.8473,7.8473,7.8473,7.8216,7.7793,7.7694,7.7628,7.7461,7.7428,7.7428,7.7127,7.7127,7.7228,7.7228,7.7127,7.7127,7.7228,7.7328,7.7228,7.7228,7.7228,7.7228,7.7228,7.7127,7.7058,7.7025,7.6854,7.6546,7.6442,7.6442,7.6442,7.6442,7.6474,7.6474,7.6442,7.6442,7.6371,7.6371,7.6234,7.6234,7.6097,7.6097,7.5992,7.5992,7.5992,7.5992,7.6129,7.5855,7.5749,7.5749,7.5537,7.5323,7.5355,7.5108,7.5,7.4846,7.4517,7.4185,7.3962,7.3367,7.2648,7.2182,7.1681,7.1294,7.1085,7.0874,7.0602,7.0236,6.9867,6.9525,6.9275,6.8995,6.8743,6.8743,6.8743,6.8772,6.8617,6.849,6.8264,6.8036,6.7779,6.7779,6.7649,6.752,6.7418,6.7157,6.6764,6.666,6.666,6.6632,6.6632,6.6632,6.6632,6.65,6.6234,6.6234,6.6234,6.6129,6.6129,6.6129,6.6262,6.666,6.7027,6.726,6.726,6.7129,6.726,6.726,6.6736,6.6234,6.6234,6.6262,7.8216,7.7989,7.7989,7.7989,7.8022,7.7989,7.7858,7.7561,7.7328,7.7228,7.7228,7.7228,7.7127,7.7127,7.7127,7.7127,7.7127,7.7127,7.7127,7.7127,7.7025,7.7025,7.7025,7.7025,7.7058,7.7025,7.6956,7.6752,7.6752,7.6546,7.6442,7.6371,7.6371,7.6338,7.6234,7.6234,7.6234,7.6234,7.6234,7.6234,7.6097,7.5992,7.5887,7.5749,7.5749,7.5644,7.5644,7.5644,7.5537,7.5537,7.5462,7.5431,7.5431,7.5431,7.5248,7.5063,7.4548,7.4407,7.4296,7.3962,7.3624,7.2909,7.2065,7.1593,7.1115,7.0602,7.0359,7.002,6.9773,6.9496,6.9342,6.8898,6.8548,6.8293,6.8008,6.7879,6.775,6.775,6.7779,6.7779,6.7649,6.752,6.726,6.7157,6.7157,6.7027,6.6895,6.6764,6.65,6.6262,6.6262,6.6129,6.6129,6.5995,6.5995,6.6129,6.5995,6.5862,6.5862,6.5728,6.5889,6.5755,6.5728,6.5728,6.5862,6.6129,6.6367,6.6395,6.6262,6.6129,6.6234,6.5862,6.57,6.5593,6.5593,7.7989,7.7924,7.7924,7.7924,7.7891,7.7759,7.7528,7.7361,7.7228,7.7058,7.6989,7.6956,7.6854,7.6752,7.6649,7.6617,7.6649,7.6649,7.6649,7.6617,7.6617,7.6752,7.6752,7.6617,7.6752,7.6649,7.6546,7.6546,7.6442,7.6442,7.6338,7.6338,7.6371,7.6097,7.5855,7.5781,7.5781,7.5781,7.5887,7.5887,7.5749,7.5644,7.5537,7.5537,7.5431,7.5431,7.5431,7.5431,7.5431,7.5323,7.5248,7.5172,7.5063,7.5063,7.4846,7.4737,7.4438,7.4216,7.3737,7.3367,7.2563,7.186,7.1025,7.0388,6.9991,6.9525,6.9305,6.9054,6.8646,6.8391,6.8391,6.8036,6.7678,6.726,6.6998,6.6736,6.6604,6.6632,6.6632,6.65,6.65,6.65,6.6395,6.6528,6.6528,6.6395,6.6262,6.6129,6.5995,6.5995,6.5995,6.5995,6.5862,6.5862,6.5755,6.5755,6.5593,6.5458,6.5458,6.5323,6.5351,6.5351,6.5458,6.5458,6.5458,6.5593,6.5728,6.5889,6.5862,6.5728,6.5458,6.5188,6.5188,6.5052,6.5052,7.7924,7.7924,7.7924,7.7825,7.7727,7.7528,7.726,7.7025,7.7058,7.6854,7.6681,7.6681,7.6546,7.6442,7.6442,7.6442,7.6442,7.6371,7.6371,7.6442,7.6442,7.6371,7.6442,7.6442,7.6338,7.6234,7.6234,7.6129,7.6129,7.5992,7.5992,7.6097,7.5887,7.5749,7.5537,7.5431,7.5431,7.5431,7.5431,7.5431,7.5431,7.5323,7.5355,7.5355,7.514,7.514,7.514,7.514,7.5032,7.4923,7.4814,7.4627,7.4517,7.4407,7.4296,7.4296,7.4185,7.385,7.3367,7.2563,7.1711,7.0904,7.0079,6.9584,6.915,6.8548,6.8321,6.8193,6.8036,6.7807,6.752,6.7288,6.6895,6.6632,6.6367,6.6129,6.5862,6.5862,6.5862,6.5728,6.5889,6.5995,6.5995,6.6129,6.5995,6.5728,6.5458,6.5458,6.5458,6.5593,6.5593,6.5593,6.5593,6.5621,6.5486,6.5351,6.5188,6.5052,6.5052,6.4916,6.4916,6.4916,6.4889,6.5025,6.5025,6.5188,6.5188,6.5323,6.5323,6.516,6.4725,6.4315,6.4288,6.4315,6.4452,7.7924,7.7924,7.7924,7.7628,7.7228,7.7127,7.7025,7.6752,7.6752,7.6649,7.6442,7.6474,7.6442,7.6442,7.6371,7.6338,7.6338,7.6338,7.6338,7.6234,7.6234,7.6234,7.6338,7.6234,7.6097,7.5855,7.5781,7.5749,7.5537,7.5537,7.5537,7.5537,7.5462,7.5355,7.5431,7.5431,7.5431,7.5431,7.5323,7.5323,7.5216,7.5172,7.5063,7.4955,7.4846,7.4737,7.4737,7.4627,7.4517,7.4407,7.4296,7.4185,7.3962,7.385,7.3737,7.3706,7.3624,7.3336,7.2733,7.1593,7.0783,7.005,6.9208,6.8732,6.8321,6.8036,6.7649,6.7418,6.7418,6.7186,6.6895,6.6472,6.6234,6.5968,6.5995,6.5728,6.5728,6.5593,6.5593,6.5458,6.5728,6.5862,6.5889,6.5728,6.5323,6.5052,6.4752,6.4752,6.4916,6.4916,6.5052,6.5052,6.5052,6.5052,6.5052,6.4916,6.478,6.478,6.4616,6.4616,6.4616,6.4452,6.4452,6.4589,6.4589,6.4589,6.4616,6.4752,6.4589,6.4288,6.3874,6.3736,6.3682,6.3682,6.3848,7.7825,7.7628,7.766,7.7361,7.6956,7.6854,7.6752,7.6578,7.6546,7.6442,7.6442,7.6371,7.6371,7.6371,7.6338,7.6234,7.5992,7.596,7.5887,7.5781,7.5749,7.5644,7.5749,7.5749,7.5781,7.5644,7.5537,7.5537,7.5323,7.5431,7.5323,7.5248,7.5172,7.4955,7.4955,7.4846,7.4846,7.4846,7.4846,7.4846,7.4846,7.4737,7.4737,7.4737,7.4517,7.4438,7.4296,7.4074,7.3962,7.385,7.385,7.3737,7.3624,7.3511,7.3398,7.3284,7.3024,7.2648,7.2152,7.1235,7.0173,6.9334,6.8478,6.7807,6.7418,6.697,6.6736,6.6632,6.6528,6.6262,6.6262,6.6129,6.5862,6.5593,6.5458,6.5458,6.5323,6.5323,6.5188,6.5188,6.5188,6.5188,6.5188,6.5188,6.4889,6.4752,6.4479,6.4479,6.4479,6.4479,6.4479,6.4479,6.4616,6.4616,6.4616,6.4616,6.4479,6.4452,6.4315,6.4315,6.415,6.3874,6.3874,6.4012,6.4012,6.4012,6.3874,6.4039,6.3736,6.3571,6.3571,6.3598,6.3432,6.3293,6.3405,7.766,7.7428,7.726,7.7058,7.6681,7.6681,7.6546,7.6442,7.6371,7.6371,7.6371,7.6234,7.6129,7.6024,7.5992,7.5855,7.5644,7.5644,7.5537,7.5399,7.5431,7.5431,7.5431,7.5431,7.5355,7.5355,7.5248,7.5248,7.514,7.5032,7.514,7.5063,7.4846,7.4627,7.4627,7.4627,7.4627,7.4627,7.4517,7.4548,7.4438,7.4407,7.4296,7.4296,7.4105,7.4074,7.3931,7.3706,7.348,7.3253,7.3139,7.3024,7.2825,7.2563,7.2446,7.233,7.1978,7.1711,7.1355,7.0266,6.9305,6.8449,6.7678,6.6895,6.6528,6.6367,6.6129,6.5995,6.5995,6.5862,6.5728,6.5593,6.5593,6.5188,6.5052,6.4916,6.4916,6.4916,6.4916,6.4916,6.4752,6.4616,6.4616,6.4616,6.4479,6.4315,6.4315,6.4177,6.4177,6.415,6.4039,6.4039,6.4039,6.4177,6.415,6.415,6.415,6.4012,6.3848,6.3848,6.3848,6.3571,6.3432,6.3544,6.3544,6.3709,6.3571,6.3319,6.318,6.3067,6.3067,6.318,6.318,6.318,6.304,7.7328,7.7127,7.6854,7.6681,7.6474,7.6371,7.6338,7.6338,7.6338,7.6338,7.6234,7.5992,7.5644,7.5537,7.5537,7.5431,7.5431,7.5431,7.5323,7.5323,7.5323,7.5323,7.5216,7.5216,7.5248,7.5063,7.4987,7.4846,7.4737,7.4705,7.4517,7.4627,7.4407,7.4517,7.4517,7.4407,7.4438,7.4407,7.4296,7.4216,7.4074,7.3962,7.3737,7.3737,7.3624,7.3624,7.3511,7.317,7.2794,7.2501,7.2299,7.2096,7.189,7.1623,7.1355,7.1235,7.0904,7.051,6.9867,6.9054,6.8165,6.7649,6.6998,6.6339,6.5995,6.5889,6.5755,6.5755,6.5593,6.5458,6.5323,6.5188,6.5188,6.4916,6.4752,6.4616,6.4589,6.4589,6.4479,6.4616,6.4616,6.4342,6.4315,6.4315,6.415,6.3985,6.3848,6.3848,6.3848,6.3874,6.3736,6.3736,6.3736,6.3598,6.3571,6.3571,6.3709,6.3709,6.3571,6.3432,6.3432,6.3432,6.3319,6.3293,6.3153,6.3293,6.3432,6.29,6.2531,6.2531,6.2557,6.2531,6.2531,6.2504,6.2504,7.7058,7.6649,7.6546,7.6442,7.6371,7.6371,7.6202,7.596,7.596,7.5855,7.5644,7.5537,7.5537,7.5431,7.5399,7.5248,7.5172,7.5172,7.5063,7.4846,7.4846,7.4846,7.4814,7.4846,7.4846,7.4737,7.4659,7.4627,7.4407,7.4185,7.3962,7.3962,7.4074,7.3962,7.3931,7.3962,7.3962,7.3962,7.385,7.385,7.3706,7.3737,7.3511,7.3284,7.3139,7.2879,7.2648,7.2182,7.186,7.1593,7.1355,7.1145,7.1055,7.0662,7.0266,7.0173,6.9525,6.8995,6.8264,6.7779,6.7157,6.6736,6.6339,6.594,6.5593,6.5458,6.5458,6.5052,6.5025,6.4889,6.4916,6.4916,6.478,6.4616,6.4452,6.4288,6.426,6.3985,6.3985,6.4012,6.415,6.4012,6.3901,6.3874,6.3709,6.3544,6.3544,6.3544,6.3544,6.3571,6.3571,6.3459,6.3459,6.3459,6.3432,6.3432,6.3293,6.3293,6.3153,6.3014,6.2927,6.2953,6.2927,6.2927,6.2813,6.2786,6.2619,6.2106,6.1704,6.1704,6.1704,6.173,6.173,6.1704,6.1704,7.6649,7.6371,7.6371,7.6338,7.6097,7.6097,7.596,7.5644,7.5612,7.5537,7.5431,7.5355,7.5248,7.5248,7.5108,7.5063,7.4955,7.4846,7.4768,7.4659,7.4627,7.4627,7.4517,7.4438,7.4327,7.4296,7.4185,7.4296,7.4185,7.385,7.3624,7.3737,7.3737,7.3624,7.3737,7.3737,7.3624,7.3624,7.3624,7.348,7.3222,7.3139,7.2909,7.2709,7.2299,7.2065,7.1711,7.1235,7.0783,7.0662,7.0266,7.002,6.9897,6.9649,6.9305,6.9179,6.8264,6.7362,6.6895,6.6632,6.6101,6.5834,6.5565,6.5268,6.4725,6.4452,6.4452,6.4288,6.4177,6.4177,6.4177,6.4177,6.4177,6.415,6.3985,6.3985,6.3848,6.3544,6.3405,6.3544,6.3544,6.3459,6.3233,6.3207,6.3207,6.304,6.304,6.304,6.318,6.318,6.3319,6.318,6.318,6.318,6.318,6.3207,6.29,6.2786,6.2786,6.2645,6.2557,6.2416,6.2389,6.2389,6.2106,6.1821,6.1821,6.1391,6.0959,6.0985,6.084,6.1129,6.1247,6.1103,6.1129,7.6338,7.6338,7.6338,7.6097,7.5781,7.5749,7.5644,7.5431,7.5323,7.5323,7.5216,7.5063,7.4987,7.4955,7.4737,7.4627,7.4659,7.4659,7.4548,7.4438,7.4407,7.4296,7.4185,7.4216,7.3962,7.385,7.3737,7.3593,7.3624,7.3624,7.3511,7.3511,7.3511,7.3542,7.3398,7.3367,7.348,7.348,7.3398,7.3139,7.2648,7.2416,7.2096,7.1772,7.1415,7.1115,7.0874,7.0266,6.9679,6.9679,6.8995,6.8714,6.8588,6.8293,6.8193,6.7678,6.6764,6.5728,6.5728,6.5565,6.516,6.4725,6.4616,6.4315,6.4012,6.3709,6.3709,6.3544,6.3544,6.3682,6.3709,6.3571,6.3544,6.3544,6.3571,6.3571,6.3432,6.3266,6.318,6.318,6.318,6.2927,6.2813,6.2672,6.2531,6.2531,6.2531,6.2672,6.2672,6.2813,6.2813,6.2813,6.2813,6.2672,6.2672,6.2557,6.2416,6.2416,6.2416,6.2274,6.2158,6.2016,6.1989,6.1678,6.1103,6.0959,6.0499,6.0353,6.0353,6.0061,5.9596,5.989,6.0499,6.0644,6.0379,7.6234,7.5992,7.596,7.5781,7.5537,7.5505,7.5355,7.5172,7.5172,7.5063,7.4846,7.4737,7.4768,7.4768,7.4627,7.4517,7.4327,7.4296,7.4185,7.3962,7.3962,7.385,7.385,7.3737,7.3737,7.3624,7.3624,7.3511,7.317,7.3086,7.3086,7.3055,7.3055,7.3086,7.294,7.2794,7.2648,7.2532,7.236,7.2274,7.2008,7.1772,7.1385,7.1175,7.057,7.002,6.9744,6.9054,6.8675,6.8293,6.7908,6.7678,6.726,6.6998,6.6472,6.5995,6.5296,6.4889,6.4589,6.4288,6.415,6.3874,6.3874,6.3736,6.3544,6.3405,6.3544,6.3544,6.3544,6.3405,6.3405,6.3544,6.3544,6.3432,6.3293,6.3153,6.3014,6.304,6.2927,6.2813,6.2813,6.2672,6.2531,6.2416,6.2274,6.2274,6.2274,6.2274,6.2274,6.2416,6.2416,6.2416,6.2274,6.2132,6.2132,6.2016,6.2016,6.2016,6.2016,6.1847,6.173,6.1586,6.1273,6.1103,6.0524,5.9474,5.9179,5.8883,5.871,5.8387,5.8362,5.8362,5.871,5.9031,5.9154,7.5781,7.5644,7.5644,7.5431,7.5248,7.5248,7.5032,7.4846,7.4846,7.4737,7.4627,7.4627,7.4517,7.4517,7.4438,7.4327,7.4105,7.3962,7.385,7.3737,7.3624,7.3624,7.3511,7.3511,7.3398,7.3284,7.3284,7.3055,7.2856,7.274,7.2679,7.2593,7.2508,7.2391,7.2391,7.2243,7.2096,7.2096,7.2039,7.1802,7.1653,7.1295,7.0783,7.0296,6.9554,6.9054,6.8646,6.8065,6.7548,6.7129,6.6924,6.666,6.6234,6.5672,6.4834,6.4561,6.4288,6.4012,6.3848,6.3709,6.3432,6.3293,6.3293,6.3153,6.318,6.304,6.3067,6.304,6.3067,6.304,6.304,6.3067,6.304,6.304,6.29,6.276,6.276,6.2672,6.2389,6.2132,6.2132,6.2132,6.2132,6.2132,6.1989,6.1989,6.1989,6.1989,6.1989,6.1847,6.1873,6.1873,6.1847,6.1704,6.1704,6.1586,6.1586,6.1586,6.1561,6.1417,6.1273,6.0985,6.0669,6.0061,5.9179,5.8113,5.7662,5.7361,5.7058,5.6754,5.673,5.673,5.7058,5.7385,5.7487,7.5431,7.5323,7.5323,7.5248,7.4987,7.4846,7.4768,7.4548,7.4517,7.4407,7.4407,7.4407,7.4296,7.4216,7.4216,7.3962,7.3706,7.3624,7.3624,7.3511,7.3511,7.3398,7.3284,7.317,7.3086,7.2856,7.2709,7.2709,7.2593,7.2446,7.233,7.2213,7.2039,7.1921,7.1921,7.1833,7.1772,7.1684,7.1534,7.1295,7.1025,7.0662,7.0143,6.915,6.8548,6.8036,6.752,6.7027,6.65,6.6073,6.5834,6.5593,6.5296,6.4288,6.3709,6.3571,6.3571,6.3432,6.3319,6.3319,6.3153,6.3014,6.2874,6.2645,6.2531,6.2416,6.2389,6.2416,6.2416,6.2416,6.2416,6.2389,6.2416,6.2416,6.2389,6.2389,6.2389,6.2274,6.2132,6.1704,6.1561,6.1417,6.1561,6.1704,6.1704,6.1704,6.1704,6.1704,6.1704,6.1586,6.1586,6.1443,6.1299,6.1299,6.1273,6.1129,6.0985,6.084,6.0695,6.0669,6.0233,6.0087,5.9327,5.8088,5.7185,5.6578,5.6119,5.5812,5.5504,5.504,5.504,5.5063,5.5373,5.5504,5.5788,7.5248,7.5063,7.5063,7.4955,7.4737,7.4375,7.4265,7.4296,7.3962,7.385,7.385,7.385,7.385,7.3737,7.3737,7.3706,7.3624,7.3429,7.3284,7.3055,7.3055,7.294,7.294,7.2825,7.2624,7.2039,7.2156,7.2156,7.2156,7.2039,7.2008,7.1921,7.1951,7.1802,7.1802,7.1653,7.1295,7.1055,7.0783,7.051,7.0173,6.9773,6.915,6.8264,6.7548,6.6867,6.6472,6.6101,6.5728,6.5052,6.4916,6.4616,6.415,6.3571,6.3432,6.2934,6.2721,6.2502,6.2336,6.2548,6.246,6.2672,6.2337,6.2053,6.2079,6.1769,6.1678,6.1704,6.1704,6.173,6.1561,6.1704,6.1704,6.1561,6.1561,6.1561,6.1561,6.1561,6.1561,6.1299,6.1273,6.1129,6.1273,6.1129,6.1273,6.1443,6.1443,6.1443,6.1443,6.1443,6.1273,6.1129,6.0985,6.0985,6.0669,6.0499,6.0112,5.9966,5.9647,5.9352,5.8908,5.8412,5.7487,5.6272,5.535,5.504,5.4573,5.4261,5.3948,5.3454,5.3318,5.3656,5.3791,5.3791,5.4261,7.2636,7.2361,7.2392,7.2587,7.3027,7.3011,7.3307,7.3756,7.3737,7.3624,7.3624,7.3624,7.3624,7.3511,7.3511,7.3398,7.3284,7.3055,7.2971,7.2825,7.2709,7.2563,7.2563,7.236,7.2274,7.2039,7.1921,7.1921,7.1802,7.1802,7.1684,7.1653,7.1415,7.1235,7.1025,7.0904,7.0572,7.0299,7.002,6.9679,6.9459,6.8928,6.8136,6.739,6.65,6.5834,6.5482,6.5078,6.4698,6.3989,6.2742,6.1772,6.134,6.1204,6.1068,6.0958,6.0795,6.0521,6.041,6.0272,6.0351,6.022,6.0595,6.0637,6.0819,6.1275,6.1365,6.1443,6.1417,6.1417,6.1443,6.1443,6.1443,6.1443,6.1443,6.1443,6.1443,6.0985,6.084,6.084,6.0814,6.0814,6.084,6.0669,6.0669,6.0695,6.0695,6.0669,6.084,6.084,6.0695,6.0695,6.055,6.0404,6.0061,5.9622,5.9352,5.9056,5.8734,5.8312,5.7336,5.6401,5.5765,5.4706,5.3768,5.3318,5.316,5.2866,5.2548,5.2229,5.2207,5.2388,5.2388,5.2366,5.2685,7.016,6.9961,6.993,7.0406,7.1125,7.128,7.1917,7.3065,7.3046,7.3057,7.348,7.3511,7.3398,7.32,7.317,7.3086,7.2971,7.2825,7.2825,7.2709,7.2446,7.2213,7.2065,7.1772,7.1714,7.1684,7.1684,7.1684,7.1653,7.1415,7.1265,7.1025,7.0575,7.0214,6.9794,6.9376,6.9193,6.8826,6.834,6.7881,6.7506,6.6847,6.621,6.5694,6.473,6.4147,6.3798,6.3392,6.3093,6.228,6.0752,5.9794,5.934,5.9153,5.9179,5.9071,5.8805,5.8592,5.8405,5.8426,5.8161,5.853,5.8905,5.9155,5.9232,5.9956,6.0356,6.0742,6.0768,6.082,6.1052,6.1155,6.1155,6.1129,6.1129,6.0985,6.084,6.0379,6.0087,6.0087,5.994,5.9915,6.0061,6.0061,6.0087,6.0087,5.994,5.994,5.994,6.0087,5.994,5.9794,5.9647,5.9525,5.9179,5.8833,5.8561,5.8262,5.7837,5.7385,5.5564,5.4435,5.3697,5.2801,5.2052,5.1727,5.1588,5.1266,5.0997,5.1083,5.0943,5.0943,5.0943,5.0943,5.1266,6.9645,6.9645,6.9645,6.9707,6.9725,6.9497,7.0162,7.1244,7.1094,7.171,7.2509,7.2848,7.2633,7.2971,7.2579,7.2794,7.2856,7.2563,7.2416,7.233,7.2126,7.1772,7.1474,7.1175,7.1055,7.1055,7.1055,7.1025,7.0815,7.0905,7.0723,6.9945,6.9141,6.8575,6.8068,6.6974,6.6119,6.5907,6.5418,6.5079,6.4738,6.4115,6.3512,6.3074,6.2302,6.1624,6.1016,6.0645,6.0272,5.9606,5.9394,5.8732,5.8465,5.8543,5.8383,5.801,5.788,5.7797,5.7979,5.7745,5.7927,5.7714,5.7624,5.7745,5.7685,5.7803,5.8087,5.8825,5.8759,5.9436,6.0022,6.0379,6.0379,6.0379,6.0379,6.0087,5.9474,5.9327,5.9179,5.9179,5.9179,5.9154,5.9154,5.9179,5.9327,5.9352,5.9327,5.9154,5.9154,5.9154,5.9006,5.8883,5.8759,5.8635,5.8238,5.8039,5.7565,5.7161,5.673,5.5529,5.3716,5.2151,5.1501,5.0826,5.0004,4.9615,4.9657,4.9631,4.9432,4.9411,4.9589,4.9574,4.9478,4.9968,5.0152,6.7103,6.7,6.7,6.7257,6.7694,6.7542,6.8201,6.9053,6.9125,6.941,6.9888,7.001,7.0468,7.1201,7.1231,7.1597,7.2213,7.2126,7.2096,7.1978,7.183,7.1474,7.1085,7.0753,7.0632,7.0662,7.0448,6.9972,6.9408,6.9289,6.8724,6.8011,6.7123,6.665,6.6234,6.5321,6.4638,6.4218,6.3637,6.3115,6.2866,6.2239,6.1705,6.1221,6.0835,6.0342,5.9845,5.9581,5.8627,5.7049,5.6554,5.6397,5.6241,5.6267,5.6267,5.6136,5.5848,5.5717,5.5691,5.5585,5.5454,5.5556,5.6012,5.5973,5.6016,5.6412,5.654,5.7056,5.7517,5.7994,5.8546,5.9123,5.9571,5.9622,5.9622,5.9474,5.9154,5.9031,5.9031,5.9031,5.9031,5.9031,5.9031,5.8908,5.8759,5.8734,5.8412,5.8238,5.8189,5.8213,5.8213,5.7938,5.7662,5.7143,5.672,5.6394,5.6091,5.5824,5.5293,5.3659,5.1571,4.9475,4.8809,4.8206,4.7724,4.7504,4.7651,4.7703,4.7703,4.7976,4.8158,4.8444,4.8921,4.9478,4.9314,6.5023,6.4849,6.4849,6.5165,6.5707,6.5662,6.6316,6.7221,6.7312,6.7585,6.7888,6.7858,6.8555,6.9343,6.9404,6.9889,7.0647,7.1015,7.1257,7.1227,7.0837,7.0154,6.9768,6.9319,6.9139,6.9139,6.8749,6.833,6.7447,6.7358,6.6768,6.571,6.524,6.4623,6.4122,6.318,6.2613,6.2277,6.1665,6.1086,6.0657,6.0154,5.9783,5.9399,5.9061,5.8829,5.8546,5.831,5.7127,5.5042,5.4683,5.4581,5.4711,5.4557,5.4634,5.4506,5.4145,5.394,5.3965,5.3758,5.3447,5.3472,5.4101,5.4346,5.4129,5.4832,5.5222,5.5609,5.5992,5.669,5.7437,5.811,5.8683,5.8932,5.8908,5.8734,5.8561,5.8561,5.8561,5.8412,5.8412,5.8262,5.8113,5.7963,5.7687,5.7687,5.7361,5.701,5.6889,5.6841,5.6311,5.6227,5.5782,5.5408,5.5105,5.4801,5.4542,5.4175,5.2769,5.1038,4.9301,4.7449,4.6792,4.6111,4.6194,4.6121,4.6059,4.5997,4.6294,4.6751,4.6792,4.6853,4.7649,4.806,4.7957,6.4051,6.4082,6.4051,6.4142,6.4159,6.4189,6.4886,6.5857,6.5948,6.6554,6.7464,6.7352,6.7736,6.7918,6.7837,6.8049,6.823,6.909,6.9487,6.895,6.8062,6.7206,6.715,6.6975,6.674,6.6651,6.6267,6.5944,6.562,6.5295,6.5089,6.4444,6.3163,6.2378,6.1731,6.009,5.9306,5.9123,5.8438,5.798,5.753,5.7134,5.6815,5.6494,5.6521,5.6322,5.6148,5.6021,5.5505,5.4735,5.4555,5.4428,5.4146,5.412,5.3888,5.3656,5.3526,5.3526,5.3396,5.3266,5.3005,5.3005,5.2944,5.2605,5.273,5.3004,5.3427,5.4149,5.4473,5.5245,5.6622,5.7367,5.7815,5.861,5.8066,5.7691,5.7312,5.7312,5.7185,5.6906,5.6778,5.6778,5.6778,5.6353,5.6177,5.5977,5.5576,5.5152,5.5012,5.4473,5.4098,5.362,5.3018,5.2695,5.2314,5.2034,5.1754,5.1032,4.9389,4.8083,4.6783,4.6046,4.5585,4.5174,4.4866,4.4793,4.4813,4.4638,4.486,4.5163,4.5264,4.5126,4.5506,4.5809,4.5869,6.3977,6.3977,6.3977,6.3841,6.3569,6.3599,6.3734,6.3988,6.4048,6.4319,6.471,6.48,6.5191,6.5883,6.6003,6.6484,6.7326,6.7693,6.7284,6.6194,6.5939,6.6294,6.6178,6.5974,6.5739,6.5208,6.473,6.4114,6.3246,6.2893,6.2283,6.148,6.0468,5.9887,5.9656,5.8403,5.7702,5.7461,5.715,5.6687,5.6414,5.6317,5.5944,5.5416,5.539,5.529,5.4963,5.4963,5.4683,5.4274,5.43,5.4017,5.3759,5.363,5.3501,5.3241,5.3136,5.3136,5.29,5.2768,5.2768,5.2637,5.253,5.2374,5.2084,5.2084,5.2208,5.2642,5.3135,5.3762,5.4696,5.5729,5.6128,5.5715,5.5809,5.5921,5.6041,5.6323,5.6506,5.6177,5.6048,5.6013,5.5517,5.4952,5.3934,5.3666,5.2795,5.2125,5.2011,5.1806,5.1647,5.1224,5.0495,5.0017,4.9764,4.9315,4.9036,4.7718,4.6365,4.5442,4.4692,4.4388,4.4043,4.3617,4.3252,4.3292,4.314,4.3066,4.3264,4.3288,4.3466,4.38,4.4078,4.4177,4.4018,6.3417,6.3417,6.3417,6.328,6.3036,6.3036,6.2898,6.279,6.279,6.2761,6.279,6.2761,6.3268,6.4013,6.4132,6.4639,6.5504,6.5504,6.4832,6.3932,6.4266,6.4504,6.4418,6.4013,6.3691,6.3189,6.2471,6.1627,6.0829,6.0329,5.9845,5.8999,5.8357,5.809,5.7998,5.7096,5.6607,5.651,5.629,5.5944,5.5568,5.5568,5.5317,5.4885,5.4911,5.4657,5.43,5.43,5.4171,5.3888,5.3863,5.3759,5.3396,5.3371,5.3111,5.29,5.29,5.2768,5.253,5.2374,5.2241,5.2241,5.2241,5.2109,5.1819,5.1686,5.1577,5.1431,5.1782,5.2462,5.2875,5.4161,5.4215,5.316,5.3878,5.4547,5.4618,5.4846,5.4973,5.4566,5.4415,5.4263,5.3643,5.2535,5.1534,5.1292,5.0282,4.9473,4.9341,4.9208,4.89,4.8834,4.831,4.7707,4.7046,4.6621,4.5899,4.4643,4.3735,4.3103,4.2683,4.2343,4.2114,4.1905,4.1585,4.1565,4.1526,4.1644,4.1899,4.2115,4.2311,4.2644,4.2901,4.3017,4.2762,6.2306,6.2306,6.2196,6.2306,6.2306,6.2335,6.2306,6.2306,6.2306,6.2306,6.2306,6.2306,6.2365,6.2424,6.2542,6.2314,6.258,6.2639,6.241,6.2292,6.1736,6.154,6.1599,6.0888,6.0454,6.0193,5.9117,5.8706,5.8642,5.807,5.7679,5.7543,5.7096,5.6947,5.6974,5.6333,5.5891,5.5694,5.529,5.5038,5.4709,5.4709,5.4709,5.4581,5.4581,5.43,5.3526,5.3526,5.3526,5.3526,5.3501,5.3396,5.3136,5.3031,5.29,5.2505,5.2505,5.2505,5.2398,5.2109,5.1952,5.1819,5.171,5.1577,5.1443,5.1175,5.093,5.093,5.0781,5.0819,5.1771,5.2014,5.1898,5.2038,5.2541,5.3112,5.3159,5.2748,5.2042,5.1637,5.1328,5.0974,5.0631,4.9686,4.8995,4.8648,4.8041,4.7283,4.7155,4.6644,4.6325,4.6133,4.5708,4.5159,4.4508,4.3755,4.2807,4.2104,4.1707,4.1499,4.1518,4.1369,4.1219,4.105,4.092,4.092,4.09,4.0939,4.1094,4.1094,4.1186,4.142,4.1541,4.1677,4.1615,6.2226,6.2226,6.2226,6.2226,6.2226,6.2226,6.2226,6.2226,6.2226,6.2226,6.2226,6.2226,6.2226,6.2226,6.2226,6.1946,6.1502,6.1391,6.1279,6.125,6.0828,6.06,6.0229,5.9796,5.9419,5.8921,5.8329,5.773,5.7272,5.6756,5.6414,5.6193,5.5864,5.5614,5.5614,5.5264,5.5064,5.4963,5.4836,5.4683,5.4581,5.4581,5.4428,5.43,5.4043,5.363,5.3526,5.3396,5.3396,5.3396,5.3396,5.3396,5.3031,5.2743,5.2505,5.2217,5.2084,5.1976,5.1819,5.171,5.1577,5.1334,5.1175,5.0906,5.0771,5.0636,5.0501,5.0525,5.0389,5.0437,5.0659,4.9902,4.9345,4.9484,5.0391,5.0996,5.1042,5.1286,5.1292,5.085,5.0211,4.9553,4.8951,4.7653,4.6751,4.6386,4.5196,4.4457,4.4117,4.3829,4.3685,4.3517,4.3271,4.3021,4.2538,4.2262,4.1577,4.1447,4.1219,4.1089,4.0939,4.0939,4.0769,4.0449,4.043,4.043,4.043,4.0449,4.0449,4.0449,4.0449,4.0449,4.0449,4.0449,4.0433,6.1532,6.1532,6.1532,6.1643,6.1502,6.1643,6.1532,6.1614,6.1643,6.1725,6.1725,6.1836,6.1865,6.1865,6.1643,6.1308,6.097,6.0856,6.0714,6.06,6.0286,5.994,5.968,5.9067,5.8476,5.8118,5.7461,5.6852,5.6015,5.5641,5.5416,5.519,5.4937,5.4885,5.4784,5.4555,5.4428,5.4428,5.43,5.4197,5.4171,5.4197,5.4017,5.3888,5.3501,5.3396,5.3396,5.3396,5.3396,5.3396,5.3396,5.3266,5.3031,5.2505,5.2109,5.1819,5.1794,5.1686,5.1552,5.1443,5.1175,5.093,5.082,5.0636,5.0365,5.0206,5.007,5.007,4.9934,4.9684,4.941,4.8743,4.821,4.8278,4.8781,4.9289,4.9284,4.9361,4.9625,4.9456,4.8702,4.7519,4.641,4.5388,4.4436,4.3926,4.305,4.2362,4.1965,4.1965,4.1985,4.1965,4.1945,4.1648,4.105,4.0769,4.0619,4.0769,4.0769,4.0619,4.0318,4.0167,4.0016,3.9694,3.9524,3.9524,3.9524,3.9543,3.9543,3.9524,3.9524,3.9524,3.9524,3.9524,3.9524,6.0343,6.0315,6.0372,6.0544,6.0429,6.0544,6.0544,6.0629,6.0714,6.0828,6.0941,6.1083,6.1195,6.1195,6.0743,6.0544,6.0429,6.0429,6.0401,6.0286,5.968,5.9419,5.9302,5.8145,5.7543,5.73,5.6483,5.5739,5.4986,5.4683,5.4581,5.4454,5.4454,5.4454,5.4454,5.4146,5.4017,5.4017,5.3759,5.3526,5.3526,5.3526,5.3526,5.3501,5.3396,5.3396,5.3396,5.3396,5.3396,5.3396,5.3136,5.3031,5.3005,5.2349,5.1819,5.1577,5.1577,5.1577,5.1443,5.1175,5.0955,5.082,5.0501,5.0342,5.023,4.9934,4.9637,4.9637,4.9088,4.8581,4.8326,4.8047,4.8047,4.7908,4.8093,4.8116,4.8116,4.7593,4.7064,4.6869,4.6287,4.5341,4.3818,4.2813,4.2322,4.1876,4.1388,4.107,4.107,4.107,4.092,4.092,4.092,4.0769,3.9713,3.9561,3.9694,3.9827,3.9978,3.9827,3.9524,3.9391,3.9087,3.8934,3.8916,3.8916,3.8763,3.8782,3.8782,3.8934,3.8916,3.8916,3.9068,3.8763,3.8916,5.8885,5.914,6.0028,6.0429,6.0429,6.0429,6.0429,6.0429,6.0544,6.0515,6.0515,6.0658,6.0629,6.0629,6.0515,6.0429,6.0429,5.994,5.9796,5.968,5.9123,5.8504,5.8025,5.7664,5.7055,5.6193,5.5819,5.5164,5.4376,5.3759,5.3266,5.3161,5.3266,5.3526,5.3526,5.363,5.363,5.363,5.3526,5.3396,5.3371,5.3396,5.3396,5.3396,5.3396,5.3396,5.3396,5.3266,5.3136,5.3136,5.29,5.2505,5.2217,5.206,5.1794,5.1577,5.1552,5.1468,5.1065,5.0955,5.066,5.023,5.007,4.9774,4.9477,4.9226,4.9088,4.8973,4.842,4.7722,4.7323,4.7182,4.6736,4.6594,4.6453,4.6453,4.6594,4.631,4.6003,4.5739,4.5143,4.4421,4.3254,4.2242,4.12,4.0731,4.043,4.0129,3.9524,3.9391,3.9391,3.9391,3.9372,3.922,3.9087,3.8934,3.8916,3.9068,3.9068,3.9068,3.8916,3.8916,3.8782,3.8611,3.8611,3.8611,3.8611,3.8611,3.8763,3.8611,3.8763,3.8763,3.8611,3.8611,3.8611,5.6934,5.7324,5.8063,5.8405,5.8517,5.8517,5.8517,5.8517,5.863,5.9056,5.9399,5.8858,5.8831,5.9258,5.9286,5.9485,5.9796,5.9447,5.9039,5.8804,5.8384,5.7812,5.7178,5.6933,5.6317,5.5416,5.4937,5.4402,5.3759,5.3111,5.2768,5.253,5.2768,5.2743,5.2875,5.3005,5.3111,5.3266,5.3266,5.3039,5.248,5.2001,5.1774,5.1749,5.1749,5.1749,5.1622,5.1519,5.1519,5.1392,5.116,5.0878,5.062,5.0491,5.0231,5.0125,5.0125,5.0019,4.9626,4.9904,4.9744,4.9159,4.9241,4.9202,4.9065,4.8697,4.8443,4.8002,4.7442,4.69,4.6594,4.631,4.6168,4.5861,4.5718,4.5574,4.5574,4.5287,4.4999,4.4566,4.413,4.3401,4.2538,4.1499,4.0449,3.9675,3.9524,3.9372,3.8763,3.8629,3.8629,3.8611,3.8305,3.8305,3.8476,3.8458,3.8458,3.8611,3.8629,3.8629,3.8476,3.8476,3.8323,3.8133,3.8133,3.8133,3.8287,3.8133,3.8152,3.8133,3.8133,3.8133,3.8152,3.8152,3.8133,5.4894,5.5143,5.5421,5.5531,5.5835,5.5835,5.5945,5.5917,5.605,5.6755,5.7523,5.6309,5.6287,5.719,5.7302,5.7836,5.8698,5.8636,5.8337,5.7943,5.7515,5.7055,5.644,5.5819,5.5317,5.4758,5.3863,5.3371,5.3241,5.2637,5.2374,5.2374,5.2374,5.2374,5.2374,5.2505,5.2637,5.3031,5.2829,5.2097,5.0737,4.9716,4.9193,4.9193,4.9193,4.9193,4.9317,4.9193,4.9193,4.9044,4.8895,4.8746,4.8771,4.8396,4.8295,4.832,4.832,4.8145,4.799,4.8402,4.849,4.8034,4.8342,4.8627,4.8489,4.8029,4.7473,4.6841,4.6134,4.573,4.5718,4.5718,4.5739,4.5453,4.5287,4.5143,4.4999,4.4421,4.3839,4.3401,4.2833,4.2074,4.1628,4.0731,3.9846,3.8916,3.8763,3.8629,3.8458,3.8458,3.8458,3.8305,3.7845,3.7537,3.7863,3.7863,3.8016,3.8323,3.8476,3.8305,3.817,3.8016,3.8016,3.7827,3.7655,3.7655,3.7655,3.7501,3.7519,3.7655,3.7655,3.7519,3.7501,3.7519,3.7673,5.3123,5.3751,5.4891,5.5393,5.5531,5.5751,5.5723,5.586,5.5832,5.5493,5.4871,5.4453,5.4881,5.5868,5.5925,5.6374,5.712,5.6765,5.6879,5.7461,5.6756,5.6139,5.5819,5.5038,5.4402,5.3759,5.3396,5.2875,5.2349,5.206,5.1952,5.1843,5.1976,5.2084,5.2084,5.2374,5.253,5.2537,5.0684,4.9715,4.9566,4.9292,4.9193,4.9193,4.9168,4.9193,4.9193,4.8945,4.8821,4.8821,4.8472,4.8347,4.8372,4.8246,4.8271,4.8271,4.8271,4.8121,4.8145,4.7857,4.7185,4.6408,4.7074,4.7495,4.702,4.5595,4.4762,4.5036,4.4911,4.4774,4.4908,4.4957,4.4711,4.413,4.4006,4.3839,4.3547,4.3401,4.296,4.2242,4.2094,4.1499,4.0731,4.028,3.9675,3.8782,3.8458,3.8152,3.7845,3.7845,3.7537,3.7092,3.6799,3.6644,3.6644,3.6954,3.7246,3.7246,3.7537,3.7673,3.7673,3.7673,3.7519,3.7519,3.7501,3.7501,3.7501,3.7501,3.7501,3.7501,3.7501,3.7501,3.7501,3.7501,3.7519,5.1451,5.1936,5.2895,5.336,5.3654,5.3789,5.3923,5.4086,5.4058,5.3663,5.307,5.2833,5.3374,5.4415,5.4443,5.4811,5.5551,5.5207,5.5042,5.5046,5.5004,5.4627,5.393,5.3914,5.3605,5.3031,5.2743,5.2349,5.1952,5.1794,5.1416,5.0711,5.0794,5.068,5.0263,5.0368,5.0626,5.0705,4.882,4.7859,4.7982,4.7464,4.7193,4.7193,4.7193,4.7193,4.7193,4.7072,4.6976,4.6951,4.6733,4.6636,4.6758,4.6758,4.6636,4.6733,4.6758,4.6733,4.6758,4.6147,4.562,4.5081,4.577,4.5765,4.4782,4.383,4.336,4.3317,4.3244,4.3045,4.293,4.3229,4.3337,4.2762,4.2882,4.2813,4.2518,4.2242,4.1777,4.12,4.105,4.0581,3.9524,3.922,3.8934,3.8476,3.7998,3.7709,3.7383,3.7074,3.6782,3.6506,3.6368,3.6368,3.6351,3.6489,3.6644,3.6644,3.6937,3.7228,3.7211,3.7383,3.7519,3.7501,3.7501,3.7501,3.7501,3.7501,3.7501,3.7501,3.7501,3.7501,3.7501,3.7501,3.7365,5.0013,5.0305,5.065,5.1041,5.1429,5.1532,5.1691,5.2083,5.2083,5.2083,5.2055,5.1691,5.2148,5.3077,5.2863,5.3095,5.3692,5.3606,5.3116,5.2113,5.2969,5.2737,5.1672,5.2459,5.2553,5.1926,5.1483,5.1244,5.122,5.0955,5.036,4.9508,4.9411,4.9125,4.8194,4.8246,4.82,4.8105,4.6977,4.6416,4.6416,4.5464,4.4952,4.4952,4.5001,4.4952,4.4952,4.5001,4.4952,4.4835,4.483,4.4616,4.464,4.461,4.4397,4.4397,4.4537,4.4513,4.4397,4.3979,4.3677,4.3697,4.4306,4.3766,4.1995,4.2072,4.213,4.176,4.1489,4.1103,4.0838,4.1402,4.1714,4.1329,4.167,4.1694,4.1193,4.0898,4.0325,3.9862,3.9656,3.9355,3.8726,3.8323,3.817,3.8016,3.7691,3.7383,3.6937,3.6489,3.6351,3.6195,3.6195,3.6195,3.6022,3.6178,3.6351,3.6351,3.6627,3.6937,3.6919,3.7228,3.7365,3.7501,3.7501,3.7501,3.7501,3.7501,3.7501,3.7501,3.7501,3.7501,3.7365,3.7365,3.7092,4.9719,5.0013,5.0544,5.086,5.1173,5.1457,5.1691,5.2083,5.2083,0.0,0.0,5.1663,5.1465,5.1534,5.1296,5.1532,5.2076,5.1934,5.188,5.2061,5.1585,5.0939,5.0427,4.9915,4.939,4.8987,4.8656,4.8426,4.8018,4.8042,4.7794,4.7778,4.8008,4.8063,4.7917,4.8121,4.7245,4.5422,4.5273,4.5294,4.5269,4.4957,4.4952,4.4952,4.4952,4.4952,4.4952,4.4952,4.4952,4.4835,4.4147,4.3658,4.361,4.2804,4.2316,4.2341,4.2341,4.2341,4.2341,4.1788,4.1413,4.1378,4.2087,4.171,3.9794,3.9516,3.9653,4.0413,4.0275,4.03,4.0323,4.0292,4.0115,3.9716,3.9394,3.921,3.8784,3.8357,3.8269,3.8379,3.8214,3.8009,3.8177,3.8115,3.8034,3.7673,3.714,3.6919,3.6937,3.623,3.5557,3.5246,3.5179,3.5157,3.5363,3.5486,3.5849,3.5832,3.6178,3.6489,3.6799,3.6937,3.7228,3.7365,3.7501,3.7501,3.7501,3.7501,3.7501,3.7501,3.7501,3.7365,3.7092,3.6782,3.6402,4.9665,4.9827,5.036,5.0755,0.0,5.1249,5.0888,5.0193,5.0221,5.0193,5.0221,5.0485,5.0461,5.0238,5.0584,5.0688,5.0609,5.0526,5.0267,4.9889,4.9881,4.9428,4.8829,4.8821,4.8597,4.7971,4.7893,4.764,4.7236,4.7212,4.6949,4.6423,4.6697,4.6433,4.5928,4.6027,4.5497,4.4319,4.4531,4.4766,4.4742,4.4859,4.4952,4.4952,4.4952,0.0,0.0,0.0,0.0,0.0,0.0,0.0,0.0,4.2048,0.0,4.1755,4.1755,4.1755,4.1755,4.1234,4.077,4.0794,4.079,4.0122,3.857,3.828,3.8347,3.8873,3.8598,3.846,3.8819,3.908,3.8954,3.8426,3.8523,3.8478,3.7896,3.751,3.7234,3.7176,3.6959,3.6668,3.6641,3.6677,3.651,3.6361,3.6398,3.6358,3.6188,3.5116,3.4272,3.3952,3.3952,3.4085,3.4418,3.4809,3.4893,3.5435,3.5693,3.6005,3.6316,3.6627,3.6919,3.7228,3.7365,3.7501,3.7501,3.7501,3.7519,3.7228,3.7228,3.688,3.5433,3.5011,3.4709,4.8993,4.9099,4.9467,4.9963,5.0507,5.0582,4.9796,4.8454,4.8482,4.8454,4.8443,4.911,4.9206,4.9119,4.9756,4.9786,4.9316,4.9181,4.8775,4.7995,4.8475,4.8191,4.7443,4.7929,4.7859,4.7264,4.7187,4.6913,4.6489,4.6512,4.606,4.525,4.525,4.4821,4.4011,0.0,0.0,0.0,4.4199,4.4413,4.4413,4.4742,4.4859,4.4859,4.4664,0.0,4.4518,4.3634,4.3048,4.3048,4.2048,0.0,0.0,0.0,0.0,0.0,0.0,0.0,0.0,0.0,0.0,0.0,3.9026,3.822,3.7511,3.7487,3.7425,3.7486,3.6985,3.6785,3.7044,3.752,3.7399,3.6929,3.7406,3.7639,3.6928,3.6642,3.6408,3.6218,3.5846,3.5472,3.5255,3.522,3.5255,3.5345,3.5349,3.5351,3.5211,3.3943,3.292,3.2903,3.3003,3.3136,3.3669,3.3752,3.3968,3.4451,3.4944,3.5219,3.5339,3.5816,3.6311,3.6429,3.6787,3.7038,3.7056,3.7073,3.668,3.6634,3.6464,3.5827,3.3711,3.3164,3.3,4.6847,4.7047,4.7363,4.7757,4.8244,4.8754,4.8803,4.8586,4.8586,4.8397,4.8207,4.8157,4.8021,4.8021,4.7674,4.7911,4.8488,4.8024,4.8085,4.8496,4.7711,4.725,4.687,4.6187,4.5651,4.5297,4.4847,4.4344,4.3983,4.3765,4.3597,4.3456,4.3674,4.3723,4.3558,4.2472,4.2026,4.2234,4.351,4.42,4.42,4.4437,4.4531,4.4507,4.3959,4.3585,4.3561,4.2536,4.1975,4.1926,4.095,4.0469,4.0444,3.8607,3.7508,0.0,3.6728,0.0,0.0,0.0,0.0,0.0,0.0,0.0,0.0,3.6229,3.6637,3.6858,3.6516,3.6203,3.5652,3.5149,3.4844,3.4762,3.5019,3.5147,3.4761,3.5003,3.5323,3.5349,3.5043,3.4913,3.5042,3.522,3.522,3.4986,3.4623,3.4014,3.3386,3.3067,3.277,3.2887,3.2887,3.2753,3.292,3.3003,3.307,3.3136,3.3269,3.3301,3.3813,3.4256,3.4516,3.4956,3.5319,3.5594,3.5523,3.5249,3.5085,3.5009,3.4697,3.4118,3.282,3.2427,3.2248,4.6881,4.7077,4.7411,4.7147,4.6816,4.6994,4.7023,4.6934,4.6962,4.6845,4.6576,4.6486,4.6644,4.723,4.7557,4.7786,4.7819,4.7373,4.7034,4.7022,4.6858,4.6517,4.6153,4.5999,4.5583,4.4859,4.4624,4.3983,4.2941,4.2707,4.2307,4.165,4.1741,4.1856,4.1832,4.1203,4.125,4.1698,4.2401,4.3156,4.382,4.42,4.4148,4.3686,4.3293,4.2897,4.2511,4.1438,4.0876,4.0852,3.929,3.8412,3.8387,3.7019,3.6256,0.0,0.0,0.0,0.0,0.0,0.0,0.0,0.0,0.0,0.0,0.0,3.5151,3.5767,3.5977,3.6025,3.6089,3.554,3.5042,3.4923,3.4785,3.4516,3.4004,3.3981,3.3879,3.3762,3.3649,3.3655,3.3478,3.3891,3.4179,3.3901,3.2975,3.2317,3.2128,3.2123,3.1955,3.1672,3.1688,3.1672,3.1672,3.2005,3.2387,3.2787,3.2887,3.3034,3.3294,3.3749,3.4204,3.4605,3.4913,3.5075,3.493,3.4605,3.446,3.3921,3.3117,3.218,3.153,3.123,3.0929,4.677,4.7025,4.7529,4.72,4.6311,4.6311,4.6257,4.6036,4.6007,4.5838,4.5585,4.5585,4.5932,4.6616,4.7224,4.7475,4.7283,4.6762,4.6286,4.6214,4.6229,4.5996,4.5623,4.5872,4.5472,4.4678,4.4449,4.3577,4.2212,4.2188,4.158,4.0596,4.0184,3.9947,3.9838,3.9989,4.0398,4.0972,4.1115,4.1839,4.3061,4.3464,4.3341,4.2847,4.2454,4.1913,4.1438,4.0364,3.9784,3.9388,3.7949,3.6874,3.6701,3.5949,0.0,0.0,0.0,0.0,0.0,0.0,0.0,0.0,0.0,3.3799,3.4509,0.0,3.4105,0.0,3.5223,3.5562,3.6079,3.5747,0.0,0.0,3.4924,3.4556,3.3843,3.3802,3.3456,3.2744,3.2905,3.2758,3.2139,3.2557,3.2676,3.2429,3.1519,3.1099,3.1128,3.1098,3.0763,3.0679,3.0729,3.0763,3.1031,3.1295,3.1955,3.2398,3.2482,3.2643,3.2915,3.3363,3.365,3.4044,3.4365,3.4507,3.4169,3.4062,3.3616,3.3117,3.1894,3.0844,3.0723,3.0448,3.0002,4.553,4.573,4.6989,4.755,4.7639,4.751,4.738,4.7078,4.6886,4.667,4.6535,4.634,4.6203,4.632,4.573,0.0,4.6979,4.6149,4.6291,4.7272,4.6368,4.5919,4.5818,4.4847,4.4142,4.3852,4.3131,4.2434,4.1792,4.1549,4.1148,4.0722,3.9339,3.8551,3.8344,3.8758,3.8984,3.9078,3.9823,4.0694,4.1699,4.2048,4.2208,4.2409,4.0945,4.0202,4.0291,3.9241,3.8192,3.7313,3.7262,3.6886,3.59,0.0,0.0,0.0,0.0,0.0,0.0,0.0,0.0,0.0,0.0,0.0,0.0,0.0,0.0,3.4386,3.4506,0.0,3.428,3.4609,0.0,0.0,0.0,3.4761,3.3888,3.451,3.4543,3.3335,0.0,0.0,3.1939,3.1409,3.107,3.107,3.0765,3.0496,3.0079,2.9859,2.9794,3.0332,3.0566,3.0823,3.1237,3.146,3.1545,3.1665,3.1802,3.1819,3.1853,3.211,3.2348,3.2554,3.2756,3.3099,3.3063,3.2537,3.1956,3.1938,3.1545,3.1067,3.0743,3.0283,2.9871,4.6064,4.5404,4.5949,4.6167,4.6301,4.6187,4.5938,4.5687,4.5539,4.5271,4.4969,4.4892,4.4816,4.4693,4.4384,0.0,0.0,0.0,4.4726,4.5001,4.561,4.5759,4.5427,4.5285,4.4818,4.4172,4.3781,4.2796,4.1541,4.1436,4.042,3.856,0.0,3.7281,3.7533,3.7624,3.8085,3.8878,3.9135,3.984,4.0601,4.0761,4.0681,4.046,3.9971,3.954,3.9168,3.8317,3.7581,3.7164,3.6097,3.5365,0.0,0.0,0.0,0.0,0.0,0.0,0.0,0.0,0.0,0.0,0.0,3.2565,3.2835,0.0,0.0,0.0,3.3999,3.3729,3.3998,3.4097,0.0,0.0,0.0,0.0,0.0,0.0,0.0,3.2343,3.2819,3.2892,3.1941,3.1265,3.0915,3.1082,3.0775,3.0593,3.0318,0.0,2.9974,2.987,2.9794,2.9914,3.0205,3.0257,3.0257,3.0257,3.0257,3.0525,3.1088,3.1458,3.1765,3.2438,3.2714,3.2714,3.2562,3.1784,3.1183,3.1165,3.0794,3.0422,3.0308,2.9752,2.9227,4.676,0.0,0.0,0.0,0.0,4.5716,4.5517,4.5284,4.5181,4.4877,4.4601,4.4492,0.0,0.0,0.0,0.0,0.0,0.0,4.3559,4.3217,4.4244,4.4539,4.4031,4.4176,4.392,4.3094,4.2703,4.1822,4.049,4.0659,3.9594,3.7291,0.0,0.0,0.0,0.0,3.7409,3.8268,3.8416,3.8949,3.9722,3.9816,3.9682,3.9327,3.9226,3.8838,3.8193,3.7628,3.7059,3.6511,3.5181,0.0,0.0,0.0,0.0,0.0,0.0,0.0,0.0,0.0,0.0,0.0,0.0,0.0,0.0,0.0,0.0,0.0,0.0,0.0,3.4115,3.4172,3.4175,0.0,0.0,0.0,0.0,0.0,0.0,0.0,0.0,0.0,3.2065,3.1414,3.1152,0.0,0.0,3.0623,3.0253,3.0186,3.0153,2.9751,2.9662,0.0,2.9977,2.9995,3.0012,2.9995,2.9995,3.0296,3.1117,3.1223,3.153,3.2346,3.2472,3.2454,3.2346,3.1848,3.1318,3.1245,3.0889,3.0496,3.0389,2.9869,2.9365,0.0,0.0,0.0,0.0,4.7259,0.0,0.0,0.0,4.6459,4.6204,0.0,4.5817,0.0,0.0,0.0,0.0,4.4202,4.3541,0.0,0.0,4.2394,4.1926,4.156,4.0977,4.0373,3.9765,3.9253,3.8599,3.8068,3.8751,3.8868,0.0,0.0,0.0,0.0,0.0,3.7043,3.707,3.7545,3.8324,3.9221,3.9245,3.9245,3.9255,3.8506,3.7896,3.7358,3.733,3.6437,3.4584,3.4731,0.0,0.0,0.0,0.0,0.0,0.0,0.0,0.0,0.0,0.0,0.0,0.0,0.0,0.0,0.0,0.0,0.0,0.0,0.0,0.0,3.5216,0.0,0.0,0.0,0.0,0.0,0.0,0.0,0.0,0.0,3.2142,3.2514,3.1913,3.1424,3.1243,0.0,0.0,0.0,0.0,2.97,3.0223,3.0315,3.0489,3.1277,3.1405,3.1387,3.1387,0.0,0.0,3.1442,3.146,3.1479,3.1515,3.1589,3.1852,3.2678,3.2442,3.214,3.2158,3.1875,3.1703,3.135,3.0815,3.0336,0.0,0.0,0.0,0.0,0.0,0.0,0.0,0.0,0.0,4.4807,4.4471,4.4391,0.0,0.0,0.0,0.0,0.0,0.0,0.0,0.0,4.2725,4.2693,4.2314,4.1725,4.1094,4.0556,4.015,3.8327,0.0,0.0,0.0,0.0,0.0,0.0,0.0,0.0,3.7173,3.7355,3.7898,3.8276,3.8458,3.83,3.8276,3.8482,3.8402,3.8095,3.764,3.6406,3.5484,0.0,0.0,0.0,0.0,0.0,0.0,0.0,0.0,0.0,0.0,0.0,0.0,0.0,0.0,0.0,0.0,0.0,0.0,0.0,0.0,0.0,0.0,0.0,3.4716,0.0,0.0,0.0,0.0,0.0,0.0,0.0,0.0,0.0,3.1844,3.1696,3.1548,3.1424,3.1205,3.0975,3.0685,0.0,0.0,0.0,0.0,0.0,0.0,0.0,3.0749,3.0749,3.0983,3.108,3.108,3.1539,3.1992,3.2526,0.0,0.0,3.2664,3.2579,3.2484,3.2464,3.21,3.1716,3.1601,3.0906,3.0244,0.0,0.0,0.0,0.0,0.0,0.0,0.0,0.0,0.0,4.2907,4.2652,0.0,0.0,0.0,0.0,0.0,0.0,0.0,0.0,0.0,0.0,0.0,4.0529,4.0056,0.0,0.0,0.0,0.0,0.0,0.0,0.0,0.0,0.0,0.0,0.0,0.0,3.7077,3.7416,3.8041,3.8366,3.8509,3.8333,3.8357,3.8509,3.8366,3.8142,3.7805,0.0,0.0,0.0,0.0,0.0,0.0,0.0,0.0,0.0,0.0,0.0,0.0,0.0,0.0,0.0,0.0,0.0,0.0,0.0,0.0,0.0,0.0,0.0,0.0,0.0,3.4567,0.0,0.0,0.0,0.0,0.0,0.0,0.0,0.0,0.0,0.0,3.2195,3.2038,3.1992,3.1888,3.1662,3.153,3.1546,3.1525,0.0,0.0,0.0,0.0,0.0,0.0,0.0,0.0,0.0,0.0,0.0,0.0,0.0,3.3024,3.3014,3.2836,3.3094,3.3305,3.3196,0.0,0.0,0.0,0.0,0.0,0.0,0.0,0.0,0.0,0.0,0.0,0.0,0.0,0.0,0.0,4.0822,0.0,0.0,4.033,0.0,0.0,0.0,0.0,0.0,0.0,0.0,0.0,0.0,0.0,0.0,0.0,0.0,0.0,0.0,0.0,0.0,0.0,0.0,0.0,0.0,0.0,3.666,3.7191,3.7795,3.85,3.9279,3.9304,3.923,3.9206,3.85,3.8138,3.8087,0.0,0.0,0.0,0.0,0.0,0.0,0.0,0.0,0.0,0.0,0.0,0.0,0.0,0.0,0.0,0.0,0.0,0.0,0.0,0.0,0.0,0.0,0.0,0.0,0.0,0.0,3.5919,3.5783,3.5298,0.0,0.0,0.0,0.0,0.0,0.0,0.0,0.0,0.0,3.2856,3.3049,3.286,3.2036,3.2524,3.2895,3.2739,3.265,3.2671,3.2671,3.2671,3.2691,0.0,0.0,0.0,0.0,0.0,0.0,0.0,0.0,0.0,0.0,0.0,0.0,0.0,0.0,0.0,0.0,0.0,0.0,0.0,0.0,0.0,0.0,0.0,0.0,0.0,0.0,0.0,0.0,0.0,4.1184,0.0,0.0,0.0,0.0,0.0,0.0,0.0,0.0,0.0,0.0,0.0,0.0,0.0,0.0,0.0,0.0,0.0,0.0,0.0,0.0,0.0,0.0,0.0,0.0,3.772,3.836,3.8657,3.9303,4.0378,3.999,3.9795,3.9745,3.914,3.8382,0.0,0.0,0.0,0.0,0.0,0.0,0.0,0.0,0.0,0.0,0.0,0.0,0.0,0.0,0.0,0.0,0.0,0.0,0.0,0.0,0.0,0.0,0.0,0.0,0.0,0.0,0.0,0.0,3.5564,3.5613,3.5954,0.0,0.0,0.0,0.0,0.0,0.0,0.0,0.0,0.0,0.0,3.2389,3.2309,3.2933,3.3318,3.3049,3.3525,3.3804,3.3912,3.4041,3.417,3.417,0.0,0.0,0.0,0.0,0.0,0.0,0.0,0.0,0.0,0.0,0.0,0.0,0.0,0.0,0.0,0.0,0.0,0.0,0.0,0.0,0.0,0.0,0.0,0.0,0.0,0.0,0.0,0.0,0.0,0.0,0.0,0.0,0.0,0.0,0.0,0.0,0.0,0.0,0.0,0.0,0.0,0.0,0.0,0.0,0.0,0.0,0.0,0.0,0.0,0.0,0.0,0.0,0.0,3.8221,3.9324,3.9076,3.9762,4.1187,4.0858,4.0461,4.0023,3.9306,3.8426,0.0,0.0,0.0,0.0,0.0,0.0,0.0,0.0,0.0,0.0,0.0,0.0,0.0,0.0,0.0,0.0,0.0,0.0,0.0,0.0,0.0,0.0,0.0,0.0,0.0,0.0,0.0,0.0,3.5902,3.6211,3.6525,0.0,0.0,0.0,0.0,0.0,0.0,0.0,0.0,0.0,0.0,3.2918,3.2936,3.3409,0.0,0.0,3.3876,3.4156,3.4156,3.4258,3.4382,3.4382,3.3965,0.0,0.0,0.0,0.0,0.0,0.0,0.0,0.0,0.0,0.0,0.0,0.0,0.0,0.0,0.0,0.0,0.0,0.0,0.0,0.0,0.0,0.0,0.0,0.0,0.0,0.0,0.0,0.0,0.0,0.0,0.0,0.0,0.0,0.0,0.0,0.0,0.0,0.0,0.0,0.0,0.0,0.0,0.0,0.0,0.0,0.0,0.0,0.0,0.0,0.0,0.0,0.0,3.8305,3.9928,3.9324,3.9973,4.1871,4.1778,4.1182,3.9929,3.9317,3.8309,0.0,0.0,0.0,0.0,0.0,0.0,0.0,0.0,0.0,0.0,0.0,0.0,0.0,0.0,0.0,0.0,0.0,0.0,0.0,0.0,0.0,0.0,0.0,0.0,0.0,0.0,0.0,0.0,0.0,0.0,0.0,0.0,0.0,0.0,0.0,0.0,0.0,0.0,0.0,0.0,0.0,3.4101,3.3667,3.3875,3.408,0.0,3.3846,3.3752,3.3775,3.3728,3.3658,3.3704,0.0,0.0,0.0,0.0,0.0,0.0,0.0,0.0,0.0,0.0,0.0,0.0,0.0,0.0,0.0,0.0,0.0,0.0,0.0,0.0,0.0,0.0,0.0,0.0,0.0,0.0,0.0,0.0,0.0,0.0,0.0,0.0,0.0,0.0,0.0,0.0,0.0,0.0,0.0,0.0,0.0,0.0,0.0,0.0,0.0,0.0,0.0,0.0,0.0,0.0,0.0,0.0,0.0,0.0,3.9876,4.0027,4.0677,4.1905,4.2478,4.2189,4.091,4.0119,0.0,0.0,0.0,0.0,0.0,0.0,0.0,0.0,0.0,0.0,0.0,0.0,0.0,0.0,0.0,0.0,0.0,0.0,0.0,0.0,0.0,0.0,0.0,0.0,0.0,0.0,0.0,3.3462,0.0,0.0,0.0,0.0,0.0,0.0,0.0,0.0,0.0,0.0,0.0,0.0,0.0,0.0,3.4301,3.3591,3.4184,3.4558,0.0,0.0,3.5036,3.4827,3.4734,3.4827,0.0,0.0,0.0,0.0,0.0,0.0,0.0,0.0,0.0,0.0,0.0,0.0,0.0,0.0,0.0,0.0,0.0,0.0,0.0,0.0,0.0,0.0,0.0,0.0,0.0,0.0,0.0,0.0,0.0,0.0,0.0,0.0,0.0,0.0,0.0,0.0,0.0,0.0,0.0,0.0,0.0,0.0,0.0,0.0,0.0,0.0,0.0,0.0,0.0,0.0,0.0,0.0,0.0,0.0,3.9199,4.0384,4.0802,4.1499,4.252,4.3352,4.2867,4.1092,4.0785,3.9822,0.0,0.0,0.0,0.0,0.0,0.0,0.0,0.0,0.0,0.0,0.0,0.0,0.0,0.0,0.0,0.0,0.0,0.0,0.0,0.0,0.0,0.0,0.0,0.0,0.0,0.0,0.0,0.0,0.0,0.0,0.0,0.0,0.0,0.0,0.0,0.0,0.0,0.0,0.0,0.0,0.0,0.0,3.4392,3.4537,0.0,0.0,0.0,3.4733,3.4597,0.0,0.0,0.0,0.0,0.0,0.0,0.0,0.0,0.0,0.0,0.0,0.0,0.0,0.0,0.0,0.0,0.0,0.0,0.0,0.0,0.0,0.0,0.0,0.0,0.0,0.0,0.0,0.0,0.0,0.0,0.0,0.0,0.0,0.0,0.0,0.0,0.0,0.0,0.0,0.0,0.0,0.0,0.0,0.0,0.0,0.0,0.0,0.0,0.0,0.0,0.0,0.0,0.0,0.0,0.0,0.0,0.0,4.1047,4.1407,4.212,4.3204,4.3931,4.3195,4.1071,4.1161,4.0219,0.0,0.0,0.0,0.0,0.0,0.0,0.0,0.0,0.0,0.0,0.0,0.0,0.0,0.0,0.0,0.0,0.0,0.0,0.0,0.0,0.0,0.0,0.0,0.0,0.0,0.0,0.0,0.0,0.0,0.0,0.0,0.0,0.0,0.0,0.0,0.0,0.0,0.0,0.0,0.0,0.0,3.6167,3.5587,3.5097,3.4733,0.0,0.0,3.3969,3.3969,3.3729,0.0,0.0,0.0,0.0,0.0,0.0,0.0,0.0,0.0,0.0,0.0,0.0,0.0,0.0,0.0,0.0,0.0,0.0,0.0,0.0,0.0,0.0,0.0,0.0,0.0,0.0,0.0,0.0,0.0,0.0,0.0,0.0,0.0,0.0,0.0,0.0,0.0,0.0,0.0,0.0,0.0,0.0,0.0,0.0,0.0,0.0,0.0,0.0,0.0,0.0,0.0,0.0,0.0,0.0,0.0,0.0,4.0529,4.1156,4.1837,4.2654,4.2694,4.2372,4.1938,4.1048,3.999,0.0,0.0,0.0,0.0,0.0,0.0,0.0,0.0,0.0,0.0,0.0,0.0,0.0,0.0,0.0,0.0,0.0,0.0,0.0,0.0,0.0,0.0,0.0,0.0,0.0,0.0,0.0,0.0,0.0,0.0,0.0,0.0,0.0,0.0,0.0,0.0,0.0,0.0,0.0,0.0,0.0,3.713,3.6466,3.6214,0.0,0.0,0.0,0.0,3.4811,3.4629,0.0,0.0,0.0,0.0,0.0,0.0,0.0,0.0,0.0,0.0,0.0,0.0,0.0,0.0,0.0,0.0,0.0,0.0,0.0,0.0,0.0,0.0,0.0,0.0,0.0,0.0,0.0,0.0,0.0,0.0,0.0,0.0,0.0,0.0,0.0,0.0,0.0,0.0,0.0,0.0,0.0,0.0,0.0,0.0,0.0,0.0,0.0,0.0,0.0,0.0,0.0,0.0,0.0,0.0,0.0,0.0,4.0958,4.1614,4.2176,4.2488,4.2741,4.2503,4.1912,4.1304,4.0438,0.0,0.0,0.0,0.0,0.0,0.0,0.0,0.0,0.0,0.0,0.0,0.0,0.0,0.0,0.0,0.0,0.0,0.0,0.0,0.0,0.0,0.0,0.0,0.0,0.0,0.0,0.0,0.0,0.0,0.0,0.0,0.0,0.0,0.0,0.0,0.0,0.0,0.0,0.0,0.0,3.8133,3.7779,3.7202,0.0,0.0,0.0,0.0,0.0,0.0,3.551,3.5383,0.0,0.0,0.0,0.0,0.0,0.0,0.0,0.0,0.0,0.0,0.0,0.0,0.0,0.0,0.0,0.0,0.0,0.0,0.0,0.0,0.0,0.0,0.0,0.0,0.0,0.0,0.0,0.0,0.0,0.0,0.0,0.0,0.0,0.0,0.0,0.0,0.0,0.0,0.0,0.0,0.0,0.0,0.0,0.0,0.0,0.0,0.0,0.0,0.0,0.0,0.0,0.0,0.0,0.0,0.0,4.172,4.2303,4.2569,4.2551,4.3023,4.2773,4.1825,4.1584,4.0963,3.9827,0.0,0.0,0.0,0.0,0.0,0.0,0.0,0.0,0.0,0.0,0.0,0.0,0.0,0.0,0.0,0.0,0.0,0.0,0.0,0.0,0.0,0.0,0.0,0.0,0.0,0.0,0.0,0.0,0.0,0.0,0.0,0.0,0.0,0.0,0.0,0.0,0.0,0.0,0.0,3.8789,3.8274,0.0,0.0,0.0,0.0,0.0,0.0,0.0,0.0,3.6146,0.0,0.0,0.0,0.0,0.0,0.0,0.0,0.0,0.0,0.0,0.0,0.0,0.0,0.0,0.0,0.0,0.0,0.0,0.0,0.0,0.0,0.0,0.0,0.0,0.0,0.0,0.0,0.0,0.0,0.0,0.0,0.0,0.0,0.0,0.0,0.0,0.0,0.0,0.0,0.0,0.0,0.0,0.0,0.0,0.0,0.0,0.0,0.0,0.0,0.0,0.0,0.0,0.0,0.0,0.0,0.0,4.2415,4.264,4.3116,4.2238,4.208,4.2654,4.1605,4.0585,3.9838,0.0,0.0,0.0,0.0,0.0,0.0,0.0,0.0,0.0,0.0,0.0,0.0,0.0,0.0,0.0,0.0,0.0,0.0,0.0,0.0,0.0,0.0,0.0,0.0,0.0,0.0,0.0,0.0,0.0,0.0,0.0,0.0,0.0,0.0,0.0,0.0,0.0,0.0,4.0228,3.9638,0.0,0.0,0.0,0.0,0.0,0.0,0.0,0.0,3.704,0.0,0.0,0.0,0.0,0.0,0.0,0.0,0.0,0.0,0.0,0.0,0.0,0.0,0.0,0.0,0.0,0.0,0.0,0.0,0.0,0.0,0.0,0.0,0.0,0.0,0.0,0.0,0.0,0.0,0.0,0.0,0.0,0.0,0.0,0.0,0.0,0.0,0.0,0.0,0.0,0.0,0.0,0.0,0.0,0.0,0.0,0.0,0.0,0.0,0.0,0.0,0.0,0.0,0.0,0.0,0.0,0.0,0.0,4.2941,4.3208,4.2399,4.2161,4.2611,4.228,4.1491,0.0,0.0,0.0,0.0,0.0,0.0,0.0,0.0,0.0,0.0,0.0,0.0,0.0,0.0,0.0,0.0,0.0,0.0,0.0,0.0,0.0,0.0,0.0,0.0,0.0,0.0,0.0,0.0,0.0,0.0,0.0,0.0,0.0,0.0,0.0,0.0,0.0,0.0,0.0,0.0,0.0,0.0,0.0,0.0,0.0,0.0,0.0,0.0,0.0,0.0,0.0,0.0,0.0,0.0,0.0,0.0,0.0,0.0,0.0,0.0,0.0,0.0,0.0,0.0,0.0,0.0,0.0,0.0,0.0,0.0,0.0,0.0,0.0,0.0,0.0,0.0,0.0,0.0,0.0,0.0,0.0,0.0,0.0,0.0,0.0,0.0,0.0,0.0,0.0,0.0,0.0,0.0,0.0,0.0,0.0,0.0,0.0,0.0,0.0,0.0,0.0,0.0,0.0,0.0,0.0,0.0,0.0,0.0,4.3407,4.3333,4.2906,4.2657,4.2657,4.3082,4.2373,0.0,0.0,0.0,0.0,0.0,0.0,0.0,0.0,0.0,0.0,0.0,0.0,0.0,0.0,0.0,0.0,0.0,0.0,0.0,0.0,0.0,0.0,0.0,0.0,0.0,0.0,0.0,0.0,0.0,0.0,0.0,0.0,0.0,0.0,0.0,0.0,0.0,0.0,0.0,0.0,0.0,0.0,0.0,0.0,0.0,0.0,0.0,0.0,3.8262,0.0,0.0,0.0,0.0,0.0,0.0,0.0,0.0,0.0,0.0,0.0,0.0,0.0,0.0,0.0,0.0,0.0,0.0,0.0,0.0,0.0,0.0,0.0,0.0,0.0,0.0,0.0,0.0,0.0,0.0,0.0,0.0,0.0,0.0,0.0,0.0,0.0,0.0,0.0,0.0,0.0,0.0,0.0,0.0,0.0,0.0,0.0,0.0,0.0,0.0,0.0,0.0,0.0,0.0,0.0,0.0,0.0,0.0,0.0,4.4301,4.4045,4.3732,4.3551,4.3411,4.3605,4.2418,0.0,0.0,0.0,0.0,0.0,0.0,0.0,0.0,0.0,0.0,0.0,0.0,0.0,0.0,0.0,0.0,0.0,0.0,0.0,0.0,0.0,0.0,0.0,0.0,0.0,0.0,0.0,0.0,0.0,0.0,0.0,0.0,0.0,0.0,0.0,0.0,0.0,0.0,0.0,0.0,0.0,0.0,0.0,0.0,0.0,0.0,0.0,0.0,0.0,0.0,0.0,0.0,0.0,0.0,0.0,0.0,0.0,0.0,0.0,0.0,0.0,0.0,0.0,0.0,0.0,0.0,0.0,0.0,0.0,0.0,0.0,0.0,0.0,0.0,0.0,0.0,0.0,0.0,0.0,0.0,0.0,0.0,0.0,0.0,0.0,0.0,0.0,0.0,0.0,0.0,0.0,0.0,0.0,0.0,0.0,0.0,0.0,0.0,0.0,0.0,0.0,0.0,0.0,0.0,0.0,0.0,0.0,0.0,4.4906,4.4762,4.4401,4.4301,4.4551,4.346,4.1883,0.0,0.0,0.0,0.0,0.0,0.0,0.0,0.0,0.0,0.0,0.0,0.0,0.0,0.0,0.0,0.0,0.0,0.0,0.0,0.0,0.0,0.0,0.0,0.0,0.0,0.0,0.0,0.0,0.0,0.0,0.0,0.0,0.0,0.0,0.0,0.0,0.0,0.0,0.0,0.0,0.0,0.0,0.0,0.0,0.0,0.0,0.0,0.0,0.0,0.0,0.0,0.0,0.0,0.0,0.0,0.0,0.0,0.0,0.0,0.0,0.0,0.0,0.0,0.0,0.0,0.0,0.0,0.0,0.0,0.0,0.0,0.0,0.0,0.0,0.0,0.0,0.0,0.0,0.0,0.0,0.0,0.0,0.0,0.0,0.0,0.0,0.0,0.0,0.0,0.0,0.0,0.0,0.0,0.0,0.0,0.0,0.0,0.0,0.0,0.0,0.0,0.0,0.0,0.0,0.0,0.0,0.0,0.0,0.0,4.5499,4.5096,4.5096,4.5419,4.3451,4.1723,0.0,0.0,0.0,0.0,0.0,0.0,0.0,0.0,0.0,0.0,0.0,0.0,0.0,0.0,0.0,0.0,0.0,0.0,0.0,0.0,0.0,0.0,0.0,0.0,0.0,0.0,0.0,0.0,0.0,0.0,0.0,0.0,0.0,0.0,0.0,0.0,0.0,0.0,0.0,0.0,0.0,0.0,0.0,0.0,0.0,0.0,0.0,0.0,0.0,0.0,0.0,0.0,0.0,0.0,0.0,0.0,0.0,0.0,0.0,0.0,0.0,0.0,0.0,0.0,0.0,0.0,0.0,0.0,0.0,0.0,0.0,0.0,0.0,0.0,0.0,0.0,0.0,0.0,0.0,0.0,0.0,0.0,0.0,0.0,0.0,0.0,0.0,0.0,0.0,0.0,0.0,0.0,0.0,0.0,0.0,0.0,0.0,0.0,0.0,0.0,0.0,0.0,0.0,0.0,0.0,0.0,0.0,0.0,0.0,4.5991,4.5983,4.5983,4.5991,4.3988,4.2254,0.0,0.0,0.0,0.0,0.0,0.0,0.0,0.0,0.0,0.0,0.0,0.0,0.0,0.0,0.0,0.0,0.0,0.0,0.0,0.0,0.0,0.0,0.0,0.0,0.0,0.0,0.0,0.0,0.0,0.0,0.0,0.0,0.0,0.0,0.0,0.0,0.0,0.0,0.0,0.0,0.0,0.0,0.0,0.0,0.0,0.0,0.0,0.0,0.0,0.0,0.0,0.0,0.0,0.0,0.0,0.0,0.0,0.0,0.0,0.0,0.0,0.0,0.0,0.0,0.0,0.0,0.0,0.0,0.0,0.0,0.0,0.0,0.0,0.0,0.0,0.0,0.0,0.0,0.0,0.0,0.0,0.0,0.0,0.0,0.0,0.0,0.0,0.0,0.0,0.0,0.0,0.0,0.0,0.0,0.0,0.0,0.0,0.0,0.0,0.0,0.0,0.0,0.0,0.0,0.0,0.0,0.0,0.0,0.0,4.5115,4.5992,4.5907,4.4842,4.3015,4.1249,3.9643,0.0,0.0,0.0,0.0,0.0,0.0,0.0,0.0,0.0,0.0,0.0,0.0,0.0,0.0,0.0,0.0,0.0,0.0,0.0,0.0,0.0,0.0,0.0,0.0,0.0,0.0,0.0,0.0,0.0,0.0,0.0,0.0,0.0,0.0,0.0,0.0,0.0,0.0,0.0,0.0,0.0,0.0,0.0,0.0,0.0,0.0,0.0,0.0,0.0,0.0,0.0,0.0,0.0,0.0,0.0,0.0,0.0,0.0,0.0,0.0,0.0,0.0,0.0,0.0,0.0,0.0,0.0,0.0,0.0,0.0,0.0,0.0,0.0,0.0,0.0,0.0,0.0,0.0,0.0,0.0,0.0,0.0,0.0,0.0,0.0,0.0,0.0,0.0,0.0,0.0,0.0,0.0,0.0,0.0,0.0,0.0,0.0,0.0,0.0,0.0,0.0,0.0,0.0,0.0,0.0,0.0,0.0,0.0,4.463,4.5592,4.5231,4.3523,4.1784,4.0302,0.0,0.0,0.0,0.0,0.0,0.0,0.0,0.0,0.0,0.0,0.0,0.0,0.0,0.0,0.0,0.0,0.0,0.0,0.0,0.0,0.0,0.0,0.0,0.0,0.0,0.0,0.0,0.0,0.0,0.0,0.0,0.0,0.0,0.0,0.0,0.0,0.0,0.0,0.0,0.0,0.0,0.0,0.0,0.0,0.0,0.0,0.0,0.0,0.0,0.0,0.0,0.0,0.0,0.0,0.0,0.0,0.0,0.0,0.0,0.0,0.0,0.0,0.0,0.0,0.0,0.0,0.0,0.0,0.0,0.0,0.0,0.0,0.0,0.0,0.0,0.0,0.0,0.0,0.0,0.0,0.0,0.0,0.0,0.0,0.0,0.0,0.0,0.0,0.0,0.0,0.0,0.0,0.0,0.0,0.0,0.0,0.0,0.0,0.0,0.0,0.0,0.0,0.0,0.0,0.0,0.0,0.0,0.0,4.4872,4.4909,4.4807,4.4059,4.2244,4.0653,3.9633,0.0,0.0,0.0,0.0,0.0,0.0,0.0,0.0,0.0,0.0,0.0,0.0,0.0,0.0,0.0,0.0,0.0,0.0,0.0,0.0,0.0,0.0,0.0,0.0,0.0,0.0,0.0,0.0,0.0,0.0,0.0,0.0,0.0,0.0,0.0,0.0,0.0,0.0,0.0,0.0,0.0,0.0,0.0,0.0,0.0,0.0,0.0,0.0,0.0,0.0,0.0,0.0,0.0,0.0,0.0,0.0,0.0,0.0,0.0,0.0,0.0,0.0,0.0,0.0,0.0,0.0,0.0,0.0,0.0,0.0,0.0,0.0,0.0,0.0,0.0,0.0,0.0,0.0,0.0,0.0,0.0,0.0,0.0,0.0,0.0,0.0,0.0,0.0,0.0,0.0,0.0,0.0,0.0,0.0,0.0,0.0,0.0,0.0,0.0,0.0,0.0,0.0,0.0,0.0,0.0,0.0,0.0,0.0,0.0,4.5005,0.0,4.5266,4.2585,4.1812,4.0433,0.0,0.0,0.0,0.0,0.0,0.0,0.0,0.0,0.0,0.0,0.0,0.0,0.0,0.0,0.0,0.0,0.0,0.0,0.0,0.0,0.0,0.0,0.0,0.0,0.0,0.0,0.0,0.0,0.0,0.0,0.0,0.0,0.0,0.0,0.0,0.0,0.0,0.0,0.0,0.0,0.0,0.0,0.0,0.0,0.0,0.0,0.0,0.0,0.0,0.0,0.0,0.0,0.0,0.0,0.0,0.0,0.0,0.0,0.0,0.0,0.0,0.0,0.0,0.0,0.0,0.0,0.0,0.0,0.0,0.0,0.0,0.0,0.0,0.0,0.0,0.0,0.0,0.0,0.0,0.0,0.0,0.0,0.0,0.0,0.0,0.0,0.0,0.0,0.0,0.0,0.0,0.0,0.0,0.0,0.0,0.0,0.0,0.0,0.0,0.0,0.0,0.0,0.0,0.0,0.0,0.0,0.0,0.0,0.0,4.603,4.647,4.5362,4.2745,4.1968,4.0588,0.0,0.0,0.0,0.0,0.0,0.0,0.0,0.0,0.0,0.0,0.0,0.0,0.0,0.0,0.0,0.0,0.0,0.0,0.0,0.0,0.0,0.0,0.0,0.0,0.0,0.0,0.0,0.0,0.0,0.0,0.0,0.0,0.0,0.0,0.0,0.0,0.0,0.0,0.0,0.0,0.0,0.0,0.0,0.0,0.0,0.0,0.0,0.0,0.0,0.0,0.0,0.0,0.0,0.0,0.0,0.0,0.0,0.0,0.0,0.0,0.0,0.0,0.0,0.0,0.0,0.0,0.0,0.0,0.0,0.0,0.0,0.0,0.0,0.0,0.0,0.0,0.0,0.0,0.0,0.0,0.0,0.0,0.0,0.0,0.0,0.0,0.0,0.0,0.0,0.0,0.0,0.0,0.0,0.0,0.0,0.0,0.0,0.0,0.0,0.0,0.0,0.0,0.0,0.0,0.0,0.0,0.0,0.0,0.0,4.7743,4.6265,4.4687,4.3123,4.1362,4.0307,0.0,0.0,0.0,0.0,0.0,0.0,0.0,0.0,0.0,0.0,0.0,0.0,0.0,0.0,0.0,0.0,0.0,0.0,0.0,0.0,0.0,0.0,0.0,0.0,0.0,0.0,0.0,0.0,0.0,0.0,0.0,0.0,0.0,0.0,0.0,0.0,0.0,0.0,0.0,0.0,0.0,0.0,0.0,0.0,0.0,0.0,0.0,0.0,0.0,0.0,0.0,0.0,0.0,0.0,0.0,0.0,0.0,0.0,0.0,0.0,0.0,0.0,0.0,0.0,0.0,0.0,0.0,0.0,0.0,0.0,0.0,0.0,0.0,0.0,0.0,0.0,0.0,0.0,0.0,0.0,0.0,0.0,0.0,0.0,0.0,0.0,0.0,0.0,0.0,0.0,0.0,0.0,0.0,0.0,0.0,0.0,0.0,0.0,0.0,0.0,0.0,0.0,0.0,0.0,0.0,0.0,0.0,0.0,0.0,0.0,4.738,4.6913,4.6342,4.4692,4.2659,4.0246,0.0,0.0,0.0,0.0,0.0,0.0,0.0,0.0,0.0,0.0,0.0,0.0,0.0,0.0,0.0,0.0,0.0,0.0,0.0,0.0,0.0,0.0,0.0,0.0,0.0,0.0,0.0,0.0,0.0,0.0,0.0,0.0,0.0,0.0,0.0,0.0,0.0,0.0,0.0,0.0,0.0,0.0,0.0,0.0,0.0,0.0,0.0,0.0,0.0,0.0,0.0,0.0,0.0,0.0,0.0,0.0,0.0,0.0,0.0,0.0,0.0,0.0,0.0,0.0,0.0,0.0,0.0,0.0,0.0,0.0,0.0,0.0,0.0,0.0,0.0,0.0,0.0,0.0,0.0,0.0,0.0,0.0,0.0,0.0,0.0,0.0,0.0,0.0,0.0,0.0,0.0,0.0,0.0,0.0,0.0,0.0,0.0,0.0,0.0,0.0,0.0,0.0,0.0,0.0,0.0,0.0,0.0,0.0,0.0,0.0,4.7879,4.7916,4.6741,4.4629,0.0,0.0,0.0,0.0,0.0,0.0,0.0,0.0,0.0,0.0,0.0,0.0,0.0,0.0,0.0,0.0,0.0,0.0,0.0,0.0,0.0,0.0,0.0,0.0,0.0,0.0,0.0,0.0,0.0,0.0,0.0,0.0,0.0,0.0,0.0,0.0,0.0,0.0,0.0,0.0,0.0,0.0,0.0,0.0,0.0,0.0,0.0,0.0,0.0,0.0,0.0,0.0,0.0,0.0,0.0,0.0,0.0,0.0,0.0,0.0,0.0,0.0,0.0,0.0,0.0,0.0,0.0,0.0,0.0,0.0,0.0,0.0,0.0,0.0,0.0,0.0,0.0,0.0,0.0,0.0,0.0,0.0,0.0,0.0,0.0,0.0,0.0,0.0,0.0,0.0,0.0,0.0,0.0,0.0,0.0,0.0,0.0,0.0,0.0,0.0,0.0,0.0,0.0,0.0,0.0,0.0,0.0,0.0,0.0,0.0,0.0,4.7978,4.8009,4.778,0.0,4.3375,0.0,0.0,0.0,0.0,0.0,0.0,0.0,0.0,0.0,0.0,0.0,0.0,0.0,0.0,0.0,0.0,0.0,0.0,0.0,0.0,0.0,0.0,0.0,0.0,0.0,0.0,0.0,0.0,0.0,0.0,0.0,0.0,0.0,0.0,0.0,0.0,0.0,0.0,0.0,0.0,0.0,0.0,0.0,0.0,0.0,0.0,0.0,0.0,0.0,0.0,0.0,0.0,0.0,0.0,0.0,0.0,0.0,0.0,0.0,0.0,0.0,0.0,0.0,0.0,0.0,0.0,0.0,0.0,0.0,0.0,0.0,0.0,0.0,0.0,0.0,0.0,0.0,0.0,0.0,0.0,0.0,0.0,0.0,0.0,0.0,0.0,0.0,0.0,0.0,0.0,0.0,0.0,0.0,0.0,0.0,0.0,0.0,0.0,0.0,0.0,0.0,0.0,0.0,0.0,0.0,0.0,0.0,0.0,0.0,0.0,0.0,0.0,4.7843,4.7421,4.6628,0.0,0.0,0.0,0.0,0.0,0.0,0.0,0.0,0.0,0.0,0.0,0.0,0.0,0.0,0.0,0.0,0.0,0.0,0.0,0.0,0.0,0.0,0.0,0.0,0.0,0.0,0.0,0.0,0.0,0.0,0.0,0.0,0.0,0.0,0.0,0.0,0.0,0.0,0.0,0.0,0.0,0.0,0.0,0.0,0.0,0.0,0.0,0.0,0.0,0.0,0.0,0.0,0.0,0.0,0.0,0.0,0.0,0.0,0.0,0.0,0.0,0.0,0.0,0.0,0.0,0.0,0.0,0.0,0.0,0.0,0.0,0.0,0.0,0.0,0.0,0.0,0.0,0.0,0.0,0.0,0.0,0.0,0.0,0.0,0.0,0.0,0.0,0.0,0.0,0.0,0.0,0.0,0.0,0.0,0.0,0.0,0.0,0.0,0.0,0.0,0.0,0.0,0.0,0.0,0.0,0.0,0.0,0.0,0.0,0.0,4.7961,4.7997,4.7874,4.7816,4.7743,0.0,0.0,0.0,0.0,0.0,0.0,0.0,0.0,0.0,0.0,0.0,0.0,0.0,0.0,0.0,0.0,0.0,0.0,0.0,0.0,0.0,0.0,0.0,0.0,0.0,0.0,0.0,0.0,0.0,0.0,0.0,0.0,0.0,0.0,0.0,0.0,0.0,0.0,0.0,0.0,0.0,0.0,0.0,0.0,0.0,0.0,0.0,0.0,0.0,0.0,0.0,0.0,0.0,0.0,0.0,0.0,0.0,0.0,0.0,0.0,0.0,0.0,0.0,0.0,0.0,0.0,0.0,0.0,0.0,0.0,0.0,0.0,0.0,0.0,0.0,0.0,0.0,0.0,0.0,0.0,0.0,0.0,0.0,0.0,0.0,0.0,0.0,0.0,0.0,0.0,0.0,0.0,0.0,0.0,0.0,0.0,0.0,0.0,0.0,0.0,0.0,0.0,0.0,0.0,0.0,0.0,0.0,0.0,0.0,0.0,0.0,0.0,0.0,0.0,4.7743,0.0,0.0,0.0,0.0,0.0,0.0,0.0,0.0,0.0,0.0,0.0,0.0,0.0,0.0,0.0,0.0,0.0,0.0,0.0,0.0,0.0,0.0,0.0,0.0,0.0,0.0,0.0,0.0,0.0,0.0,0.0,0.0,0.0,0.0,0.0,0.0,0.0,0.0,0.0,0.0,0.0,0.0,0.0,0.0,0.0,0.0,0.0,0.0,0.0,0.0,0.0,0.0,0.0,0.0,0.0,0.0,0.0,0.0,0.0,0.0,0.0,0.0,0.0,0.0,0.0,0.0,0.0,0.0,0.0,0.0,0.0,0.0,0.0,0.0,0.0,0.0,0.0,0.0,0.0,0.0,0.0,0.0,0.0,0.0,0.0,0.0,0.0,0.0,0.0,0.0,0.0,0.0,0.0,0.0,0.0,0.0,0.0,0.0,0.0,0.0,0.0,0.0,0.0,0.0,0.0,0.0,0.0,0.0,0.0,0.0,0.0,0.0,0.0,0.0,0.0,0.0,0.0,0.0,0.0,0.0,0.0,0.0,0.0,0.0,0.0,0.0,0.0,0.0,0.0,0.0,0.0,0.0,0.0,0.0,0.0,0.0,0.0,0.0,0.0,0.0,0.0,0.0,0.0,0.0,0.0,0.0,0.0,0.0,0.0,0.0,0.0,0.0,0.0,0.0,0.0,0.0,0.0,0.0,0.0,0.0,0.0,0.0,0.0,0.0,0.0,0.0,0.0,0.0,0.0,0.0,0.0,0.0,0.0,0.0,0.0,0.0,0.0,0.0,0.0,0.0,0.0,0.0,0.0,0.0,0.0,0.0,0.0,0.0,0.0,0.0,0.0,0.0,0.0,0.0,0.0,0.0,0.0,0.0,0.0,0.0,0.0,0.0,0.0,0.0,0.0,0.0,0.0,0.0,0.0,0.0,0.0,0.0,0.0,0.0,0.0,0.0,0.0,0.0,0.0,0.0,0.0,0.0,0.0,0.0,0.0,0.0,0.0,0.0,0.0,0.0,0.0,0.0,0.0,0.0,0.0,0.0,0.0,0.0,0.0,0.0,0.0,0.0,0.0,0.0,0.0,0.0,0.0,0.0,0.0,0.0,0.0,0.0,0.0,0.0,0.0,0.0,0.0,0.0,0.0,0.0,0.0,0.0,0.0,0.0,0.0,0.0,0.0,0.0,0.0,0.0,0.0,0.0,0.0,0.0,0.0,0.0,0.0,0.0,0.0,0.0,0.0,0.0,0.0,0.0,0.0,0.0,0.0,0.0,0.0,0.0,0.0,0.0,0.0,0.0,0.0,0.0,0.0,0.0,0.0,0.0,0.0,0.0,0.0,0.0,0.0,0.0,0.0,0.0,0.0,0.0,0.0,0.0,0.0,0.0,0.0,0.0,0.0,0.0,0.0,0.0,0.0,0.0,0.0,0.0,0.0,0.0,0.0,0.0,0.0,0.0,0.0,0.0,0.0,0.0,0.0,0.0,0.0,0.0,0.0,0.0,0.0,0.0,0.0,0.0,0.0,0.0,0.0,0.0,0.0,0.0,0.0,0.0,0.0,0.0,0.0,0.0,0.0,0.0,0.0,0.0,0.0,0.0,0.0,0.0,0.0,0.0,0.0,0.0,0.0,0.0,0.0,0.0,0.0,0.0,0.0,0.0,0.0,0.0,0.0,0.0,0.0,0.0,0.0,0.0,0.0,0.0,0.0,0.0,0.0,0.0,0.0,0.0,0.0,0.0,0.0,0.0,0.0,0.0,0.0,0.0,0.0,0.0,0.0,0.0,0.0,0.0,0.0,0.0,0.0,0.0,0.0,0.0,0.0,0.0,0.0,0.0,0.0,0.0,0.0,0.0,0.0,0.0,0.0,0.0,0.0,0.0,0.0,0.0,0.0,0.0,0.0,0.0,0.0,0.0,0.0,0.0,0.0,0.0,0.0,0.0,0.0,0.0,0.0,0.0,0.0,0.0,0.0,0.0,0.0,0.0,0.0,0.0,0.0,0.0,0.0,0.0,0.0,0.0,0.0,0.0,0.0,0.0,0.0,0.0,0.0,0.0,0.0,0.0,0.0,0.0,0.0,0.0,0.0,0.0,0.0,0.0,0.0,0.0,0.0,0.0,0.0,0.0,0.0,0.0,0.0,0.0,0.0,0.0,0.0,0.0,0.0,0.0,0.0,0.0,0.0,0.0,0.0,0.0,0.0,0.0,0.0,0.0,0.0,0.0,0.0,0.0,0.0,0.0,0.0,0.0,0.0,0.0,0.0,0.0,0.0,0.0,0.0,0.0,0.0,0.0,0.0,0.0,0.0,0.0,0.0,0.0,0.0,0.0,0.0,0.0,0.0,0.0,0.0,0.0,0.0,0.0,0.0,0.0,0.0,0.0,0.0,0.0,0.0,0.0,0.0,0.0,0.0,0.0,0.0,0.0,0.0,0.0,0.0,0.0,0.0,0.0,0.0,0.0,0.0,0.0,0.0,0.0,0.0,0.0,0.0,0.0,0.0,0.0,0.0,0.0,0.0,0.0,0.0,0.0,0.0,0.0,0.0,0.0,0.0,0.0,0.0,0.0,0.0,0.0,0.0,0.0,0.0,0.0,0.0,0.0,0.0,0.0,0.0,0.0,0.0,0.0,0.0,0.0,0.0,0.0,0.0,0.0,0.0,0.0,0.0,0.0,0.0,0.0,0.0,0.0,0.0,0.0,0.0,0.0,0.0,0.0,0.0,0.0,0.0,0.0,0.0,0.0,0.0,0.0,0.0,0.0,0.0,0.0,0.0,0.0,0.0,0.0,0.0,0.0,0.0,0.0,0.0,0.0,0.0,0.0,0.0,0.0,0.0,0.0,0.0,0.0,0.0,0.0,0.0,0.0,0.0,0.0,0.0,0.0,0.0,0.0,0.0,0.0,0.0,0.0,0.0,0.0,0.0,0.0,0.0,0.0,0.0,0.0,0.0,0.0,0.0,0.0,0.0,0.0,0.0,0.0,0.0,0.0,0.0,0.0,0.0,0.0,0.0,0.0,0.0,0.0,0.0,0.0,0.0,0.0,0.0,0.0,0.0,0.0,0.0,0.0,0.0,0.0,0.0,0.0,0.0,0.0,0.0,0.0,0.0,0.0,0.0,0.0,0.0,0.0,0.0,0.0,0.0,0.0,0.0,0.0,0.0,0.0,0.0,0.0,0.0,0.0,0.0,0.0,0.0,0.0,0.0,0.0,0.0,0.0,0.0,0.0,0.0,0.0,0.0,0.0,0.0,0.0,0.0,0.0,0.0,0.0,0.0,0.0,0.0,0.0,0.0,0.0,0.0,0.0,0.0,0.0,0.0,0.0,0.0,0.0,0.0,0.0,0.0,0.0,0.0,0.0,0.0,0.0,0.0,0.0,0.0,0.0,0.0,0.0,0.0,0.0,0.0,0.0,0.0,0.0,0.0,0.0,0.0,0.0,0.0,0.0,0.0,0.0,0.0,0.0,0.0,0.0,0.0,0.0,0.0,0.0,0.0,0.0,0.0,0.0,0.0,0.0,0.0,0.0,0.0,0.0,0.0,0.0,0.0,0.0,0.0,0.0,0.0,0.0,0.0,0.0,0.0,0.0,0.0,0.0,0.0,0.0,0.0,0.0,0.0,0.0,0.0,0.0,0.0,0.0,0.0,0.0,0.0,0.0,0.0,0.0,0.0,0.0,0.0,0.0,0.0,0.0,0.0,0.0,0.0,0.0,0.0,0.0,0.0,0.0,0.0,0.0,0.0,0.0,0.0,0.0,0.0,0.0,0.0,0.0,0.0,0.0,0.0,0.0,0.0,0.0,0.0,0.0,0.0,0.0,0.0,0.0,0.0,0.0,0.0,0.0,0.0,0.0,0.0,0.0,0.0,0.0,0.0,0.0,0.0,0.0,0.0,0.0,0.0,0.0,0.0,0.0,0.0,0.0,0.0,0.0,0.0,0.0,0.0,0.0,0.0,0.0,0.0,0.0,0.0,0.0,0.0,0.0,0.0,0.0,0.0,0.0,0.0,0.0,0.0,0.0,0.0,0.0,0.0,0.0,0.0,0.0,0.0,0.0,0.0,0.0,0.0,0.0,0.0,0.0,0.0,0.0,0.0,0.0,0.0,0.0,0.0,0.0,0.0,0.0,0.0,0.0,0.0,0.0,0.0,0.0,0.0,0.0,0.0,0.0,0.0,0.0,0.0,0.0,0.0,0.0,0.0,0.0,0.0,0.0,0.0,0.0,0.0,0.0,0.0,0.0,0.0,0.0,0.0,0.0,0.0,0.0,0.0,0.0,0.0,0.0,0.0,0.0,0.0,0.0,0.0,0.0,0.0,0.0,0.0,0.0,0.0,0.0,0.0,0.0,0.0,0.0]}],[{"header":{"parameterUnit":"kt","parameterCategory":2,"dx":1,"dy":1,"la1":29.587661999999998,"la2":31.0,"lo1":-88.76705300000003,"lo2":-86.6583820000003,"nx":115,"ny":88,"refTime":"2022-09-19T06:00:00:Z","depth":0,"parameterNumber":2,"parameterNumberName":"V-component_of_WINDS"},"data":[-3.8543,-3.7833,-3.7135,-3.6761,-3.6387,-3.6208,-3.6044,-3.5699,-3.6044,-3.6223,-3.6403,-3.6582,-3.7119,-3.7833,-3.7833,-3.7654,-3.7298,-3.7313,-3.7135,-3.7135,-3.7313,-3.7476,-3.7654,-3.8027,-3.8559,-3.9267,-3.9972,-4.0692,-4.1565,-4.1913,-4.2087,-4.2416,-4.2416,-4.2416,-4.2416,-4.2416,-4.2242,-4.2242,-4.2242,-4.2242,-4.2589,-4.326,-4.3776,-4.4118,-4.4137,-4.4308,-4.4649,-4.4989,-4.5329,-4.5837,-4.6174,-4.653,-4.6698,-4.6678,-4.6678,-4.6846,-4.7033,-4.7033,-4.7201,-4.7368,-4.7368,-4.7368,-4.7368,-4.7535,-4.7848,-4.7848,-4.8014,-4.818,-4.8325,-4.882,-4.9335,-4.9335,-4.9642,-4.9642,-4.9805,-4.9805,-4.9805,-4.9805,-4.9968,-5.0294,-5.064,-5.0943,-5.1244,-5.1405,-5.1748,-5.1909,-5.2069,-5.2388,-5.2503,-5.2843,-5.3183,-5.3183,-5.3024,-5.3363,-5.3679,-5.3656,-5.3634,-5.3499,-5.3499,-5.3656,-5.3656,-5.3318,-5.3318,-5.3318,-5.3024,-5.257,-5.2251,-5.2047,-5.1887,-5.1748,-5.1931,-5.1931,-5.1566,-5.1244,-5.1104,-4.0307,-3.9796,-3.8737,-3.8204,-3.7817,-3.7298,-3.7119,-3.7135,-3.7119,-3.7492,-3.8043,-3.9091,-3.9604,-3.962,-3.9444,-3.9267,-3.9091,-3.9091,-3.9091,-3.9091,-3.9091,-3.9091,-3.9267,-3.9267,-3.962,-4.0324,-4.1199,-4.2087,-4.2779,-4.3125,-4.3279,-4.3279,-4.3451,-4.3451,-4.3451,-4.3451,-4.3451,-4.3622,-4.3604,-4.3451,-4.4137,-4.4989,-4.5498,-4.5837,-4.6005,-4.6005,-4.6005,-4.6005,-4.6005,-4.6342,-4.6678,-4.7033,-4.7181,-4.7201,-4.7201,-4.7201,-4.7368,-4.7535,-4.7515,-4.7681,-4.7701,-4.7701,-4.7555,-4.7868,-4.8159,-4.849,-4.8676,-4.882,-4.882,-4.9314,-5.001,-5.0337,-5.0803,-5.1126,-5.1287,-5.1287,-5.1287,-5.1287,-5.161,-5.1931,-5.2091,-5.2229,-5.2526,-5.2685,-5.2843,-5.2821,-5.3138,-5.3431,-5.3902,-5.4238,-5.4729,-5.4908,-5.4908,-5.5063,-5.5086,-5.5063,-5.5218,-5.5063,-5.504,-5.5063,-5.5086,-5.504,-5.504,-5.4908,-5.4573,-5.4105,-5.3634,-5.3318,-5.3002,-5.2843,-5.3024,-5.3047,-5.2685,-5.2685,-5.2548,-4.1199,-4.0867,-4.0131,-3.9587,-3.9251,-3.9074,-3.872,-3.8543,-3.8897,-3.9444,-4.0341,-4.1024,-4.1373,-4.1199,-4.1024,-4.1024,-4.1024,-4.1024,-4.0849,-4.0849,-4.1024,-4.0849,-4.1024,-4.1024,-4.1199,-4.1391,-4.226,-4.3125,-4.3965,-4.4289,-4.463,-4.497,-4.514,-4.514,-4.514,-4.514,-4.514,-4.497,-4.514,-4.514,-4.5329,-4.5668,-4.6174,-4.6342,-4.6362,-4.653,-4.653,-4.6698,-4.6866,-4.7033,-4.7201,-4.7535,-4.7535,-4.7701,-4.7701,-4.7722,-4.7701,-4.7701,-4.8014,-4.8159,-4.818,-4.8345,-4.8345,-4.8366,-4.882,-4.9499,-4.9662,-5.0131,-5.0294,-5.0457,-5.1148,-5.147,-5.1931,-5.2229,-5.2388,-5.257,-5.257,-5.2548,-5.2866,-5.3024,-5.3318,-5.3476,-5.3971,-5.4261,-5.4261,-5.4418,-5.4706,-5.5172,-5.5326,-5.5504,-5.6296,-5.6601,-5.7082,-5.7082,-5.6754,-5.6601,-5.6601,-5.673,-5.6706,-5.6578,-5.6578,-5.6578,-5.6601,-5.6296,-5.5966,-5.5504,-5.504,-5.4775,-5.444,-5.4261,-5.4261,-5.4284,-5.4284,-5.4284,-5.444,-4.1948,-4.1913,-4.1704,-4.1164,-4.0849,-4.0849,-4.0499,-4.0148,-4.0674,-4.153,-4.2433,-4.2416,-4.2416,-4.2416,-4.2416,-4.2416,-4.2416,-4.2242,-4.2416,-4.2416,-4.2416,-4.2242,-4.2398,-4.2416,-4.2416,-4.2779,-4.3106,-4.3965,-4.463,-4.514,-4.5648,-4.6174,-4.6005,-4.6005,-4.6005,-4.6005,-4.6005,-4.5986,-4.6174,-4.6511,-4.6511,-4.653,-4.6511,-4.6678,-4.6698,-4.6866,-4.7033,-4.7221,-4.7368,-4.7535,-4.7555,-4.7722,-4.7722,-4.7701,-4.7868,-4.7868,-4.8034,-4.818,-4.849,-4.849,-4.8656,-4.882,-4.8985,-4.917,-4.9662,-5.0337,-5.0986,-5.1449,-5.1931,-5.2091,-5.241,-5.257,-5.2866,-5.316,-5.3476,-5.3476,-5.3656,-5.3634,-5.3768,-5.4082,-5.4527,-5.5017,-5.5527,-5.5836,-5.5836,-5.5989,-5.6272,-5.6601,-5.6754,-5.7058,-5.7662,-5.7987,-5.8461,-5.8436,-5.8238,-5.7938,-5.7788,-5.7938,-5.7938,-5.7914,-5.7914,-5.7938,-5.7813,-5.7512,-5.7361,-5.7058,-5.6601,-5.6166,-5.6013,-5.5966,-5.5966,-5.5942,-5.5966,-5.6272,-5.6601,-4.3106,-4.3279,-4.3279,-4.2934,-4.2607,-4.226,-4.2087,-4.2087,-4.2743,-4.326,-4.3451,-4.3451,-4.3451,-4.3604,-4.3604,-4.3622,-4.3622,-4.3622,-4.3604,-4.3432,-4.3604,-4.3604,-4.3604,-4.3432,-4.3604,-4.3776,-4.4118,-4.4819,-4.514,-4.5668,-4.6174,-4.6174,-4.6342,-4.6511,-4.6511,-4.6511,-4.6511,-4.6678,-4.7014,-4.7368,-4.7368,-4.7368,-4.7535,-4.7368,-4.7368,-4.7555,-4.7535,-4.7535,-4.7535,-4.7535,-4.7722,-4.7701,-4.7868,-4.8014,-4.8325,-4.8325,-4.8511,-4.882,-4.882,-4.8985,-4.915,-4.915,-4.8985,-4.9642,-5.0619,-5.161,-5.2091,-5.257,-5.3024,-5.3341,-5.3656,-5.3971,-5.4261,-5.4573,-5.4885,-5.5195,-5.5195,-5.5195,-5.5326,-5.5611,-5.5918,-5.6272,-5.6906,-5.7058,-5.7058,-5.7487,-5.7813,-5.7987,-5.8287,-5.8436,-5.8734,-5.8883,-5.9204,-5.9179,-5.8981,-5.8981,-5.9006,-5.9006,-5.9031,-5.9006,-5.9277,-5.9154,-5.9006,-5.8734,-5.8436,-5.8312,-5.7987,-5.7662,-5.7336,-5.7336,-5.7336,-5.7463,-5.7914,-5.8387,-5.8561,-4.3469,-4.3604,-4.3622,-4.3451,-4.3279,-4.3106,-4.3279,-4.3776,-4.4118,-4.4649,-4.4819,-4.4819,-4.4989,-4.514,-4.514,-4.514,-4.5159,-4.4989,-4.4989,-4.497,-4.514,-4.497,-4.514,-4.514,-4.497,-4.531,-4.5479,-4.5668,-4.5837,-4.6342,-4.6866,-4.7014,-4.7033,-4.7181,-4.7014,-4.7014,-4.7033,-4.7201,-4.7368,-4.7535,-4.7555,-4.7555,-4.7535,-4.7555,-4.7555,-4.7555,-4.7555,-4.7555,-4.7535,-4.7722,-4.8014,-4.8014,-4.818,-4.849,-4.882,-4.882,-4.8985,-4.915,-4.9478,-4.9662,-4.9989,-5.0152,-5.0478,-5.1126,-5.2069,-5.2866,-5.3341,-5.3656,-5.4128,-5.4597,-5.4885,-5.535,-5.5658,-5.6119,-5.6425,-5.673,-5.673,-5.673,-5.6882,-5.701,-5.7336,-5.7662,-5.7963,-5.8262,-5.8412,-5.8561,-5.8734,-5.9056,-5.9204,-5.9474,-5.9794,-5.9794,-5.9794,-5.9768,-5.9768,-5.9768,-5.9915,-6.0061,-6.0087,-6.0087,-6.0524,-6.0379,-6.0207,-5.994,-5.9672,-5.9204,-5.8734,-5.8685,-5.8685,-5.8536,-5.8536,-5.8981,-5.9449,-5.989,-5.9915,-4.3776,-4.3947,-4.3947,-4.3947,-4.3947,-4.3947,-4.4478,-4.514,-4.531,-4.5498,-4.5856,-4.5837,-4.5837,-4.6342,-4.6342,-4.6174,-4.6174,-4.6342,-4.6342,-4.6174,-4.6005,-4.6174,-4.6174,-4.6174,-4.6174,-4.6174,-4.6342,-4.653,-4.6511,-4.6866,-4.7368,-4.7535,-4.7535,-4.7535,-4.7535,-4.7555,-4.7555,-4.7535,-4.7535,-4.7722,-4.7722,-4.7868,-4.7868,-4.8014,-4.8014,-4.818,-4.818,-4.818,-4.818,-4.8034,-4.8325,-4.849,-4.849,-4.882,-4.915,-4.917,-4.9478,-4.9642,-5.001,-5.0499,-5.0986,-5.1309,-5.2091,-5.3024,-5.3656,-5.4261,-5.4706,-5.504,-5.5373,-5.5658,-5.6119,-5.6578,-5.7058,-5.7361,-5.7638,-5.7938,-5.7938,-5.7938,-5.7963,-5.8088,-5.8238,-5.8561,-5.8883,-5.9179,-5.9179,-5.9327,-5.9474,-5.9647,-5.994,-6.0379,-6.055,-6.055,-6.0524,-6.0524,-6.0524,-6.0524,-6.0669,-6.0959,-6.0959,-6.0959,-6.1129,-6.1129,-6.1129,-6.0985,-6.055,-6.0087,-5.9768,-5.9768,-5.9915,-5.9768,-5.9768,-6.0353,-6.0959,-6.0959,-6.0985,-4.4478,-4.48,-4.48,-4.48,-4.4819,-4.48,-4.5178,-4.5687,-4.6005,-4.6174,-4.6174,-4.6174,-4.6342,-4.6342,-4.6342,-4.6342,-4.6342,-4.6342,-4.6342,-4.6342,-4.6511,-4.6511,-4.6511,-4.6511,-4.653,-4.6511,-4.6698,-4.7033,-4.7033,-4.7368,-4.7535,-4.7722,-4.7722,-4.7701,-4.7868,-4.7868,-4.7868,-4.7868,-4.7868,-4.7868,-4.8014,-4.818,-4.8345,-4.849,-4.849,-4.8656,-4.8656,-4.8656,-4.882,-4.882,-4.9006,-4.8985,-4.8985,-4.8985,-4.9335,-4.9683,-5.0521,-5.0662,-5.0824,-5.1309,-5.1792,-5.2729,-5.3814,-5.444,-5.5063,-5.5658,-5.5966,-5.6449,-5.6754,-5.7034,-5.7161,-5.7813,-5.8287,-5.8586,-5.8858,-5.9006,-5.9154,-5.9154,-5.9179,-5.9179,-5.9327,-5.9474,-5.9768,-5.994,-5.994,-6.0087,-6.0233,-6.0379,-6.0669,-6.0985,-6.0985,-6.1129,-6.1129,-6.1273,-6.1273,-6.1129,-6.1273,-6.1417,-6.1417,-6.1561,-6.1443,-6.1586,-6.1561,-6.1561,-6.1417,-6.1129,-6.0814,-6.084,-6.0985,-6.1129,-6.0959,-6.1417,-6.1535,-6.1704,-6.1704,-4.48,-4.4989,-4.4989,-4.4989,-4.497,-4.5348,-4.5668,-4.6025,-4.6174,-4.653,-4.6718,-4.6698,-4.6866,-4.7033,-4.7201,-4.7181,-4.7201,-4.7201,-4.7201,-4.7181,-4.7181,-4.7033,-4.7033,-4.7181,-4.7033,-4.7201,-4.7368,-4.7368,-4.7535,-4.7535,-4.7701,-4.7701,-4.7722,-4.8014,-4.8325,-4.8511,-4.8511,-4.8511,-4.8345,-4.8345,-4.849,-4.8656,-4.882,-4.882,-4.8985,-4.8985,-4.8985,-4.8985,-4.8985,-4.915,-4.9335,-4.952,-4.9683,-4.9683,-5.001,-5.0174,-5.0683,-5.1007,-5.1631,-5.2091,-5.3205,-5.415,-5.5241,-5.5989,-5.6425,-5.7058,-5.7385,-5.7687,-5.8113,-5.8412,-5.8412,-5.8883,-5.9352,-5.9768,-6.0061,-6.0353,-6.0499,-6.0524,-6.0524,-6.0669,-6.0669,-6.0669,-6.084,-6.0695,-6.0695,-6.084,-6.0985,-6.1129,-6.1273,-6.1273,-6.1273,-6.1273,-6.1417,-6.1417,-6.1586,-6.1586,-6.1704,-6.1847,-6.1847,-6.1989,-6.2016,-6.2016,-6.1847,-6.1847,-6.1847,-6.1704,-6.1561,-6.1443,-6.1417,-6.1561,-6.1847,-6.2132,-6.2132,-6.2274,-6.2274,-4.4989,-4.4989,-4.4989,-4.5159,-4.5329,-4.5668,-4.6193,-4.6511,-4.653,-4.6866,-4.7221,-4.7221,-4.7368,-4.7535,-4.7535,-4.7535,-4.7535,-4.7722,-4.7722,-4.7535,-4.7535,-4.7722,-4.7535,-4.7535,-4.7701,-4.7868,-4.7868,-4.8034,-4.8034,-4.818,-4.818,-4.8014,-4.8345,-4.849,-4.882,-4.8985,-4.8985,-4.8985,-4.8985,-4.8985,-4.8985,-4.915,-4.917,-4.917,-4.9499,-4.9499,-4.9499,-4.9499,-4.9662,-4.9826,-4.9989,-5.0337,-5.0499,-5.0662,-5.0824,-5.0824,-5.0986,-5.147,-5.2091,-5.3205,-5.4284,-5.5396,-5.6496,-5.7106,-5.7512,-5.8287,-5.861,-5.8759,-5.8883,-5.9204,-5.9474,-5.9794,-6.0233,-6.0524,-6.0814,-6.1129,-6.1417,-6.1417,-6.1417,-6.1561,-6.1443,-6.1273,-6.1273,-6.1129,-6.1273,-6.1561,-6.1847,-6.1847,-6.1847,-6.1704,-6.1704,-6.1704,-6.1704,-6.173,-6.1873,-6.2016,-6.2132,-6.2274,-6.2274,-6.2416,-6.2416,-6.2416,-6.2389,-6.2248,-6.2248,-6.2132,-6.2132,-6.1989,-6.1989,-6.2106,-6.2504,-6.2927,-6.29,-6.2927,-6.2786,-4.4989,-4.4989,-4.4989,-4.5498,-4.6174,-4.6342,-4.6511,-4.7033,-4.7033,-4.7201,-4.7535,-4.7555,-4.7535,-4.7535,-4.7722,-4.7701,-4.7701,-4.7701,-4.7701,-4.7868,-4.7868,-4.7868,-4.7701,-4.7868,-4.8014,-4.8325,-4.8511,-4.849,-4.882,-4.882,-4.882,-4.882,-4.9006,-4.917,-4.8985,-4.8985,-4.8985,-4.8985,-4.915,-4.915,-4.9314,-4.952,-4.9683,-4.9847,-5.001,-5.0174,-5.0174,-5.0337,-5.0499,-5.0662,-5.0824,-5.0986,-5.1309,-5.147,-5.1631,-5.161,-5.1792,-5.2069,-5.2843,-5.444,-5.5551,-5.6473,-5.756,-5.8186,-5.861,-5.8883,-5.9327,-5.9647,-5.9647,-5.9966,-6.0233,-6.0644,-6.0959,-6.1247,-6.1273,-6.1561,-6.1561,-6.1704,-6.1704,-6.1847,-6.1561,-6.1417,-6.1443,-6.1561,-6.1989,-6.2274,-6.2531,-6.2531,-6.2416,-6.2416,-6.2274,-6.2274,-6.2274,-6.2274,-6.2274,-6.2416,-6.2557,-6.2557,-6.2672,-6.2672,-6.2672,-6.2786,-6.2786,-6.2645,-6.2645,-6.2645,-6.2672,-6.2531,-6.2645,-6.29,-6.3319,-6.3459,-6.3405,-6.3405,-6.3293,-4.5159,-4.5498,-4.5518,-4.6025,-4.6698,-4.6866,-4.7033,-4.7388,-4.7368,-4.7535,-4.7535,-4.7722,-4.7722,-4.7722,-4.7701,-4.7868,-4.818,-4.8159,-4.8345,-4.8511,-4.849,-4.8656,-4.849,-4.849,-4.8511,-4.8656,-4.882,-4.882,-4.915,-4.8985,-4.915,-4.9335,-4.952,-4.9847,-4.9847,-5.001,-5.001,-5.001,-5.001,-5.001,-5.001,-5.0174,-5.0174,-5.0174,-5.0499,-5.0683,-5.0824,-5.1148,-5.1309,-5.147,-5.147,-5.1631,-5.1792,-5.1953,-5.2113,-5.2273,-5.257,-5.3024,-5.3634,-5.4908,-5.632,-5.7409,-5.8486,-5.9204,-5.9647,-6.0036,-6.0353,-6.0524,-6.0695,-6.0985,-6.0985,-6.1129,-6.1417,-6.1704,-6.1847,-6.1847,-6.1989,-6.1989,-6.2132,-6.2132,-6.2132,-6.2132,-6.2132,-6.2132,-6.2389,-6.2531,-6.2813,-6.2813,-6.2813,-6.2813,-6.2813,-6.2813,-6.2672,-6.2672,-6.2672,-6.2672,-6.2813,-6.2786,-6.2927,-6.2927,-6.304,-6.3319,-6.3319,-6.318,-6.318,-6.318,-6.3319,-6.3207,-6.3459,-6.3571,-6.3571,-6.3598,-6.3709,-6.3848,-6.3682,-4.5518,-4.5837,-4.6193,-4.653,-4.7221,-4.7221,-4.7368,-4.7535,-4.7722,-4.7722,-4.7722,-4.7868,-4.8034,-4.82,-4.818,-4.8325,-4.8656,-4.8656,-4.882,-4.8964,-4.8985,-4.8985,-4.8985,-4.8985,-4.917,-4.917,-4.9335,-4.9335,-4.9499,-4.9662,-4.9499,-4.9683,-5.001,-5.0337,-5.0337,-5.0337,-5.0337,-5.0337,-5.0499,-5.0521,-5.0683,-5.0662,-5.0824,-5.0824,-5.1169,-5.1148,-5.1287,-5.161,-5.1931,-5.2251,-5.241,-5.257,-5.291,-5.3205,-5.3363,-5.3521,-5.3994,-5.4284,-5.4752,-5.6143,-5.7385,-5.8461,-5.9352,-6.0233,-6.0695,-6.0814,-6.1129,-6.1273,-6.1273,-6.1417,-6.1561,-6.1704,-6.1704,-6.2132,-6.2274,-6.2416,-6.2416,-6.2416,-6.2416,-6.2416,-6.2531,-6.2672,-6.2672,-6.2672,-6.2813,-6.2927,-6.2927,-6.3067,-6.3067,-6.304,-6.3207,-6.3207,-6.3207,-6.3067,-6.304,-6.304,-6.304,-6.318,-6.3293,-6.3293,-6.3293,-6.3571,-6.3709,-6.3544,-6.3544,-6.3432,-6.3571,-6.3874,-6.4012,-6.4177,-6.4177,-6.4012,-6.4012,-6.4012,-6.415,-4.6005,-4.6342,-4.6866,-4.7221,-4.7555,-4.7722,-4.7701,-4.7701,-4.7701,-4.7701,-4.7868,-4.818,-4.8656,-4.882,-4.882,-4.8985,-4.8985,-4.8985,-4.915,-4.915,-4.915,-4.915,-4.9314,-4.9314,-4.9335,-4.9683,-4.9868,-5.001,-5.0174,-5.0152,-5.0499,-5.0337,-5.0662,-5.0499,-5.0499,-5.0662,-5.0683,-5.0662,-5.0824,-5.1007,-5.1148,-5.1309,-5.1631,-5.1631,-5.1792,-5.1792,-5.1953,-5.2433,-5.2888,-5.316,-5.3499,-5.3836,-5.4173,-5.4463,-5.4752,-5.4908,-5.5396,-5.5836,-5.6578,-5.7687,-5.8734,-5.9327,-6.0061,-6.0789,-6.1273,-6.1443,-6.1586,-6.1586,-6.1704,-6.1847,-6.1989,-6.2132,-6.2132,-6.2416,-6.2531,-6.2672,-6.2645,-6.2645,-6.2813,-6.2672,-6.2672,-6.2953,-6.2927,-6.2927,-6.304,-6.3153,-6.3293,-6.3293,-6.3293,-6.3319,-6.3459,-6.3459,-6.3459,-6.3598,-6.3571,-6.3571,-6.3432,-6.3432,-6.3571,-6.3709,-6.3709,-6.3709,-6.3874,-6.3848,-6.3985,-6.3848,-6.3709,-6.4288,-6.4752,-6.4752,-6.478,-6.4752,-6.4752,-6.4725,-6.4725,-4.653,-4.7201,-4.7368,-4.7535,-4.7722,-4.7722,-4.7848,-4.8159,-4.8159,-4.8325,-4.8656,-4.882,-4.882,-4.8985,-4.8964,-4.9335,-4.952,-4.952,-4.9683,-5.001,-5.001,-5.001,-4.9989,-5.001,-5.001,-5.0174,-5.0358,-5.0337,-5.0662,-5.0986,-5.1309,-5.1309,-5.1148,-5.1309,-5.1287,-5.1309,-5.1309,-5.1309,-5.147,-5.147,-5.161,-5.1631,-5.1953,-5.2273,-5.241,-5.2707,-5.3024,-5.3656,-5.415,-5.444,-5.4752,-5.5086,-5.5265,-5.5705,-5.6143,-5.632,-5.7058,-5.7638,-5.8561,-5.9179,-5.994,-6.0353,-6.0789,-6.1221,-6.1704,-6.1847,-6.1847,-6.2274,-6.2248,-6.2389,-6.2416,-6.2416,-6.2557,-6.2672,-6.2786,-6.29,-6.2874,-6.3153,-6.3153,-6.318,-6.304,-6.318,-6.3346,-6.3319,-6.3432,-6.3544,-6.3544,-6.3544,-6.3544,-6.3571,-6.3571,-6.3736,-6.3736,-6.3736,-6.3709,-6.3709,-6.3848,-6.3848,-6.3985,-6.4123,-6.4315,-6.4342,-6.4315,-6.4315,-6.4479,-6.4452,-6.4561,-6.516,-6.5593,-6.5593,-6.5593,-6.5621,-6.5621,-6.5593,-6.5593,-4.7201,-4.7722,-4.7722,-4.7701,-4.8014,-4.8014,-4.8159,-4.8656,-4.8635,-4.882,-4.8985,-4.917,-4.9335,-4.9335,-4.9478,-4.9683,-4.9847,-5.001,-5.0195,-5.0358,-5.0337,-5.0337,-5.0499,-5.0683,-5.0845,-5.0824,-5.0986,-5.0824,-5.0986,-5.147,-5.1792,-5.1631,-5.1631,-5.1792,-5.1631,-5.1631,-5.1792,-5.1792,-5.1792,-5.1931,-5.2229,-5.241,-5.2729,-5.3069,-5.3499,-5.3814,-5.4284,-5.4908,-5.5551,-5.5705,-5.6143,-5.6449,-5.6601,-5.6906,-5.7385,-5.7536,-5.8561,-5.9596,-6.0233,-6.0524,-6.1103,-6.1391,-6.1678,-6.1937,-6.2504,-6.2786,-6.2786,-6.29,-6.3067,-6.3067,-6.3067,-6.3067,-6.3067,-6.304,-6.3153,-6.3153,-6.3293,-6.3544,-6.3682,-6.3544,-6.3544,-6.3736,-6.4067,-6.4039,-6.4039,-6.415,-6.415,-6.415,-6.4012,-6.4012,-6.3874,-6.4012,-6.4012,-6.4012,-6.4012,-6.4039,-6.4288,-6.4452,-6.4452,-6.4589,-6.478,-6.4916,-6.4889,-6.4889,-6.516,-6.5431,-6.5431,-6.5834,-6.6234,-6.6262,-6.6395,-6.6129,-6.5968,-6.6101,-6.6129,-4.7701,-4.7701,-4.7701,-4.8014,-4.8511,-4.849,-4.8656,-4.8985,-4.915,-4.915,-4.9314,-4.9683,-4.9868,-4.9847,-5.0174,-5.0337,-5.0358,-5.0358,-5.0521,-5.0683,-5.0662,-5.0824,-5.0986,-5.1007,-5.1309,-5.147,-5.1631,-5.177,-5.1792,-5.1792,-5.1953,-5.1953,-5.1953,-5.1975,-5.2113,-5.2091,-5.1931,-5.1931,-5.2113,-5.241,-5.3024,-5.3341,-5.3836,-5.433,-5.4799,-5.5063,-5.5373,-5.6143,-5.693,-5.693,-5.7638,-5.7914,-5.8064,-5.8586,-5.8759,-5.9352,-6.0379,-6.1561,-6.1561,-6.1678,-6.2106,-6.2504,-6.2672,-6.2927,-6.318,-6.3432,-6.3432,-6.3544,-6.3544,-6.3405,-6.3432,-6.3571,-6.3544,-6.3544,-6.3571,-6.3571,-6.3709,-6.3821,-6.4012,-6.4012,-6.4012,-6.4315,-6.4479,-6.4616,-6.4752,-6.4752,-6.4752,-6.4616,-6.4616,-6.4479,-6.4479,-6.4479,-6.4479,-6.4616,-6.4616,-6.478,-6.4916,-6.4916,-6.4916,-6.5052,-6.5215,-6.5351,-6.5323,-6.5565,-6.6101,-6.6234,-6.6604,-6.6736,-6.6736,-6.6998,-6.7362,-6.7101,-6.6604,-6.6472,-6.6764,-4.7868,-4.818,-4.8159,-4.8511,-4.882,-4.88,-4.917,-4.952,-4.952,-4.9683,-5.001,-5.0174,-5.0195,-5.0195,-5.0337,-5.0499,-5.0845,-5.0824,-5.0986,-5.1309,-5.1309,-5.147,-5.147,-5.1631,-5.1631,-5.1792,-5.1792,-5.1953,-5.2433,-5.2614,-5.2614,-5.2592,-5.2592,-5.2614,-5.2751,-5.2888,-5.3024,-5.3183,-5.3544,-5.3724,-5.4016,-5.433,-5.4775,-5.511,-5.5883,-5.6449,-5.673,-5.7687,-5.8137,-5.8586,-5.9031,-5.9352,-5.9768,-6.0061,-6.0644,-6.1273,-6.1963,-6.2389,-6.2645,-6.29,-6.304,-6.3319,-6.3319,-6.3459,-6.3544,-6.3682,-6.3544,-6.3544,-6.3544,-6.3682,-6.3682,-6.3544,-6.3544,-6.3709,-6.3848,-6.3985,-6.4123,-6.415,-6.4315,-6.4479,-6.4479,-6.4616,-6.4752,-6.4916,-6.5052,-6.5052,-6.5052,-6.5052,-6.5052,-6.4916,-6.4916,-6.4916,-6.5052,-6.5188,-6.5188,-6.5351,-6.5351,-6.5351,-6.5351,-6.5458,-6.5621,-6.5755,-6.5995,-6.6101,-6.6632,-6.752,-6.7779,-6.8036,-6.8136,-6.8362,-6.8334,-6.8334,-6.8136,-6.7908,-6.775,-4.8511,-4.8656,-4.8656,-4.8985,-4.9335,-4.9335,-4.9662,-5.001,-5.001,-5.0174,-5.0337,-5.0337,-5.0499,-5.0499,-5.0683,-5.0845,-5.1169,-5.1309,-5.147,-5.1631,-5.1792,-5.1792,-5.1953,-5.1953,-5.2113,-5.2273,-5.2273,-5.2592,-5.2933,-5.3092,-5.3047,-5.3228,-5.3408,-5.3566,-5.3566,-5.3702,-5.3836,-5.3836,-5.4039,-5.4353,-5.4486,-5.4954,-5.5551,-5.6166,-5.7082,-5.7687,-5.8113,-5.8908,-5.95,-5.9915,-6.0258,-6.055,-6.0959,-6.1509,-6.2337,-6.2619,-6.29,-6.318,-6.3293,-6.3432,-6.3709,-6.3848,-6.3848,-6.3985,-6.4012,-6.415,-6.4177,-6.415,-6.4177,-6.415,-6.415,-6.4177,-6.415,-6.415,-6.4288,-6.4425,-6.4425,-6.4616,-6.4889,-6.5188,-6.5188,-6.5188,-6.5188,-6.5188,-6.5323,-6.5323,-6.5323,-6.5323,-6.5323,-6.5458,-6.5486,-6.5486,-6.5458,-6.5593,-6.5593,-6.5755,-6.5755,-6.5755,-6.5728,-6.5862,-6.5995,-6.6262,-6.65,-6.6998,-6.7779,-6.8646,-6.9024,-6.9275,-6.9525,-6.9773,-6.9744,-6.9744,-6.9525,-6.9305,-6.9121,-4.8985,-4.915,-4.915,-4.9335,-4.9868,-5.001,-5.0195,-5.0521,-5.0499,-5.0662,-5.0662,-5.0662,-5.0824,-5.1007,-5.1007,-5.1309,-5.161,-5.1792,-5.1792,-5.1953,-5.1953,-5.2113,-5.2273,-5.2433,-5.2614,-5.2933,-5.3069,-5.3069,-5.3228,-5.3363,-5.3521,-5.3679,-5.4039,-5.4196,-5.4196,-5.4376,-5.433,-5.4509,-5.4643,-5.4954,-5.5241,-5.5705,-5.6296,-5.7512,-5.8287,-5.8883,-5.9474,-6.0087,-6.0669,-6.1077,-6.1391,-6.1704,-6.1963,-6.29,-6.3432,-6.3571,-6.3571,-6.3709,-6.3874,-6.3874,-6.3985,-6.4123,-6.426,-6.4589,-6.4752,-6.4916,-6.4889,-6.4916,-6.4916,-6.4916,-6.4916,-6.4889,-6.4916,-6.4916,-6.4889,-6.4889,-6.4889,-6.5052,-6.5188,-6.5593,-6.5728,-6.5862,-6.5728,-6.5593,-6.5593,-6.5593,-6.5593,-6.5593,-6.5593,-6.5755,-6.5755,-6.5889,-6.6023,-6.6023,-6.5995,-6.6129,-6.6262,-6.6395,-6.6528,-6.65,-6.6895,-6.7027,-6.7649,-6.8617,-6.9371,-6.9867,-7.0236,-7.048,-7.0723,-7.1085,-7.1085,-7.1115,-7.0874,-7.0723,-7.0451,-4.9335,-4.9683,-4.9683,-4.9847,-5.0174,-5.064,-5.0803,-5.0824,-5.1309,-5.147,-5.147,-5.147,-5.147,-5.1631,-5.1631,-5.161,-5.1792,-5.2135,-5.2273,-5.2592,-5.2592,-5.2751,-5.2751,-5.291,-5.325,-5.4039,-5.3882,-5.3882,-5.3882,-5.4039,-5.4016,-5.4196,-5.4219,-5.4353,-5.4353,-5.4486,-5.4954,-5.5265,-5.5551,-5.5836,-5.632,-5.6754,-5.7512,-5.8561,-5.95,-6.0207,-6.0644,-6.1103,-6.1561,-6.2274,-6.2416,-6.2672,-6.304,-6.3571,-6.3709,-6.4042,-6.3825,-6.388,-6.3989,-6.4207,-6.4398,-6.4616,-6.4834,-6.5105,-6.5133,-6.5375,-6.5565,-6.5593,-6.5593,-6.5621,-6.5728,-6.5593,-6.5593,-6.5728,-6.5728,-6.5728,-6.5728,-6.5728,-6.5728,-6.6023,-6.5995,-6.6129,-6.5995,-6.6129,-6.5995,-6.5889,-6.5889,-6.5889,-6.5889,-6.5889,-6.5995,-6.6129,-6.6262,-6.6262,-6.65,-6.6604,-6.7055,-6.7186,-6.7418,-6.7678,-6.8065,-6.8391,-6.9121,-7.0114,-7.0844,-7.1085,-7.1444,-7.1681,-7.1917,-7.2238,-7.2385,-7.2182,-7.2035,-7.2035,-7.1681,-4.8534,-4.8808,-4.8829,-4.9422,-5.019,-5.0414,-5.0855,-5.1405,-5.1631,-5.1792,-5.1792,-5.1792,-5.1792,-5.1953,-5.1953,-5.2113,-5.2273,-5.2592,-5.2774,-5.291,-5.3069,-5.3205,-5.3205,-5.3544,-5.3724,-5.4039,-5.4196,-5.4196,-5.4353,-5.4353,-5.4509,-5.4486,-5.4799,-5.4908,-5.5241,-5.5396,-5.5635,-5.5918,-5.6449,-5.693,-5.7258,-5.7837,-5.871,-5.9622,-6.0669,-6.1391,-6.16,-6.2027,-6.2478,-6.2608,-6.2197,-6.1772,-6.2148,-6.2282,-6.2415,-6.2575,-6.2681,-6.2946,-6.3105,-6.3237,-6.3319,-6.3182,-6.4134,-6.4459,-6.4653,-6.5423,-6.5806,-6.5889,-6.5862,-6.5862,-6.5889,-6.5889,-6.5889,-6.5889,-6.5889,-6.5889,-6.5889,-6.6262,-6.6395,-6.6395,-6.6367,-6.6367,-6.6395,-6.65,-6.65,-6.6528,-6.6528,-6.65,-6.6395,-6.6395,-6.6528,-6.6528,-6.666,-6.6792,-6.6998,-6.739,-6.7678,-6.7936,-6.8165,-6.8576,-6.9246,-6.9961,-7.0421,-7.1294,-7.2004,-7.2385,-7.2501,-7.2763,-7.2993,-7.3222,-7.3191,-7.3108,-7.3108,-7.3077,-7.2848,-4.7994,-4.8083,-4.8061,-4.8842,-4.9802,-4.9911,-5.0591,-5.1399,-5.1624,-5.1871,-5.1931,-5.1953,-5.2113,-5.2455,-5.2433,-5.2614,-5.2774,-5.291,-5.291,-5.3069,-5.3363,-5.3679,-5.3814,-5.433,-5.4532,-5.4509,-5.4509,-5.4509,-5.4486,-5.4799,-5.4931,-5.4993,-5.5139,-5.5353,-5.5517,-5.5432,-5.5782,-5.6233,-5.6586,-5.6959,-5.7402,-5.811,-5.8835,-5.9411,-6.0626,-6.1407,-6.1879,-6.2295,-6.2544,-6.2552,-6.1821,-6.1113,-6.1448,-6.1522,-6.155,-6.1706,-6.1698,-6.1743,-6.1816,-6.2109,-6.2098,-6.2219,-6.3168,-6.3714,-6.3798,-6.4577,-6.5293,-6.5711,-6.5739,-6.5794,-6.6045,-6.6157,-6.6157,-6.6129,-6.6129,-6.6262,-6.6395,-6.6764,-6.7027,-6.7027,-6.7157,-6.7129,-6.6998,-6.6998,-6.7027,-6.7027,-6.7157,-6.7157,-6.7157,-6.7027,-6.7157,-6.7288,-6.7418,-6.7577,-6.7779,-6.7979,-6.8264,-6.8519,-6.8928,-6.9305,-7.0483,-7.1263,-7.1583,-7.2341,-7.2975,-7.3531,-7.3675,-7.3899,-7.3855,-7.398,-7.4122,-7.4122,-7.4122,-7.4122,-7.3899,-4.854,-4.854,-4.854,-4.8583,-4.8822,-4.9343,-5.0046,-5.0818,-5.1416,-5.1861,-5.244,-5.2685,-5.2529,-5.2774,-5.2732,-5.2888,-5.2933,-5.3205,-5.3341,-5.3521,-5.3859,-5.433,-5.4597,-5.511,-5.5265,-5.5265,-5.5265,-5.5241,-5.5078,-5.5148,-5.5504,-5.5388,-5.4751,-5.4792,-5.512,-5.472,-5.4505,-5.5058,-5.5872,-5.6324,-5.6774,-5.7476,-5.8198,-5.8561,-5.9381,-6.0031,-6.0486,-6.0645,-6.0801,-6.1455,-6.1237,-6.1085,-6.134,-6.1423,-6.1523,-6.1666,-6.1528,-6.171,-6.1904,-6.1654,-6.1848,-6.1891,-6.2337,-6.2742,-6.2952,-6.3358,-6.4229,-6.5046,-6.5259,-6.5722,-6.637,-6.6764,-6.6764,-6.6764,-6.6764,-6.7027,-6.752,-6.7649,-6.7779,-6.7779,-6.7779,-6.775,-6.775,-6.7779,-6.7649,-6.7678,-6.7649,-6.775,-6.775,-6.775,-6.7879,-6.8036,-6.8193,-6.835,-6.849,-6.8559,-6.8908,-6.9342,-6.9744,-7.0123,-7.1284,-7.1452,-7.2202,-7.2587,-7.2418,-7.2869,-7.362,-7.4278,-7.4684,-7.4652,-7.4215,-7.4544,-7.5108,-7.4783,-7.4705,-4.7205,-4.7351,-4.7351,-4.7974,-4.8733,-4.9072,-4.9779,-5.0864,-5.115,-5.1595,-5.1715,-5.1805,-5.2144,-5.2686,-5.2708,-5.2979,-5.3679,-5.3859,-5.3836,-5.3994,-5.4128,-5.4597,-5.504,-5.5527,-5.5682,-5.5705,-5.6037,-5.5658,-5.5209,-5.5115,-5.491,-5.4585,-5.4356,-5.4456,-5.4842,-5.4811,-5.5206,-5.5579,-5.6301,-5.6829,-5.7104,-5.7786,-5.8301,-5.8863,-5.9263,-5.9818,-6.0369,-6.063,-6.0182,-5.9595,-5.9595,-5.9691,-5.9786,-5.9814,-5.9814,-5.9936,-6.0153,-6.0274,-6.0247,-6.0396,-6.0517,-6.0629,-6.1395,-6.1892,-6.2212,-6.2927,-6.3627,-6.449,-6.5298,-6.5839,-6.6466,-6.7121,-6.7333,-6.739,-6.739,-6.752,-6.775,-6.7908,-6.7908,-6.7908,-6.7908,-6.7908,-6.7908,-6.8065,-6.8193,-6.8165,-6.8391,-6.849,-6.8432,-6.8461,-6.8461,-6.8743,-6.9024,-6.9012,-6.9114,-6.9332,-6.9577,-7.018,-7.0454,-7.0565,-7.0982,-7.0658,-7.135,-7.1805,-7.1762,-7.1771,-7.1993,-7.2413,-7.3456,-7.423,-7.4157,-7.4242,-7.4974,-7.5108,-7.5216,-4.6594,-4.69,-4.69,-4.7563,-4.8621,-4.8809,-4.952,-5.0655,-5.0723,-5.0929,-5.1157,-5.1134,-5.166,-5.2254,-5.23,-5.2665,-5.3236,-5.3757,-5.394,-5.3918,-5.3866,-5.4319,-5.4754,-5.5138,-5.5242,-5.5242,-5.5424,-5.558,-5.4861,-5.4789,-5.4552,-5.3927,-5.4019,-5.4225,-5.4524,-5.4921,-5.5395,-5.5829,-5.6505,-5.6963,-5.731,-5.7837,-5.8493,-5.8883,-5.9061,-5.9345,-5.9837,-6.0119,-5.9415,-5.8256,-5.8384,-5.8531,-5.867,-5.8762,-5.8845,-5.8964,-5.9089,-5.9123,-5.9151,-5.9443,-5.962,-5.9648,-6.0615,-6.1158,-6.1452,-6.2249,-6.2968,-6.3689,-6.4412,-6.5214,-6.6074,-6.6847,-6.7507,-6.7793,-6.8065,-6.8165,-6.8264,-6.8264,-6.8264,-6.8391,-6.8391,-6.8519,-6.8646,-6.8772,-6.9054,-6.9054,-6.9275,-6.9466,-6.932,-6.9261,-6.8615,-6.9125,-6.9193,-6.9346,-6.9588,-6.9827,-7.0126,-7.0602,-7.0666,-7.0571,-7.041,-7.0346,-7.0695,-7.1005,-7.1132,-7.136,-7.1265,-7.1169,-7.1972,-7.3032,-7.3096,-7.3191,-7.4079,-7.4718,-7.4558,-4.8047,-4.807,-4.8047,-4.8116,-4.8347,-4.837,-4.8895,-4.9626,-4.9695,-5.0152,-5.0837,-5.0984,-5.1043,-5.118,-5.1351,-5.1512,-5.1649,-5.2776,-5.3319,-5.3146,-5.3176,-5.3219,-5.3413,-5.3753,-5.4045,-5.3973,-5.4384,-5.436,-5.4334,-5.4547,-5.4616,-5.4556,-5.4185,-5.4224,-5.4615,-5.4343,-5.4583,-5.4893,-5.5456,-5.599,-5.6289,-5.6637,-5.7064,-5.7489,-5.7516,-5.7816,-5.8143,-5.8266,-5.8235,-5.844,-5.8504,-5.8622,-5.8831,-5.8804,-5.9067,-5.933,-5.9447,-5.9447,-5.9563,-5.968,-5.9912,-5.9912,-6.0371,-6.0515,-6.0658,-6.0974,-6.1461,-6.2292,-6.2664,-6.3552,-6.5424,-6.6285,-6.6802,-6.7721,-6.8287,-6.8753,-6.9217,-6.9217,-6.9371,-6.9649,-6.9803,-6.9803,-6.9803,-6.9902,-6.9995,-7.0058,-7.0183,-7.0275,-7.0096,-6.9409,-6.8931,-6.863,-6.8473,-6.8674,-6.9108,-6.9366,-6.9623,-6.9919,-6.9884,-6.9961,-7.0016,-7.0231,-7.0531,-7.0569,-7.0766,-7.0992,-7.1024,-7.109,-7.1443,-7.1926,-7.2086,-7.2217,-7.2472,-7.2954,-7.3051,-4.821,-4.821,-4.821,-4.8326,-4.8558,-4.8581,-4.8905,-4.9322,-4.9368,-4.9577,-4.9878,-4.9948,-5.0249,-5.0782,-5.0875,-5.1246,-5.1895,-5.2413,-5.2568,-5.2418,-5.2921,-5.3207,-5.3351,-5.3663,-5.3951,-5.4474,-5.5041,-5.5001,-5.4497,-5.4672,-5.4621,-5.4154,-5.4207,-5.4398,-5.4426,-5.494,-5.5238,-5.5489,-5.5917,-5.644,-5.666,-5.681,-5.7178,-5.7636,-5.7609,-5.7757,-5.8173,-5.8173,-5.8384,-5.8713,-5.8741,-5.8949,-5.9185,-5.9302,-5.9419,-5.9651,-5.9796,-5.9796,-6.0056,-6.0171,-6.0171,-6.0286,-6.0429,-6.0515,-6.0714,-6.0714,-6.0858,-6.1636,-6.2213,-6.3226,-6.4325,-6.554,-6.6595,-6.6694,-6.7701,-6.8444,-6.8591,-6.9243,-6.9779,-6.9995,-7.0147,-7.0418,-7.0423,-7.0336,-6.9972,-6.9939,-6.9744,-6.9488,-6.9336,-6.9062,-6.885,-6.8597,-6.824,-6.8215,-6.8494,-6.8818,-6.9064,-6.9106,-6.9063,-6.9311,-6.9481,-6.9675,-6.9804,-6.9802,-6.9895,-6.996,-7.0054,-7.0277,-7.0601,-7.0987,-7.1279,-7.1475,-7.1928,-7.209,-7.1831,-4.8882,-4.8882,-4.8882,-4.8997,-4.9249,-4.9249,-4.9363,-4.95,-4.95,-4.9477,-4.95,-4.9477,-4.9876,-5.0464,-5.0558,-5.0957,-5.1639,-5.1639,-5.157,-5.154,-5.2274,-5.2702,-5.2867,-5.3476,-5.3918,-5.4447,-5.5269,-5.5246,-5.4771,-5.504,-5.4838,-5.43,-5.4657,-5.4885,-5.5038,-5.5864,-5.636,-5.651,-5.6783,-5.7178,-5.7543,-5.7543,-5.7784,-5.809,-5.8118,-5.8357,-5.8741,-5.8741,-5.8859,-5.9067,-5.9039,-5.9185,-5.9563,-5.9535,-5.9767,-6.0056,-6.0056,-6.0171,-6.0429,-6.0515,-6.0629,-6.0629,-6.0629,-6.0743,-6.0941,-6.1054,-6.1195,-6.1565,-6.2261,-6.3079,-6.3575,-6.5122,-6.5768,-6.5355,-6.6533,-6.736,-6.7448,-6.8337,-6.9111,-6.9529,-6.9648,-6.9766,-6.9909,-7.0034,-6.9644,-6.9634,-6.9525,-6.9358,-6.9173,-6.8988,-6.8555,-6.8462,-6.8042,-6.7818,-6.7816,-6.7833,-6.8369,-6.8744,-6.8651,-6.8646,-6.864,-6.8761,-6.8724,-6.8718,-6.8868,-6.8835,-6.877,-6.8965,-6.9388,-6.9745,-7.007,-7.0623,-7.1399,-7.124,-7.0818,-5.023,-5.023,-5.0365,-5.023,-5.023,-5.0253,-5.023,-5.023,-5.023,-5.023,-5.023,-5.023,-5.0277,-5.0325,-5.042,-5.0461,-5.0676,-5.0724,-5.0765,-5.0669,-5.1345,-5.1639,-5.1687,-5.2697,-5.3251,-5.3489,-5.4171,-5.4505,-5.4685,-5.5348,-5.57,-5.5568,-5.5864,-5.5962,-5.5988,-5.658,-5.7123,-5.7421,-5.7757,-5.7998,-5.8412,-5.8412,-5.8412,-5.8531,-5.8531,-5.8741,-5.9447,-5.9447,-5.9447,-5.9447,-5.9419,-5.9563,-5.9796,-5.994,-6.0056,-6.0401,-6.0401,-6.0401,-6.0544,-6.0743,-6.0828,-6.0941,-6.1083,-6.1195,-6.1308,-6.1532,-6.1784,-6.1784,-6.2152,-6.2757,-6.3647,-6.4232,-6.4375,-6.4262,-6.5465,-6.6176,-6.6235,-6.6611,-6.7213,-6.7906,-6.8425,-6.8263,-6.8423,-6.9019,-6.9326,-6.9477,-6.9575,-6.9771,-6.9583,-6.8829,-6.8357,-6.8074,-6.7766,-6.7586,-6.7244,-6.7057,-6.7845,-6.8373,-6.8394,-6.8387,-6.842,-6.851,-6.86,-6.8658,-6.878,-6.878,-6.8747,-6.8812,-6.9073,-6.9073,-6.8886,-6.9277,-6.9824,-7.0052,-6.9603,-5.0389,-5.0389,-5.0389,-5.0389,-5.0389,-5.0389,-5.0389,-5.0389,-5.0389,-5.0389,-5.0389,-5.0389,-5.0389,-5.0389,-5.0389,-5.0612,-5.1151,-5.1285,-5.1419,-5.1394,-5.1952,-5.2217,-5.2587,-5.3136,-5.3501,-5.3992,-5.4631,-5.5264,-5.5792,-5.6263,-5.666,-5.6933,-5.7096,-5.7339,-5.7339,-5.773,-5.8025,-5.8173,-5.8293,-5.8384,-5.8531,-5.8531,-5.8622,-5.8741,-5.8977,-5.9302,-5.9447,-5.9563,-5.9563,-5.9563,-5.9563,-5.9563,-5.994,-6.0142,-6.0401,-6.06,-6.0714,-6.0856,-6.0941,-6.1083,-6.1195,-6.1449,-6.1532,-6.1754,-6.1865,-6.1976,-6.2086,-6.2116,-6.2226,-6.2285,-6.2838,-6.3585,-6.4018,-6.4199,-6.5081,-6.5862,-6.5922,-6.6837,-6.7453,-6.7787,-6.8167,-6.8834,-6.9264,-6.9012,-6.8986,-6.9094,-6.8609,-6.8457,-6.8587,-6.814,-6.7916,-6.7979,-6.7596,-6.753,-6.7746,-6.7963,-6.8517,-6.864,-6.86,-6.8723,-6.8812,-6.8812,-6.8869,-6.9013,-6.898,-6.898,-6.898,-6.9013,-6.9013,-6.9013,-6.9013,-6.9013,-6.9013,-6.9013,-6.9331,-5.1175,-5.1175,-5.1175,-5.1041,-5.1151,-5.1041,-5.1175,-5.1017,-5.1041,-5.0882,-5.0882,-5.0747,-5.0771,-5.0771,-5.1041,-5.1443,-5.1843,-5.1976,-5.2084,-5.2217,-5.2637,-5.3031,-5.3266,-5.3888,-5.453,-5.4911,-5.5489,-5.6113,-5.7001,-5.7367,-5.7636,-5.7905,-5.8145,-5.809,-5.8237,-5.8504,-5.8622,-5.8622,-5.8741,-5.8887,-5.8859,-5.8887,-5.8949,-5.9067,-5.9419,-5.9563,-5.9563,-5.9563,-5.9563,-5.9563,-5.9563,-5.968,-5.994,-6.0401,-6.0743,-6.0941,-6.0912,-6.1054,-6.1166,-6.1308,-6.1532,-6.1784,-6.1924,-6.1976,-6.2196,-6.2276,-6.2386,-6.2386,-6.2495,-6.2742,-6.2958,-6.3523,-6.3977,-6.4068,-6.4735,-6.5112,-6.5402,-6.6103,-6.6759,-6.6836,-6.7341,-6.8181,-6.8483,-6.8573,-6.8426,-6.8619,-6.8231,-6.8124,-6.8147,-6.8147,-6.8179,-6.8147,-6.8114,-6.8297,-6.8658,-6.8869,-6.8958,-6.8869,-6.8869,-6.8958,-6.9134,-6.9222,-6.9309,-6.945,-6.9504,-6.9504,-6.9504,-6.9537,-6.9537,-6.9504,-6.9504,-6.9504,-6.9504,-6.9504,-6.9504,-5.2456,-5.2431,-5.2481,-5.2398,-5.253,-5.2398,-5.2398,-5.2241,-5.2084,-5.1952,-5.1819,-5.171,-5.1577,-5.1577,-5.2109,-5.2398,-5.253,-5.253,-5.2505,-5.2637,-5.3266,-5.3501,-5.363,-5.4937,-5.5568,-5.5819,-5.6483,-5.7218,-5.7943,-5.8384,-5.8531,-5.865,-5.865,-5.865,-5.865,-5.8831,-5.8949,-5.8949,-5.9185,-5.9447,-5.9447,-5.9447,-5.9447,-5.9419,-5.9563,-5.9563,-5.9563,-5.9563,-5.9563,-5.9563,-5.9796,-5.994,-5.9912,-6.0486,-6.0941,-6.1195,-6.1195,-6.1195,-6.1308,-6.1532,-6.1813,-6.1924,-6.2086,-6.2167,-6.2306,-6.2495,-6.2682,-6.2682,-6.3113,-6.3599,-6.3841,-6.4051,-6.4051,-6.4156,-6.4112,-6.4142,-6.4142,-6.4908,-6.4778,-6.5106,-6.5799,-6.6593,-6.7152,-6.7527,-6.806,-6.8335,-6.8543,-6.869,-6.869,-6.869,-6.878,-6.878,-6.878,-6.8869,-6.9483,-6.957,-6.945,-6.9331,-6.9244,-6.9331,-6.9504,-6.9623,-6.9794,-6.9879,-6.9846,-6.9846,-6.9931,-6.9964,-6.9964,-6.9879,-6.9846,-6.9846,-6.9761,-6.9931,-6.9846,-5.1414,-5.1409,-5.2182,-5.253,-5.253,-5.253,-5.253,-5.253,-5.2398,-5.2374,-5.2374,-5.2266,-5.2241,-5.2241,-5.2374,-5.253,-5.253,-5.3031,-5.3136,-5.3266,-5.394,-5.4555,-5.5064,-5.5443,-5.6068,-5.6933,-5.73,-5.7878,-5.8567,-5.9185,-5.968,-5.9824,-5.968,-5.9447,-5.9447,-5.9302,-5.9302,-5.9302,-5.9447,-5.9563,-5.9535,-5.9563,-5.9563,-5.9563,-5.9563,-5.9563,-5.9563,-5.968,-5.9796,-5.9796,-6.0056,-6.0401,-6.06,-6.0685,-6.0912,-6.1195,-6.1166,-6.1337,-6.1672,-6.1813,-6.2005,-6.2306,-6.2386,-6.2574,-6.2761,-6.3006,-6.3113,-6.325,-6.3675,-6.4199,-6.4541,-6.4644,-6.4921,-6.5023,-6.5124,-6.5124,-6.5023,-6.5225,-6.5396,-6.5627,-6.5992,-6.6481,-6.7246,-6.7931,-6.8568,-6.8803,-6.898,-6.9156,-6.9504,-6.9623,-6.9623,-6.9623,-6.959,-6.9676,-6.9794,-6.9879,-6.9846,-6.9761,-6.9761,-6.9761,-6.9846,-6.9846,-6.9964,-7.0015,-7.0015,-7.0015,-7.0015,-7.0015,-6.9931,-7.0015,-6.9931,-6.9931,-7.0015,-7.0015,-7.0015,-5.1039,-5.0716,-5.137,-5.1672,-5.1544,-5.1544,-5.1544,-5.1544,-5.1417,-5.1563,-5.1863,-5.1617,-5.1821,-5.2197,-5.2222,-5.2628,-5.3136,-5.3526,-5.3863,-5.412,-5.4683,-5.5343,-5.5944,-5.6193,-5.681,-5.7636,-5.8145,-5.8595,-5.9185,-5.9767,-6.0171,-6.0429,-6.0171,-6.0142,-6.0027,-5.9912,-5.9767,-5.968,-5.968,-5.9425,-5.9058,-5.8519,-5.8263,-5.8235,-5.8235,-5.8235,-5.8348,-5.8489,-5.8489,-5.8601,-5.8853,-5.9047,-5.9269,-5.9379,-5.9599,-5.9737,-5.9737,-5.9876,-6.0202,-6.0809,-6.1429,-6.1801,-6.2463,-6.2976,-6.3083,-6.3463,-6.3705,-6.3991,-6.4407,-6.4849,-6.5023,-6.5225,-6.5326,-6.5496,-6.5596,-6.5695,-6.5695,-6.5894,-6.609,-6.6384,-6.6674,-6.7151,-6.7746,-6.8387,-6.9013,-6.9417,-6.9504,-6.959,-6.9931,-7.0048,-7.0048,-7.0015,-7.0183,-7.0183,-7.0133,-7.0099,-7.0099,-7.0015,-7.0048,-7.0048,-7.0133,-7.0133,-7.0216,-7.0233,-7.0233,-7.0233,-7.015,-7.0233,-7.0266,-7.0233,-7.0233,-7.0233,-7.0266,-7.0266,-7.0233,-5.0743,-5.0529,-5.0562,-5.0441,-5.0274,-5.0274,-5.0153,-5.0127,-4.9807,-5.0213,-5.0892,-5.0258,-5.0681,-5.172,-5.1822,-5.2534,-5.3786,-5.3966,-5.44,-5.4986,-5.5542,-5.6068,-5.6687,-5.73,-5.7784,-5.821,-5.9039,-5.9535,-5.9651,-6.0286,-6.0515,-6.0515,-6.0515,-6.0515,-6.0515,-6.0401,-6.0286,-5.994,-5.9713,-5.9144,-5.8366,-5.7191,-5.659,-5.659,-5.659,-5.659,-5.6733,-5.659,-5.659,-5.6668,-5.6997,-5.7075,-5.7103,-5.7421,-5.7556,-5.7585,-5.7585,-5.7632,-5.7959,-5.9242,-6.0148,-6.0658,-6.2154,-6.3086,-6.3192,-6.3448,-6.3864,-6.447,-6.4978,-6.5309,-6.5596,-6.5596,-6.5627,-6.5826,-6.5894,-6.5992,-6.609,-6.6481,-6.6866,-6.7151,-6.756,-6.799,-6.8264,-6.8803,-6.9364,-6.9846,-6.9931,-7.0048,-7.0099,-7.0099,-7.0099,-7.0183,-7.0432,-7.0597,-7.0466,-7.0466,-7.0383,-7.0216,-7.0133,-7.0183,-7.03,-7.0383,-7.0383,-7.0399,-7.0448,-7.0448,-7.0448,-7.053,-7.0563,-7.0448,-7.0448,-7.0563,-7.053,-7.0563,-7.0481,-5.0192,-4.9687,-5.0298,-5.0536,-5.0441,-5.0198,-5.0173,-5.0076,-5.0051,-4.9747,-4.9189,-4.903,-4.9632,-5.0747,-5.0798,-5.1658,-5.3033,-5.3634,-5.445,-5.5489,-5.6263,-5.6879,-5.73,-5.7998,-5.8595,-5.9185,-5.9563,-6.0027,-6.0486,-6.0685,-6.0828,-6.097,-6.0856,-6.0714,-6.0714,-6.0515,-6.0429,-6.0171,-5.8563,-5.7443,-5.702,-5.6704,-5.659,-5.659,-5.6561,-5.659,-5.659,-5.6804,-5.691,-5.691,-5.7258,-5.7363,-5.7392,-5.7498,-5.7527,-5.7527,-5.7527,-5.7603,-5.7632,-5.8314,-5.9054,-5.9667,-6.1071,-6.1897,-6.2116,-6.19,-6.2178,-6.343,-6.3843,-6.4541,-6.5647,-6.6028,-6.6286,-6.6674,-6.6802,-6.6866,-6.7056,-6.7151,-6.7434,-6.7931,-6.8023,-6.8387,-6.8803,-6.9068,-6.9417,-6.9964,-7.0099,-7.0266,-7.0432,-7.0432,-7.0597,-7.0874,-7.1069,-7.1149,-7.1149,-7.0989,-7.0793,-7.0793,-7.0597,-7.0481,-7.0481,-7.0481,-7.0563,-7.0563,-7.053,-7.053,-7.053,-7.053,-7.053,-7.053,-7.053,-7.053,-7.053,-7.053,-7.0563,-4.9469,-4.9071,-4.9325,-4.9326,-4.895,-4.8858,-4.8766,-4.8699,-4.8674,-4.8318,-4.7785,-4.799,-4.8694,-4.9862,-4.9888,-5.0889,-5.2486,-5.2849,-5.362,-5.4806,-5.5972,-5.6815,-5.7581,-5.858,-5.9274,-5.994,-6.0142,-6.0486,-6.0828,-6.0912,-6.0735,-6.0435,-6.0266,-5.9866,-5.9373,-5.9234,-5.9014,-5.8846,-5.7161,-5.6284,-5.618,-5.5573,-5.5256,-5.5256,-5.5256,-5.5256,-5.5256,-5.5359,-5.549,-5.5461,-5.5695,-5.5826,-5.5724,-5.5724,-5.5826,-5.5695,-5.5724,-5.5695,-5.5724,-5.623,-5.7097,-5.8485,-5.9919,-6.0732,-6.0519,-6.0884,-6.1638,-6.2733,-6.2921,-6.3517,-6.4554,-6.5313,-6.5787,-6.6163,-6.6988,-6.7527,-6.7714,-6.7931,-6.8173,-6.8568,-6.8658,-6.8892,-6.9504,-6.9676,-6.9879,-7.0133,-7.0349,-7.0548,-7.0678,-7.0841,-7.1036,-7.1263,-7.1376,-7.1376,-7.1342,-7.1229,-7.1149,-7.1149,-7.0955,-7.076,-7.0726,-7.0678,-7.0563,-7.053,-7.053,-7.053,-7.053,-7.053,-7.053,-7.053,-7.053,-7.053,-7.053,-7.053,-7.0645,-4.8934,-4.8579,-4.8275,-4.7805,-4.7332,-4.722,-4.7159,-4.6896,-4.6896,-4.6896,-4.687,-4.7159,-4.7784,-4.8849,-4.9081,-5.0166,-5.185,-5.1993,-5.2655,-5.3965,-5.5091,-5.6306,-5.7387,-5.8517,-5.94,-5.9998,-6.0279,-6.0532,-6.0503,-6.0726,-6.0283,-5.9264,-5.9147,-5.8545,-5.769,-5.7498,-5.7189,-5.6573,-5.5738,-5.5317,-5.5317,-5.4182,-5.3572,-5.3572,-5.363,-5.3572,-5.3572,-5.363,-5.3572,-5.3669,-5.3426,-5.3407,-5.3436,-5.3164,-5.3145,-5.3145,-5.3077,-5.3048,-5.3145,-5.3589,-5.4664,-5.6436,-5.8266,-5.9146,-5.8604,-5.9806,-6.1015,-6.1911,-6.2093,-6.2395,-6.2885,-6.4058,-6.4851,-6.5187,-6.6363,-6.7377,-6.7551,-6.773,-6.8117,-6.8696,-6.9034,-6.9207,-6.9864,-7.0216,-7.03,-7.0383,-7.0515,-7.0678,-7.0955,-7.1229,-7.1342,-7.1422,-7.1422,-7.1422,-7.1466,-7.1388,-7.1342,-7.1342,-7.1116,-7.0955,-7.0921,-7.076,-7.0645,-7.053,-7.053,-7.053,-7.053,-7.053,-7.053,-7.053,-7.053,-7.053,-7.0645,-7.0645,-7.0874,-4.9287,-4.8934,-4.8386,-4.8054,-4.772,-4.7358,-4.7159,-4.6896,-4.6896,0.0,0.0,-4.7133,-4.7573,-4.8056,-4.8255,-4.9331,-5.0952,-5.1259,-5.2334,-5.391,-5.4836,-5.5591,-5.6005,-5.6917,-5.7573,-5.7866,-5.8244,-5.8485,-5.8771,-5.8801,-5.8758,-5.8477,-5.8239,-5.8046,-5.7871,-5.7603,-5.6554,-5.4614,-5.4194,-5.3979,-5.395,-5.3815,-5.3572,-5.3572,-5.3572,-5.3572,-5.3572,-5.3572,-5.3572,-5.3669,-5.2612,-5.203,-5.1972,-5.1012,-5.0431,-5.046,-5.046,-5.046,-5.046,-5.0918,-5.137,-5.1787,-5.4849,-5.6368,-5.579,-5.6173,-5.7696,-6.0483,-6.0849,-6.1468,-6.2991,-6.3551,-6.3887,-6.4181,-6.4602,-6.4935,-6.5191,-6.5443,-6.6284,-6.7491,-6.7889,-6.8569,-6.995,-7.02,-7.0416,-7.0481,-7.0592,-7.0921,-7.0955,-7.1106,-7.1317,-7.1472,-7.1335,-7.1685,-7.171,-7.1565,-7.1511,-7.1477,-7.1388,-7.1229,-7.1069,-7.0955,-7.076,-7.0645,-7.053,-7.053,-7.053,-7.053,-7.053,-7.053,-7.053,-7.0645,-7.0874,-7.1036,-7.106,-4.9449,-4.9179,-4.8632,-4.8165,0.0,-4.7582,-4.663,-4.5194,-4.5219,-4.5194,-4.5219,-4.6059,-4.6646,-4.7053,-4.7793,-4.8949,-5.0169,-5.0306,-5.1152,-5.2573,-5.3726,-5.4656,-5.5192,-5.641,-5.7152,-5.7679,-5.7842,-5.805,-5.8331,-5.8302,-5.7977,-5.7328,-5.7154,-5.6831,-5.6213,-5.6084,-5.5438,-5.4244,-5.402,-5.3826,-5.3796,-5.3699,-5.3572,-5.3572,-5.3572,0.0,0.0,0.0,0.0,0.0,0.0,0.0,0.0,-5.0111,0.0,-4.9762,-4.9762,-4.9762,-4.9762,-5.0243,-5.0572,-5.0601,-5.2444,-5.3243,-5.2363,-5.3419,-5.5276,-5.7904,-5.8316,-5.9224,-6.0934,-6.1937,-6.2643,-6.3013,-6.3798,-6.4356,-6.4657,-6.4969,-6.5477,-6.6382,-6.6677,-6.7184,-6.8191,-6.8258,-6.8305,-6.8384,-6.9181,-6.9844,-6.9889,-6.967,-6.9497,-6.9611,-6.9611,-6.9884,-7.0567,-7.0586,-7.0757,-7.1463,-7.1589,-7.1433,-7.1275,-7.1116,-7.0921,-7.076,-7.0645,-7.053,-7.053,-7.053,-7.0563,-7.076,-7.076,-7.0471,-6.9168,-6.9085,-6.9237,-4.8779,-4.8672,-4.8189,-4.762,-4.7098,-4.6962,-4.563,-4.3437,-4.3462,-4.3437,-4.3619,-4.4805,-4.5486,-4.5804,-4.7011,-4.8078,-4.9101,-4.9181,-4.9851,-5.102,-5.244,-5.3522,-5.4337,-5.5625,-5.6533,-5.7081,-5.7243,-5.7419,-5.7665,-5.7695,-5.7133,-5.6129,-5.6129,-5.5597,-5.4592,0.0,0.0,0.0,-5.4097,-5.4117,-5.4117,-5.3796,-5.3699,-5.3699,-5.3466,0.0,-5.3291,-5.2001,-5.1303,-5.1303,-5.0111,0.0,0.0,0.0,0.0,0.0,0.0,0.0,0.0,0.0,0.0,0.0,-4.9727,-4.9585,-4.8885,-5.0661,-5.2955,-5.5314,-5.5878,-5.6645,-5.8148,-5.9465,-6.0436,-6.0857,-6.2255,-6.3266,-6.3639,-6.4111,-6.468,-6.5004,-6.5339,-6.5673,-6.6306,-6.6239,-6.6306,-6.6473,-6.7544,-6.8271,-6.8001,-6.771,-6.7496,-6.7462,-6.7666,-6.7939,-6.9031,-6.9202,-6.9646,-7.0635,-7.0859,-7.0638,-7.0493,-7.0294,-7.0125,-6.9979,-6.992,-6.9658,-6.9692,-6.9725,-6.9718,-7.0,-7.0046,-6.9563,-6.7614,-6.7249,-6.7288,-4.6036,-4.5831,-4.534,-4.4925,-4.4402,-4.3898,-4.3558,-4.3175,-4.3175,-4.3386,-4.3597,-4.3935,-4.4196,-4.4196,-4.4847,-4.5865,-4.7235,-4.7815,-4.8932,-5.0439,-5.1389,-5.2018,-5.2514,-5.3367,-5.3925,-5.4223,-5.4646,-5.5005,-5.5294,-5.5516,-5.5551,-5.5372,-5.5152,-5.4968,-5.476,-5.3876,-5.3309,-5.3096,-5.3971,-5.434,-5.434,-5.4147,-5.402,-5.3991,-5.2621,-5.1943,-5.1914,-5.0692,-5.0023,-4.9965,-4.8802,-4.8016,-4.7987,-4.601,-4.4899,0.0,-4.377,0.0,0.0,0.0,0.0,0.0,0.0,0.0,0.0,-4.7428,-4.9967,-5.3628,-5.4137,-5.4438,-5.5162,-5.5708,-5.6034,-5.6174,-5.7709,-5.8784,-5.9013,-6.0323,-6.1803,-6.3445,-6.3875,-6.4637,-6.5904,-6.6239,-6.6239,-6.6148,-6.651,-6.6397,-6.5524,-6.6323,-6.7189,-6.7428,-6.7428,-6.7155,-6.7496,-6.7666,-6.7803,-6.7939,-6.8212,-6.7901,-6.7818,-6.7595,-6.7377,-6.715,-6.7131,-6.6943,-6.6809,-6.6997,-6.704,-6.7251,-6.7369,-6.7324,-6.7291,-6.7228,-6.7609,-4.5075,-4.487,-4.4406,-4.3014,-4.0876,-4.0671,-4.0696,-4.0799,-4.0824,-4.0901,-4.1207,-4.1308,-4.1815,-4.2526,-4.3578,-4.4561,-4.5577,-4.6149,-4.7034,-4.806,-4.9378,-5.0322,-5.081,-5.2221,-5.3136,-5.3699,-5.3894,-5.3832,-5.3503,-5.369,-5.3426,-5.2832,-5.2712,-5.262,-5.2591,-5.2266,-5.2325,-5.3132,-5.3545,-5.4012,-5.4599,-5.434,-5.3795,-5.2995,-5.2286,-5.1578,-5.0663,-4.9384,-4.8715,-4.8686,-4.6824,-4.5777,-4.5748,-4.3922,-4.2827,0.0,0.0,0.0,0.0,0.0,0.0,0.0,0.0,0.0,0.0,0.0,-4.6435,-4.9004,-5.1143,-5.291,-5.4012,-5.4466,-5.4742,-5.4818,-5.5668,-5.6326,-5.6592,-5.7401,-5.8385,-5.9372,-6.0394,-6.1345,-6.2305,-6.3075,-6.361,-6.3758,-6.3344,-6.3086,-6.3396,-6.4078,-6.4798,-6.4937,-6.4971,-6.4937,-6.4937,-6.5619,-6.6404,-6.7223,-6.7428,-6.7356,-6.7143,-6.6957,-6.6769,-6.6476,-6.6358,-6.6315,-6.6392,-6.6476,-6.6552,-6.6573,-6.5703,-6.4898,-6.5006,-6.5108,-6.521,-4.3423,-4.3091,-4.2421,-4.0491,-3.8006,-3.8006,-3.8131,-3.8458,-3.8433,-3.8634,-3.8933,-3.8933,-3.9578,-4.0701,-4.1964,-4.2935,-4.3708,-4.4375,-4.5089,-4.5812,-4.7455,-4.8469,-4.8924,-5.0501,-5.1623,-5.2311,-5.2506,-5.2395,-5.1896,-5.1866,-5.1577,-5.0809,-5.0068,-4.9772,-4.9859,-5.0273,-5.1015,-5.2206,-5.2625,-5.3311,-5.4378,-5.4154,-5.3522,-5.221,-5.1501,-5.0619,-4.9384,-4.8104,-4.7203,-4.6941,-4.5026,-4.3945,-4.3545,-4.2091,0.0,0.0,0.0,0.0,0.0,0.0,0.0,0.0,0.0,-4.028,-4.1863,0.0,-4.3262,0.0,-4.8038,-5.0553,-5.1766,-5.2502,0.0,0.0,-5.3779,-5.4242,-5.4689,-5.516,-5.5681,-5.6147,-5.7282,-5.8195,-5.8582,-5.9652,-6.0495,-6.0671,-5.9907,-5.9741,-6.1093,-6.1364,-6.1702,-6.221,-6.2312,-6.238,-6.2925,-6.3811,-6.4798,-6.606,-6.6231,-6.6194,-6.6017,-6.5834,-6.5688,-6.5399,-6.5317,-6.5242,-6.5291,-6.5432,-6.562,-6.5703,-6.432,-6.289,-6.2992,-6.3125,-6.3254,-3.9578,-3.923,-3.7713,-3.6817,-3.639,-3.6621,-3.6851,-3.7113,-3.7295,-3.7625,-3.7852,-3.803,-3.8256,-3.8353,-3.923,0.0,-4.1381,-4.2473,-4.3546,-4.4664,-4.5765,-4.6322,-4.6422,-4.7466,-4.8173,-4.8489,-4.9181,-4.9684,-5.0027,-5.018,-5.0363,-5.0513,-4.7722,-4.6353,-4.6722,-4.8292,-4.9229,-4.9348,-5.0743,-5.2086,-5.3373,-5.3098,-5.2825,-5.2371,-4.9891,-4.8338,-4.8017,-4.6766,-4.5515,-4.4468,-4.4015,-4.3188,-4.2034,0.0,0.0,0.0,0.0,0.0,0.0,0.0,0.0,0.0,0.0,0.0,0.0,0.0,0.0,-4.2844,-4.4969,0.0,-4.6752,-4.8296,0.0,0.0,0.0,-5.2023,-5.2685,-5.391,-5.5013,-5.5754,0.0,0.0,-5.674,-5.7251,-5.7522,-5.7522,-5.7557,-5.7657,-5.8089,-5.8288,-5.879,-6.0177,-6.0314,-6.0822,-6.1974,-6.2415,-6.2584,-6.2821,-6.2752,-6.2786,-6.2854,-6.268,-6.2472,-6.2536,-6.2259,-6.225,-6.2183,-6.2503,-6.2716,-6.2683,-6.2584,-6.2653,-6.2686,-6.2783,-6.298,-3.6314,-3.4059,-3.3384,-3.3083,-3.3026,-3.325,-3.3529,-3.3806,-3.4006,-3.4425,-3.4818,-3.4916,-3.5014,-3.5233,-3.5622,0.0,0.0,0.0,-3.9745,-4.0519,-4.2719,-4.3996,-4.4447,-4.5881,-4.7022,-4.7577,-4.7989,-4.816,-4.7999,-4.8089,-4.691,-4.4554,0.0,-4.365,-4.473,-4.5642,-4.7031,-4.8877,-4.9642,-5.0537,-5.1966,-5.1937,-5.1372,-5.0188,-4.8922,-4.7753,-4.6679,-4.5261,-4.4392,-4.39,-4.2265,-4.1043,0.0,0.0,0.0,0.0,0.0,0.0,0.0,0.0,0.0,0.0,0.0,-3.6326,-3.695,0.0,0.0,0.0,-4.1985,-4.3171,-4.4307,-4.5043,0.0,0.0,0.0,0.0,0.0,0.0,0.0,-5.1014,-5.2778,-5.4204,-5.4769,-5.4152,-5.409,-5.5218,-5.552,-5.6053,-5.7321,0.0,-5.7887,-5.8623,-5.879,-5.9027,-5.9603,-5.9704,-5.9704,-5.9704,-5.9704,-5.9909,-6.0687,-6.0753,-6.1021,-6.1654,-6.1852,-6.1852,-6.189,-6.0411,-5.9269,-5.9235,-5.9472,-5.9706,-5.9806,-6.0,-6.0257,-3.2439,0.0,0.0,0.0,0.0,-3.0258,-3.0557,-3.0833,-3.1052,-3.1423,-3.1813,-3.203,0.0,0.0,0.0,0.0,0.0,0.0,-3.6389,-3.6911,-3.9316,-4.0634,-4.1239,-4.2847,-4.392,-4.4625,-4.4999,-4.5045,-4.4772,-4.4567,-4.302,-4.0341,0.0,0.0,0.0,0.0,-4.518,-4.7468,-4.808,-4.8966,-5.0387,-5.0507,-4.9887,-4.8565,-4.8011,-4.6905,-4.5316,-4.4252,-4.3391,-4.256,-4.065,0.0,0.0,0.0,0.0,0.0,0.0,0.0,0.0,0.0,0.0,0.0,0.0,0.0,0.0,0.0,0.0,0.0,0.0,0.0,-4.1941,-4.2577,-4.2964,0.0,0.0,0.0,0.0,0.0,0.0,0.0,0.0,0.0,-5.1816,-5.1013,-5.1085,0.0,0.0,-5.4125,-5.5719,-5.5885,-5.6118,-5.6848,-5.698,0.0,-5.7586,-5.7619,-5.7653,-5.7619,-5.7619,-5.789,-5.8831,-5.9033,-5.93,-6.0198,-6.0433,-6.0399,-6.0198,-5.8352,-5.7085,-5.6951,-5.7188,-5.7356,-5.7456,-5.7685,-5.7943,0.0,0.0,0.0,0.0,-2.7561,0.0,0.0,0.0,-2.889,-2.9153,0.0,-2.9896,0.0,0.0,0.0,0.0,-3.2558,-3.3561,0.0,0.0,-3.5415,-3.5967,-3.6447,-3.7384,-3.7814,-3.8234,-3.9082,-3.9623,-3.9766,-3.9261,-3.9038,0.0,0.0,0.0,0.0,0.0,-4.3951,-4.4375,-4.5953,-4.7326,-4.8651,-4.868,-4.868,-4.8476,-4.7129,-4.5565,-4.3934,-4.3708,-4.2474,-3.9961,-3.9429,0.0,0.0,0.0,0.0,0.0,0.0,0.0,0.0,0.0,0.0,0.0,0.0,0.0,0.0,0.0,0.0,0.0,0.0,0.0,0.0,-4.087,0.0,0.0,0.0,0.0,0.0,0.0,0.0,0.0,0.0,-4.7653,-4.7308,-4.7761,-4.8854,-5.0984,0.0,0.0,0.0,0.0,-5.3033,-5.4523,-5.4689,-5.5287,-5.6717,-5.695,-5.6916,-5.6916,0.0,0.0,-5.7016,-5.7049,-5.7083,-5.7149,-5.7282,-5.6875,-5.6317,-5.6191,-5.6233,-5.6266,-5.6339,-5.661,-5.685,-5.6754,-5.7054,0.0,0.0,0.0,0.0,0.0,0.0,0.0,0.0,0.0,-2.5351,-2.5935,-2.6148,0.0,0.0,0.0,0.0,0.0,0.0,0.0,0.0,-3.3682,-3.4573,-3.5036,-3.5794,-3.6517,-3.7,-3.7441,-3.6055,0.0,0.0,0.0,0.0,0.0,0.0,0.0,0.0,-4.2388,-4.3737,-4.5366,-4.6433,-4.707,-4.7296,-4.7267,-4.7099,-4.6379,-4.52,-4.3492,-4.1697,-4.0284,0.0,0.0,0.0,0.0,0.0,0.0,0.0,0.0,0.0,0.0,0.0,0.0,0.0,0.0,0.0,0.0,0.0,0.0,0.0,0.0,0.0,0.0,0.0,-3.822,0.0,0.0,0.0,0.0,0.0,0.0,0.0,0.0,0.0,-4.383,-4.5057,-4.6772,-4.8854,-4.9219,-4.9812,-5.1322,0.0,0.0,0.0,0.0,0.0,0.0,0.0,-5.3529,-5.3529,-5.3394,-5.3294,-5.3294,-5.4081,-5.5135,-5.6054,0.0,0.0,-5.2785,-5.2391,-5.2494,-5.2462,-5.2641,-5.2785,-5.2854,-5.3263,-5.3729,0.0,0.0,0.0,0.0,0.0,0.0,0.0,0.0,0.0,-2.1744,-2.2322,0.0,0.0,0.0,0.0,0.0,0.0,0.0,0.0,0.0,0.0,0.0,-3.1807,-3.2581,0.0,0.0,0.0,0.0,0.0,0.0,0.0,0.0,0.0,0.0,0.0,0.0,-4.064,-4.2478,-4.4149,-4.5319,-4.5894,-4.609,-4.612,-4.5894,-4.5319,-4.4462,-4.3298,0.0,0.0,0.0,0.0,0.0,0.0,0.0,0.0,0.0,0.0,0.0,0.0,0.0,0.0,0.0,0.0,0.0,0.0,0.0,0.0,0.0,0.0,0.0,0.0,0.0,-3.5176,0.0,0.0,0.0,0.0,0.0,0.0,0.0,0.0,0.0,0.0,-4.253,-4.4299,-4.6331,-4.7275,-4.8292,-4.9732,-5.0484,-5.0944,0.0,0.0,0.0,0.0,0.0,0.0,0.0,0.0,0.0,0.0,0.0,0.0,0.0,-5.3366,-5.2072,-4.961,-4.9529,-4.9845,-4.9917,0.0,0.0,0.0,0.0,0.0,0.0,0.0,0.0,0.0,0.0,0.0,0.0,0.0,0.0,0.0,-1.8819,0.0,0.0,-2.0108,0.0,0.0,0.0,0.0,0.0,0.0,0.0,0.0,0.0,0.0,0.0,0.0,0.0,0.0,0.0,0.0,0.0,0.0,0.0,0.0,0.0,0.0,-3.88,-4.0587,-4.2345,-4.3901,-4.5186,-4.5214,-4.5329,-4.53,-4.3901,-4.3107,-4.305,0.0,0.0,0.0,0.0,0.0,0.0,0.0,0.0,0.0,0.0,0.0,0.0,0.0,0.0,0.0,0.0,0.0,0.0,0.0,0.0,0.0,0.0,0.0,0.0,0.0,0.0,-3.4235,-3.4706,-3.5145,0.0,0.0,0.0,0.0,0.0,0.0,0.0,0.0,0.0,-4.3601,-4.5489,-4.6929,-4.7496,-4.8906,-4.9935,-5.0173,-5.0276,-5.0308,-5.0308,-5.0308,-5.034,0.0,0.0,0.0,0.0,0.0,0.0,0.0,0.0,0.0,0.0,0.0,0.0,0.0,0.0,0.0,0.0,0.0,0.0,0.0,0.0,0.0,0.0,0.0,0.0,0.0,0.0,0.0,0.0,0.0,-1.8014,0.0,0.0,0.0,0.0,0.0,0.0,0.0,0.0,0.0,0.0,0.0,0.0,0.0,0.0,0.0,0.0,0.0,0.0,0.0,0.0,0.0,0.0,0.0,0.0,-3.7556,-3.9378,-4.1455,-4.308,-4.4258,-4.4609,-4.4783,-4.4726,-4.328,-4.2071,0.0,0.0,0.0,0.0,0.0,0.0,0.0,0.0,0.0,0.0,0.0,0.0,0.0,0.0,0.0,0.0,0.0,0.0,0.0,0.0,0.0,0.0,0.0,0.0,0.0,0.0,0.0,0.0,-3.2446,-3.3065,-3.4419,0.0,0.0,0.0,0.0,0.0,0.0,0.0,0.0,0.0,0.0,-4.3572,-4.5087,-4.6599,-4.7582,-4.7862,-4.8779,-4.9416,-4.9342,-4.9299,-4.9256,-4.9256,0.0,0.0,0.0,0.0,0.0,0.0,0.0,0.0,0.0,0.0,0.0,0.0,0.0,0.0,0.0,0.0,0.0,0.0,0.0,0.0,0.0,0.0,0.0,0.0,0.0,0.0,0.0,0.0,0.0,0.0,0.0,0.0,0.0,0.0,0.0,0.0,0.0,0.0,0.0,0.0,0.0,0.0,0.0,0.0,0.0,0.0,0.0,0.0,0.0,0.0,0.0,0.0,0.0,-3.6112,-3.8308,-4.0112,-4.1718,-4.3402,-4.3815,-4.377,-4.3296,-4.1784,-4.0316,0.0,0.0,0.0,0.0,0.0,0.0,0.0,0.0,0.0,0.0,0.0,0.0,0.0,0.0,0.0,0.0,0.0,0.0,0.0,0.0,0.0,0.0,0.0,0.0,0.0,0.0,0.0,0.0,-3.0393,-3.1201,-3.2457,0.0,0.0,0.0,0.0,0.0,0.0,0.0,0.0,0.0,0.0,-4.1199,-4.2537,-4.4135,0.0,0.0,-4.6201,-4.6796,-4.6796,-4.6722,-4.6678,-4.6678,-4.59,0.0,0.0,0.0,0.0,0.0,0.0,0.0,0.0,0.0,0.0,0.0,0.0,0.0,0.0,0.0,0.0,0.0,0.0,0.0,0.0,0.0,0.0,0.0,0.0,0.0,0.0,0.0,0.0,0.0,0.0,0.0,0.0,0.0,0.0,0.0,0.0,0.0,0.0,0.0,0.0,0.0,0.0,0.0,0.0,0.0,0.0,0.0,0.0,0.0,0.0,0.0,0.0,-3.4339,-3.7233,-3.8308,-3.9973,-4.2423,-4.2886,-4.246,-4.1348,-3.9662,-3.8309,0.0,0.0,0.0,0.0,0.0,0.0,0.0,0.0,0.0,0.0,0.0,0.0,0.0,0.0,0.0,0.0,0.0,0.0,0.0,0.0,0.0,0.0,0.0,0.0,0.0,0.0,0.0,0.0,0.0,0.0,0.0,0.0,0.0,0.0,0.0,0.0,0.0,0.0,0.0,0.0,0.0,-3.9576,-3.9945,-4.1646,-4.2845,0.0,-4.3127,-4.3201,-4.3231,-4.3364,-4.3274,-4.3334,0.0,0.0,0.0,0.0,0.0,0.0,0.0,0.0,0.0,0.0,0.0,0.0,0.0,0.0,0.0,0.0,0.0,0.0,0.0,0.0,0.0,0.0,0.0,0.0,0.0,0.0,0.0,0.0,0.0,0.0,0.0,0.0,0.0,0.0,0.0,0.0,0.0,0.0,0.0,0.0,0.0,0.0,0.0,0.0,0.0,0.0,0.0,0.0,0.0,0.0,0.0,0.0,0.0,0.0,-3.497,-3.6678,-3.8433,-4.0116,-4.1381,-4.1459,-4.0378,-3.8742,0.0,0.0,0.0,0.0,0.0,0.0,0.0,0.0,0.0,0.0,0.0,0.0,0.0,0.0,0.0,0.0,0.0,0.0,0.0,0.0,0.0,0.0,0.0,0.0,0.0,0.0,0.0,-2.4089,0.0,0.0,0.0,0.0,0.0,0.0,0.0,0.0,0.0,0.0,0.0,0.0,0.0,0.0,-3.7107,-3.7802,-3.9151,-4.0284,0.0,0.0,-4.2314,-4.2437,-4.2513,-4.2437,0.0,0.0,0.0,0.0,0.0,0.0,0.0,0.0,0.0,0.0,0.0,0.0,0.0,0.0,0.0,0.0,0.0,0.0,0.0,0.0,0.0,0.0,0.0,0.0,0.0,0.0,0.0,0.0,0.0,0.0,0.0,0.0,0.0,0.0,0.0,0.0,0.0,0.0,0.0,0.0,0.0,0.0,0.0,0.0,0.0,0.0,0.0,0.0,0.0,0.0,0.0,0.0,0.0,0.0,-3.1041,-3.3438,-3.5469,-3.7203,-3.8622,-4.0074,-4.0149,-3.8656,-3.7537,-3.6172,0.0,0.0,0.0,0.0,0.0,0.0,0.0,0.0,0.0,0.0,0.0,0.0,0.0,0.0,0.0,0.0,0.0,0.0,0.0,0.0,0.0,0.0,0.0,0.0,0.0,0.0,0.0,0.0,0.0,0.0,0.0,0.0,0.0,0.0,0.0,0.0,0.0,0.0,0.0,0.0,0.0,0.0,-3.6242,-3.7199,0.0,0.0,0.0,-3.9781,-3.9799,0.0,0.0,0.0,0.0,0.0,0.0,0.0,0.0,0.0,0.0,0.0,0.0,0.0,0.0,0.0,0.0,0.0,0.0,0.0,0.0,0.0,0.0,0.0,0.0,0.0,0.0,0.0,0.0,0.0,0.0,0.0,0.0,0.0,0.0,0.0,0.0,0.0,0.0,0.0,0.0,0.0,0.0,0.0,0.0,0.0,0.0,0.0,0.0,0.0,0.0,0.0,0.0,0.0,0.0,0.0,0.0,0.0,-3.2069,-3.4286,-3.5974,-3.7392,-3.8696,-3.8553,-3.6657,-3.6097,-3.4808,0.0,0.0,0.0,0.0,0.0,0.0,0.0,0.0,0.0,0.0,0.0,0.0,0.0,0.0,0.0,0.0,0.0,0.0,0.0,0.0,0.0,0.0,0.0,0.0,0.0,0.0,0.0,0.0,0.0,0.0,0.0,0.0,0.0,0.0,0.0,0.0,0.0,0.0,0.0,0.0,0.0,-3.4471,-3.5124,-3.5559,-3.581,0.0,0.0,-3.6587,-3.6587,-3.6808,0.0,0.0,0.0,0.0,0.0,0.0,0.0,0.0,0.0,0.0,0.0,0.0,0.0,0.0,0.0,0.0,0.0,0.0,0.0,0.0,0.0,0.0,0.0,0.0,0.0,0.0,0.0,0.0,0.0,0.0,0.0,0.0,0.0,0.0,0.0,0.0,0.0,0.0,0.0,0.0,0.0,0.0,0.0,0.0,0.0,0.0,0.0,0.0,0.0,0.0,0.0,0.0,0.0,0.0,0.0,0.0,-2.999,-3.1866,-3.3578,-3.5161,-3.5825,-3.603,-3.5661,-3.4597,-3.3259,0.0,0.0,0.0,0.0,0.0,0.0,0.0,0.0,0.0,0.0,0.0,0.0,0.0,0.0,0.0,0.0,0.0,0.0,0.0,0.0,0.0,0.0,0.0,0.0,0.0,0.0,0.0,0.0,0.0,0.0,0.0,0.0,0.0,0.0,0.0,0.0,0.0,0.0,0.0,0.0,0.0,-3.3432,-3.4154,-3.4366,0.0,0.0,0.0,0.0,-3.5734,-3.6016,0.0,0.0,0.0,0.0,0.0,0.0,0.0,0.0,0.0,0.0,0.0,0.0,0.0,0.0,0.0,0.0,0.0,0.0,0.0,0.0,0.0,0.0,0.0,0.0,0.0,0.0,0.0,0.0,0.0,0.0,0.0,0.0,0.0,0.0,0.0,0.0,0.0,0.0,0.0,0.0,0.0,0.0,0.0,0.0,0.0,0.0,0.0,0.0,0.0,0.0,0.0,0.0,0.0,0.0,0.0,0.0,-2.8414,-3.0373,-3.1782,-3.275,-3.3845,-3.4265,-3.3788,-3.315,-3.2166,0.0,0.0,0.0,0.0,0.0,0.0,0.0,0.0,0.0,0.0,0.0,0.0,0.0,0.0,0.0,0.0,0.0,0.0,0.0,0.0,0.0,0.0,0.0,0.0,0.0,0.0,0.0,0.0,0.0,0.0,0.0,0.0,0.0,0.0,0.0,0.0,0.0,0.0,0.0,0.0,-3.2282,-3.2696,-3.3351,0.0,0.0,0.0,0.0,0.0,0.0,-3.5201,-3.5383,0.0,0.0,0.0,0.0,0.0,0.0,0.0,0.0,0.0,0.0,0.0,0.0,0.0,0.0,0.0,0.0,0.0,0.0,0.0,0.0,0.0,0.0,0.0,0.0,0.0,0.0,0.0,0.0,0.0,0.0,0.0,0.0,0.0,0.0,0.0,0.0,0.0,0.0,0.0,0.0,0.0,0.0,0.0,0.0,0.0,0.0,0.0,0.0,0.0,0.0,0.0,0.0,0.0,0.0,0.0,-2.7353,-2.8938,-3.0085,-3.0633,-3.1981,-3.2378,-3.1805,-3.1621,-3.0868,-2.9471,0.0,0.0,0.0,0.0,0.0,0.0,0.0,0.0,0.0,0.0,0.0,0.0,0.0,0.0,0.0,0.0,0.0,0.0,0.0,0.0,0.0,0.0,0.0,0.0,0.0,0.0,0.0,0.0,0.0,0.0,0.0,0.0,0.0,0.0,0.0,0.0,0.0,0.0,0.0,-3.1551,-3.2115,0.0,0.0,0.0,0.0,0.0,0.0,0.0,0.0,-3.4602,0.0,0.0,0.0,0.0,0.0,0.0,0.0,0.0,0.0,0.0,0.0,0.0,0.0,0.0,0.0,0.0,0.0,0.0,0.0,0.0,0.0,0.0,0.0,0.0,0.0,0.0,0.0,0.0,0.0,0.0,0.0,0.0,0.0,0.0,0.0,0.0,0.0,0.0,0.0,0.0,0.0,0.0,0.0,0.0,0.0,0.0,0.0,0.0,0.0,0.0,0.0,0.0,0.0,0.0,0.0,0.0,-2.6762,-2.7956,-2.9632,-2.9166,-2.9328,-3.0425,-2.954,-2.8286,-2.6619,0.0,0.0,0.0,0.0,0.0,0.0,0.0,0.0,0.0,0.0,0.0,0.0,0.0,0.0,0.0,0.0,0.0,0.0,0.0,0.0,0.0,0.0,0.0,0.0,0.0,0.0,0.0,0.0,0.0,0.0,0.0,0.0,0.0,0.0,0.0,0.0,0.0,0.0,-2.9631,-3.0415,0.0,0.0,0.0,0.0,0.0,0.0,0.0,0.0,-3.3644,0.0,0.0,0.0,0.0,0.0,0.0,0.0,0.0,0.0,0.0,0.0,0.0,0.0,0.0,0.0,0.0,0.0,0.0,0.0,0.0,0.0,0.0,0.0,0.0,0.0,0.0,0.0,0.0,0.0,0.0,0.0,0.0,0.0,0.0,0.0,0.0,0.0,0.0,0.0,0.0,0.0,0.0,0.0,0.0,0.0,0.0,0.0,0.0,0.0,0.0,0.0,0.0,0.0,0.0,0.0,0.0,0.0,0.0,-2.6057,-2.6999,-2.7142,-2.751,-2.807,-2.7326,-2.6306,0.0,0.0,0.0,0.0,0.0,0.0,0.0,0.0,0.0,0.0,0.0,0.0,0.0,0.0,0.0,0.0,0.0,0.0,0.0,0.0,0.0,0.0,0.0,0.0,0.0,0.0,0.0,0.0,0.0,0.0,0.0,0.0,0.0,0.0,0.0,0.0,0.0,0.0,0.0,0.0,0.0,0.0,0.0,0.0,0.0,0.0,0.0,0.0,0.0,0.0,0.0,0.0,0.0,0.0,0.0,0.0,0.0,0.0,0.0,0.0,0.0,0.0,0.0,0.0,0.0,0.0,0.0,0.0,0.0,0.0,0.0,0.0,0.0,0.0,0.0,0.0,0.0,0.0,0.0,0.0,0.0,0.0,0.0,0.0,0.0,0.0,0.0,0.0,0.0,0.0,0.0,0.0,0.0,0.0,0.0,0.0,0.0,0.0,0.0,0.0,0.0,0.0,0.0,0.0,0.0,0.0,0.0,0.0,-2.4433,-2.4641,-2.5526,-2.6012,-2.6012,-2.5377,-2.4711,0.0,0.0,0.0,0.0,0.0,0.0,0.0,0.0,0.0,0.0,0.0,0.0,0.0,0.0,0.0,0.0,0.0,0.0,0.0,0.0,0.0,0.0,0.0,0.0,0.0,0.0,0.0,0.0,0.0,0.0,0.0,0.0,0.0,0.0,0.0,0.0,0.0,0.0,0.0,0.0,0.0,0.0,0.0,0.0,0.0,0.0,0.0,0.0,-3.2248,0.0,0.0,0.0,0.0,0.0,0.0,0.0,0.0,0.0,0.0,0.0,0.0,0.0,0.0,0.0,0.0,0.0,0.0,0.0,0.0,0.0,0.0,0.0,0.0,0.0,0.0,0.0,0.0,0.0,0.0,0.0,0.0,0.0,0.0,0.0,0.0,0.0,0.0,0.0,0.0,0.0,0.0,0.0,0.0,0.0,0.0,0.0,0.0,0.0,0.0,0.0,0.0,0.0,0.0,0.0,0.0,0.0,0.0,0.0,-2.3184,-2.3666,-2.4241,-2.464,-2.4811,-2.4545,-2.3634,0.0,0.0,0.0,0.0,0.0,0.0,0.0,0.0,0.0,0.0,0.0,0.0,0.0,0.0,0.0,0.0,0.0,0.0,0.0,0.0,0.0,0.0,0.0,0.0,0.0,0.0,0.0,0.0,0.0,0.0,0.0,0.0,0.0,0.0,0.0,0.0,0.0,0.0,0.0,0.0,0.0,0.0,0.0,0.0,0.0,0.0,0.0,0.0,0.0,0.0,0.0,0.0,0.0,0.0,0.0,0.0,0.0,0.0,0.0,0.0,0.0,0.0,0.0,0.0,0.0,0.0,0.0,0.0,0.0,0.0,0.0,0.0,0.0,0.0,0.0,0.0,0.0,0.0,0.0,0.0,0.0,0.0,0.0,0.0,0.0,0.0,0.0,0.0,0.0,0.0,0.0,0.0,0.0,0.0,0.0,0.0,0.0,0.0,0.0,0.0,0.0,0.0,0.0,0.0,0.0,0.0,0.0,0.0,-2.1902,-2.2196,-2.2991,-2.3184,-2.27,-2.2744,-2.2153,0.0,0.0,0.0,0.0,0.0,0.0,0.0,0.0,0.0,0.0,0.0,0.0,0.0,0.0,0.0,0.0,0.0,0.0,0.0,0.0,0.0,0.0,0.0,0.0,0.0,0.0,0.0,0.0,0.0,0.0,0.0,0.0,0.0,0.0,0.0,0.0,0.0,0.0,0.0,0.0,0.0,0.0,0.0,0.0,0.0,0.0,0.0,0.0,0.0,0.0,0.0,0.0,0.0,0.0,0.0,0.0,0.0,0.0,0.0,0.0,0.0,0.0,0.0,0.0,0.0,0.0,0.0,0.0,0.0,0.0,0.0,0.0,0.0,0.0,0.0,0.0,0.0,0.0,0.0,0.0,0.0,0.0,0.0,0.0,0.0,0.0,0.0,0.0,0.0,0.0,0.0,0.0,0.0,0.0,0.0,0.0,0.0,0.0,0.0,0.0,0.0,0.0,0.0,0.0,0.0,0.0,0.0,0.0,0.0,-2.0735,-2.151,-2.151,-2.0818,-2.1075,-2.0803,0.0,0.0,0.0,0.0,0.0,0.0,0.0,0.0,0.0,0.0,0.0,0.0,0.0,0.0,0.0,0.0,0.0,0.0,0.0,0.0,0.0,0.0,0.0,0.0,0.0,0.0,0.0,0.0,0.0,0.0,0.0,0.0,0.0,0.0,0.0,0.0,0.0,0.0,0.0,0.0,0.0,0.0,0.0,0.0,0.0,0.0,0.0,0.0,0.0,0.0,0.0,0.0,0.0,0.0,0.0,0.0,0.0,0.0,0.0,0.0,0.0,0.0,0.0,0.0,0.0,0.0,0.0,0.0,0.0,0.0,0.0,0.0,0.0,0.0,0.0,0.0,0.0,0.0,0.0,0.0,0.0,0.0,0.0,0.0,0.0,0.0,0.0,0.0,0.0,0.0,0.0,0.0,0.0,0.0,0.0,0.0,0.0,0.0,0.0,0.0,0.0,0.0,0.0,0.0,0.0,0.0,0.0,0.0,0.0,-1.9522,-1.9637,-1.9637,-1.9522,-1.9931,-1.9703,0.0,0.0,0.0,0.0,0.0,0.0,0.0,0.0,0.0,0.0,0.0,0.0,0.0,0.0,0.0,0.0,0.0,0.0,0.0,0.0,0.0,0.0,0.0,0.0,0.0,0.0,0.0,0.0,0.0,0.0,0.0,0.0,0.0,0.0,0.0,0.0,0.0,0.0,0.0,0.0,0.0,0.0,0.0,0.0,0.0,0.0,0.0,0.0,0.0,0.0,0.0,0.0,0.0,0.0,0.0,0.0,0.0,0.0,0.0,0.0,0.0,0.0,0.0,0.0,0.0,0.0,0.0,0.0,0.0,0.0,0.0,0.0,0.0,0.0,0.0,0.0,0.0,0.0,0.0,0.0,0.0,0.0,0.0,0.0,0.0,0.0,0.0,0.0,0.0,0.0,0.0,0.0,0.0,0.0,0.0,0.0,0.0,0.0,0.0,0.0,0.0,0.0,0.0,0.0,0.0,0.0,0.0,0.0,0.0,-1.7544,-1.8117,-1.8431,-1.8231,-1.837,-1.815,-1.765,0.0,0.0,0.0,0.0,0.0,0.0,0.0,0.0,0.0,0.0,0.0,0.0,0.0,0.0,0.0,0.0,0.0,0.0,0.0,0.0,0.0,0.0,0.0,0.0,0.0,0.0,0.0,0.0,0.0,0.0,0.0,0.0,0.0,0.0,0.0,0.0,0.0,0.0,0.0,0.0,0.0,0.0,0.0,0.0,0.0,0.0,0.0,0.0,0.0,0.0,0.0,0.0,0.0,0.0,0.0,0.0,0.0,0.0,0.0,0.0,0.0,0.0,0.0,0.0,0.0,0.0,0.0,0.0,0.0,0.0,0.0,0.0,0.0,0.0,0.0,0.0,0.0,0.0,0.0,0.0,0.0,0.0,0.0,0.0,0.0,0.0,0.0,0.0,0.0,0.0,0.0,0.0,0.0,0.0,0.0,0.0,0.0,0.0,0.0,0.0,0.0,0.0,0.0,0.0,0.0,0.0,0.0,0.0,-1.6134,-1.682,-1.7136,-1.6925,-1.6882,-1.6694,0.0,0.0,0.0,0.0,0.0,0.0,0.0,0.0,0.0,0.0,0.0,0.0,0.0,0.0,0.0,0.0,0.0,0.0,0.0,0.0,0.0,0.0,0.0,0.0,0.0,0.0,0.0,0.0,0.0,0.0,0.0,0.0,0.0,0.0,0.0,0.0,0.0,0.0,0.0,0.0,0.0,0.0,0.0,0.0,0.0,0.0,0.0,0.0,0.0,0.0,0.0,0.0,0.0,0.0,0.0,0.0,0.0,0.0,0.0,0.0,0.0,0.0,0.0,0.0,0.0,0.0,0.0,0.0,0.0,0.0,0.0,0.0,0.0,0.0,0.0,0.0,0.0,0.0,0.0,0.0,0.0,0.0,0.0,0.0,0.0,0.0,0.0,0.0,0.0,0.0,0.0,0.0,0.0,0.0,0.0,0.0,0.0,0.0,0.0,0.0,0.0,0.0,0.0,0.0,0.0,0.0,0.0,0.0,-1.545,-1.5573,-1.5867,-1.5927,-1.5585,-1.5503,-1.5612,0.0,0.0,0.0,0.0,0.0,0.0,0.0,0.0,0.0,0.0,0.0,0.0,0.0,0.0,0.0,0.0,0.0,0.0,0.0,0.0,0.0,0.0,0.0,0.0,0.0,0.0,0.0,0.0,0.0,0.0,0.0,0.0,0.0,0.0,0.0,0.0,0.0,0.0,0.0,0.0,0.0,0.0,0.0,0.0,0.0,0.0,0.0,0.0,0.0,0.0,0.0,0.0,0.0,0.0,0.0,0.0,0.0,0.0,0.0,0.0,0.0,0.0,0.0,0.0,0.0,0.0,0.0,0.0,0.0,0.0,0.0,0.0,0.0,0.0,0.0,0.0,0.0,0.0,0.0,0.0,0.0,0.0,0.0,0.0,0.0,0.0,0.0,0.0,0.0,0.0,0.0,0.0,0.0,0.0,0.0,0.0,0.0,0.0,0.0,0.0,0.0,0.0,0.0,0.0,0.0,0.0,0.0,0.0,0.0,-1.5058,0.0,-1.5586,-1.4976,-1.5218,-1.5117,0.0,0.0,0.0,0.0,0.0,0.0,0.0,0.0,0.0,0.0,0.0,0.0,0.0,0.0,0.0,0.0,0.0,0.0,0.0,0.0,0.0,0.0,0.0,0.0,0.0,0.0,0.0,0.0,0.0,0.0,0.0,0.0,0.0,0.0,0.0,0.0,0.0,0.0,0.0,0.0,0.0,0.0,0.0,0.0,0.0,0.0,0.0,0.0,0.0,0.0,0.0,0.0,0.0,0.0,0.0,0.0,0.0,0.0,0.0,0.0,0.0,0.0,0.0,0.0,0.0,0.0,0.0,0.0,0.0,0.0,0.0,0.0,0.0,0.0,0.0,0.0,0.0,0.0,0.0,0.0,0.0,0.0,0.0,0.0,0.0,0.0,0.0,0.0,0.0,0.0,0.0,0.0,0.0,0.0,0.0,0.0,0.0,0.0,0.0,0.0,0.0,0.0,0.0,0.0,0.0,0.0,0.0,0.0,0.0,-1.4734,-1.5099,-1.5068,-1.451,-1.4553,-1.4473,0.0,0.0,0.0,0.0,0.0,0.0,0.0,0.0,0.0,0.0,0.0,0.0,0.0,0.0,0.0,0.0,0.0,0.0,0.0,0.0,0.0,0.0,0.0,0.0,0.0,0.0,0.0,0.0,0.0,0.0,0.0,0.0,0.0,0.0,0.0,0.0,0.0,0.0,0.0,0.0,0.0,0.0,0.0,0.0,0.0,0.0,0.0,0.0,0.0,0.0,0.0,0.0,0.0,0.0,0.0,0.0,0.0,0.0,0.0,0.0,0.0,0.0,0.0,0.0,0.0,0.0,0.0,0.0,0.0,0.0,0.0,0.0,0.0,0.0,0.0,0.0,0.0,0.0,0.0,0.0,0.0,0.0,0.0,0.0,0.0,0.0,0.0,0.0,0.0,0.0,0.0,0.0,0.0,0.0,0.0,0.0,0.0,0.0,0.0,0.0,0.0,0.0,0.0,0.0,0.0,0.0,0.0,0.0,0.0,-1.4597,-1.4366,-1.4197,-1.422,-1.3739,-1.378,0.0,0.0,0.0,0.0,0.0,0.0,0.0,0.0,0.0,0.0,0.0,0.0,0.0,0.0,0.0,0.0,0.0,0.0,0.0,0.0,0.0,0.0,0.0,0.0,0.0,0.0,0.0,0.0,0.0,0.0,0.0,0.0,0.0,0.0,0.0,0.0,0.0,0.0,0.0,0.0,0.0,0.0,0.0,0.0,0.0,0.0,0.0,0.0,0.0,0.0,0.0,0.0,0.0,0.0,0.0,0.0,0.0,0.0,0.0,0.0,0.0,0.0,0.0,0.0,0.0,0.0,0.0,0.0,0.0,0.0,0.0,0.0,0.0,0.0,0.0,0.0,0.0,0.0,0.0,0.0,0.0,0.0,0.0,0.0,0.0,0.0,0.0,0.0,0.0,0.0,0.0,0.0,0.0,0.0,0.0,0.0,0.0,0.0,0.0,0.0,0.0,0.0,0.0,0.0,0.0,0.0,0.0,0.0,0.0,0.0,-1.4486,-1.4455,-1.4501,-1.4306,-1.417,-1.3956,0.0,0.0,0.0,0.0,0.0,0.0,0.0,0.0,0.0,0.0,0.0,0.0,0.0,0.0,0.0,0.0,0.0,0.0,0.0,0.0,0.0,0.0,0.0,0.0,0.0,0.0,0.0,0.0,0.0,0.0,0.0,0.0,0.0,0.0,0.0,0.0,0.0,0.0,0.0,0.0,0.0,0.0,0.0,0.0,0.0,0.0,0.0,0.0,0.0,0.0,0.0,0.0,0.0,0.0,0.0,0.0,0.0,0.0,0.0,0.0,0.0,0.0,0.0,0.0,0.0,0.0,0.0,0.0,0.0,0.0,0.0,0.0,0.0,0.0,0.0,0.0,0.0,0.0,0.0,0.0,0.0,0.0,0.0,0.0,0.0,0.0,0.0,0.0,0.0,0.0,0.0,0.0,0.0,0.0,0.0,0.0,0.0,0.0,0.0,0.0,0.0,0.0,0.0,0.0,0.0,0.0,0.0,0.0,0.0,0.0,-1.441,-1.4421,-1.4625,-1.4501,0.0,0.0,0.0,0.0,0.0,0.0,0.0,0.0,0.0,0.0,0.0,0.0,0.0,0.0,0.0,0.0,0.0,0.0,0.0,0.0,0.0,0.0,0.0,0.0,0.0,0.0,0.0,0.0,0.0,0.0,0.0,0.0,0.0,0.0,0.0,0.0,0.0,0.0,0.0,0.0,0.0,0.0,0.0,0.0,0.0,0.0,0.0,0.0,0.0,0.0,0.0,0.0,0.0,0.0,0.0,0.0,0.0,0.0,0.0,0.0,0.0,0.0,0.0,0.0,0.0,0.0,0.0,0.0,0.0,0.0,0.0,0.0,0.0,0.0,0.0,0.0,0.0,0.0,0.0,0.0,0.0,0.0,0.0,0.0,0.0,0.0,0.0,0.0,0.0,0.0,0.0,0.0,0.0,0.0,0.0,0.0,0.0,0.0,0.0,0.0,0.0,0.0,0.0,0.0,0.0,0.0,0.0,0.0,0.0,0.0,0.0,-1.4212,-1.4107,-1.4608,0.0,-1.4303,0.0,0.0,0.0,0.0,0.0,0.0,0.0,0.0,0.0,0.0,0.0,0.0,0.0,0.0,0.0,0.0,0.0,0.0,0.0,0.0,0.0,0.0,0.0,0.0,0.0,0.0,0.0,0.0,0.0,0.0,0.0,0.0,0.0,0.0,0.0,0.0,0.0,0.0,0.0,0.0,0.0,0.0,0.0,0.0,0.0,0.0,0.0,0.0,0.0,0.0,0.0,0.0,0.0,0.0,0.0,0.0,0.0,0.0,0.0,0.0,0.0,0.0,0.0,0.0,0.0,0.0,0.0,0.0,0.0,0.0,0.0,0.0,0.0,0.0,0.0,0.0,0.0,0.0,0.0,0.0,0.0,0.0,0.0,0.0,0.0,0.0,0.0,0.0,0.0,0.0,0.0,0.0,0.0,0.0,0.0,0.0,0.0,0.0,0.0,0.0,0.0,0.0,0.0,0.0,0.0,0.0,0.0,0.0,0.0,0.0,0.0,0.0,-1.4399,-1.4611,-1.4478,0.0,0.0,0.0,0.0,0.0,0.0,0.0,0.0,0.0,0.0,0.0,0.0,0.0,0.0,0.0,0.0,0.0,0.0,0.0,0.0,0.0,0.0,0.0,0.0,0.0,0.0,0.0,0.0,0.0,0.0,0.0,0.0,0.0,0.0,0.0,0.0,0.0,0.0,0.0,0.0,0.0,0.0,0.0,0.0,0.0,0.0,0.0,0.0,0.0,0.0,0.0,0.0,0.0,0.0,0.0,0.0,0.0,0.0,0.0,0.0,0.0,0.0,0.0,0.0,0.0,0.0,0.0,0.0,0.0,0.0,0.0,0.0,0.0,0.0,0.0,0.0,0.0,0.0,0.0,0.0,0.0,0.0,0.0,0.0,0.0,0.0,0.0,0.0,0.0,0.0,0.0,0.0,0.0,0.0,0.0,0.0,0.0,0.0,0.0,0.0,0.0,0.0,0.0,0.0,0.0,0.0,0.0,0.0,0.0,0.0,-1.3866,-1.3876,-1.4295,-1.4619,-1.4597,0.0,0.0,0.0,0.0,0.0,0.0,0.0,0.0,0.0,0.0,0.0,0.0,0.0,0.0,0.0,0.0,0.0,0.0,0.0,0.0,0.0,0.0,0.0,0.0,0.0,0.0,0.0,0.0,0.0,0.0,0.0,0.0,0.0,0.0,0.0,0.0,0.0,0.0,0.0,0.0,0.0,0.0,0.0,0.0,0.0,0.0,0.0,0.0,0.0,0.0,0.0,0.0,0.0,0.0,0.0,0.0,0.0,0.0,0.0,0.0,0.0,0.0,0.0,0.0,0.0,0.0,0.0,0.0,0.0,0.0,0.0,0.0,0.0,0.0,0.0,0.0,0.0,0.0,0.0,0.0,0.0,0.0,0.0,0.0,0.0,0.0,0.0,0.0,0.0,0.0,0.0,0.0,0.0,0.0,0.0,0.0,0.0,0.0,0.0,0.0,0.0,0.0,0.0,0.0,0.0,0.0,0.0,0.0,0.0,0.0,0.0,0.0,0.0,0.0,-1.4597,0.0,0.0,0.0,0.0,0.0,0.0,0.0,0.0,0.0,0.0,0.0,0.0,0.0,0.0,0.0,0.0,0.0,0.0,0.0,0.0,0.0,0.0,0.0,0.0,0.0,0.0,0.0,0.0,0.0,0.0,0.0,0.0,0.0,0.0,0.0,0.0,0.0,0.0,0.0,0.0,0.0,0.0,0.0,0.0,0.0,0.0,0.0,0.0,0.0,0.0,0.0,0.0,0.0,0.0,0.0,0.0,0.0,0.0,0.0,0.0,0.0,0.0,0.0,0.0,0.0,0.0,0.0,0.0,0.0,0.0,0.0,0.0,0.0,0.0,0.0,0.0,0.0,0.0,0.0,0.0,0.0,0.0,0.0,0.0,0.0,0.0,0.0,0.0,0.0,0.0,0.0,0.0,0.0,0.0,0.0,0.0,0.0,0.0,0.0,0.0,0.0,0.0,0.0,0.0,0.0,0.0,0.0,0.0,0.0,0.0,0.0,0.0,0.0,0.0,0.0,0.0,0.0,0.0,0.0,0.0,0.0,0.0,0.0,0.0,0.0,0.0,0.0,0.0,0.0,0.0,0.0,0.0,0.0,0.0,0.0,0.0,0.0,0.0,0.0,0.0,0.0,0.0,0.0,0.0,0.0,0.0,0.0,0.0,0.0,0.0,0.0,0.0,0.0,0.0,0.0,0.0,0.0,0.0,0.0,0.0,0.0,0.0,0.0,0.0,0.0,0.0,0.0,0.0,0.0,0.0,0.0,0.0,0.0,0.0,0.0,0.0,0.0,0.0,0.0,0.0,0.0,0.0,0.0,0.0,0.0,0.0,0.0,0.0,0.0,0.0,0.0,0.0,0.0,0.0,0.0,0.0,0.0,0.0,0.0,0.0,0.0,0.0,0.0,0.0,0.0,0.0,0.0,0.0,0.0,0.0,0.0,0.0,0.0,0.0,0.0,0.0,0.0,0.0,0.0,0.0,0.0,0.0,0.0,0.0,0.0,0.0,0.0,0.0,0.0,0.0,0.0,0.0,0.0,0.0,0.0,0.0,0.0,0.0,0.0,0.0,0.0,0.0,0.0,0.0,0.0,0.0,0.0,0.0,0.0,0.0,0.0,0.0,0.0,0.0,0.0,0.0,0.0,0.0,0.0,0.0,0.0,0.0,0.0,0.0,0.0,0.0,0.0,0.0,0.0,0.0,0.0,0.0,0.0,0.0,0.0,0.0,0.0,0.0,0.0,0.0,0.0,0.0,0.0,0.0,0.0,0.0,0.0,0.0,0.0,0.0,0.0,0.0,0.0,0.0,0.0,0.0,0.0,0.0,0.0,0.0,0.0,0.0,0.0,0.0,0.0,0.0,0.0,0.0,0.0,0.0,0.0,0.0,0.0,0.0,0.0,0.0,0.0,0.0,0.0,0.0,0.0,0.0,0.0,0.0,0.0,0.0,0.0,0.0,0.0,0.0,0.0,0.0,0.0,0.0,0.0,0.0,0.0,0.0,0.0,0.0,0.0,0.0,0.0,0.0,0.0,0.0,0.0,0.0,0.0,0.0,0.0,0.0,0.0,0.0,0.0,0.0,0.0,0.0,0.0,0.0,0.0,0.0,0.0,0.0,0.0,0.0,0.0,0.0,0.0,0.0,0.0,0.0,0.0,0.0,0.0,0.0,0.0,0.0,0.0,0.0,0.0,0.0,0.0,0.0,0.0,0.0,0.0,0.0,0.0,0.0,0.0,0.0,0.0,0.0,0.0,0.0,0.0,0.0,0.0,0.0,0.0,0.0,0.0,0.0,0.0,0.0,0.0,0.0,0.0,0.0,0.0,0.0,0.0,0.0,0.0,0.0,0.0,0.0,0.0,0.0,0.0,0.0,0.0,0.0,0.0,0.0,0.0,0.0,0.0,0.0,0.0,0.0,0.0,0.0,0.0,0.0,0.0,0.0,0.0,0.0,0.0,0.0,0.0,0.0,0.0,0.0,0.0,0.0,0.0,0.0,0.0,0.0,0.0,0.0,0.0,0.0,0.0,0.0,0.0,0.0,0.0,0.0,0.0,0.0,0.0,0.0,0.0,0.0,0.0,0.0,0.0,0.0,0.0,0.0,0.0,0.0,0.0,0.0,0.0,0.0,0.0,0.0,0.0,0.0,0.0,0.0,0.0,0.0,0.0,0.0,0.0,0.0,0.0,0.0,0.0,0.0,0.0,0.0,0.0,0.0,0.0,0.0,0.0,0.0,0.0,0.0,0.0,0.0,0.0,0.0,0.0,0.0,0.0,0.0,0.0,0.0,0.0,0.0,0.0,0.0,0.0,0.0,0.0,0.0,0.0,0.0,0.0,0.0,0.0,0.0,0.0,0.0,0.0,0.0,0.0,0.0,0.0,0.0,0.0,0.0,0.0,0.0,0.0,0.0,0.0,0.0,0.0,0.0,0.0,0.0,0.0,0.0,0.0,0.0,0.0,0.0,0.0,0.0,0.0,0.0,0.0,0.0,0.0,0.0,0.0,0.0,0.0,0.0,0.0,0.0,0.0,0.0,0.0,0.0,0.0,0.0,0.0,0.0,0.0,0.0,0.0,0.0,0.0,0.0,0.0,0.0,0.0,0.0,0.0,0.0,0.0,0.0,0.0,0.0,0.0,0.0,0.0,0.0,0.0,0.0,0.0,0.0,0.0,0.0,0.0,0.0,0.0,0.0,0.0,0.0,0.0,0.0,0.0,0.0,0.0,0.0,0.0,0.0,0.0,0.0,0.0,0.0,0.0,0.0,0.0,0.0,0.0,0.0,0.0,0.0,0.0,0.0,0.0,0.0,0.0,0.0,0.0,0.0,0.0,0.0,0.0,0.0,0.0,0.0,0.0,0.0,0.0,0.0,0.0,0.0,0.0,0.0,0.0,0.0,0.0,0.0,0.0,0.0,0.0,0.0,0.0,0.0,0.0,0.0,0.0,0.0,0.0,0.0,0.0,0.0,0.0,0.0,0.0,0.0,0.0,0.0,0.0,0.0,0.0,0.0,0.0,0.0,0.0,0.0,0.0,0.0,0.0,0.0,0.0,0.0,0.0,0.0,0.0,0.0,0.0,0.0,0.0,0.0,0.0,0.0,0.0,0.0,0.0,0.0,0.0,0.0,0.0,0.0,0.0,0.0,0.0,0.0,0.0,0.0,0.0,0.0,0.0,0.0,0.0,0.0,0.0,0.0,0.0,0.0,0.0,0.0,0.0,0.0,0.0,0.0,0.0,0.0,0.0,0.0,0.0,0.0,0.0,0.0,0.0,0.0,0.0,0.0,0.0,0.0,0.0,0.0,0.0,0.0,0.0,0.0,0.0,0.0,0.0,0.0,0.0,0.0,0.0,0.0,0.0,0.0,0.0,0.0,0.0,0.0,0.0,0.0,0.0,0.0,0.0,0.0,0.0,0.0,0.0,0.0,0.0,0.0,0.0,0.0,0.0,0.0,0.0,0.0,0.0,0.0,0.0,0.0,0.0,0.0,0.0,0.0,0.0,0.0,0.0,0.0,0.0,0.0,0.0,0.0,0.0,0.0,0.0,0.0,0.0,0.0,0.0,0.0,0.0,0.0,0.0,0.0,0.0,0.0,0.0,0.0,0.0,0.0,0.0,0.0,0.0,0.0,0.0,0.0,0.0,0.0,0.0,0.0,0.0,0.0,0.0,0.0,0.0,0.0,0.0,0.0,0.0,0.0,0.0,0.0,0.0,0.0,0.0,0.0,0.0,0.0,0.0,0.0,0.0,0.0,0.0,0.0,0.0,0.0,0.0,0.0,0.0,0.0,0.0,0.0,0.0,0.0,0.0,0.0,0.0,0.0,0.0,0.0,0.0,0.0,0.0,0.0,0.0,0.0,0.0,0.0,0.0,0.0,0.0,0.0,0.0,0.0,0.0,0.0,0.0,0.0,0.0,0.0,0.0,0.0,0.0,0.0,0.0,0.0,0.0,0.0,0.0,0.0,0.0,0.0,0.0,0.0,0.0,0.0,0.0,0.0,0.0,0.0,0.0,0.0,0.0,0.0,0.0,0.0,0.0,0.0,0.0,0.0,0.0,0.0,0.0,0.0,0.0,0.0,0.0,0.0,0.0,0.0,0.0,0.0,0.0,0.0,0.0,0.0,0.0,0.0,0.0,0.0,0.0,0.0,0.0,0.0,0.0,0.0,0.0,0.0,0.0,0.0,0.0,0.0,0.0,0.0,0.0,0.0,0.0,0.0,0.0,0.0,0.0,0.0,0.0,0.0,0.0,0.0,0.0,0.0,0.0,0.0,0.0,0.0,0.0,0.0,0.0,0.0,0.0,0.0,0.0,0.0,0.0,0.0,0.0,0.0,0.0,0.0,0.0,0.0,0.0,0.0,0.0,0.0]}]]]